[[{"header":{"parameterUnit":"m.s-1","parameterCategory":1,"la1":30.6,"la2":29.2853,"lo1":-89.7004,"lo2":-87.6739,"dy":0.0162,"dx":0.0183,"nx":112,"ny":82,"refTime":"2023-11-13T18:00:00:Z","depth":0,"parameterNumber":2,"parameterNumberName":"U-component_of_WINDS"},"data":[0.0,0.0,0.0,0.0,0.0,0.0,0.0,0.0,0.0,0.0,0.0,0.0,0.0,0.0,0.0,0.0,0.0,0.0,0.0,0.0,0.0,0.0,0.0,0.0,0.0,0.0,0.0,0.0,0.0,0.0,0.0,0.0,0.0,0.0,0.0,0.0,0.0,0.0,0.0,0.0,0.0,0.0,0.0,0.0,0.0,0.0,0.0,0.0,0.0,0.0,0.0,0.0,0.0,0.0,0.0,0.0,0.0,0.0,0.0,0.0,0.0,0.0,0.0,0.0,0.0,0.0,0.0,0.0,0.0,0.0,0.0,0.0,0.0,0.0,0.0,0.0,0.0,0.0,0.0,0.0,0.0,0.0,0.0,0.0,0.0,0.0,0.0,0.0,0.0,0.0,0.0,2.7319,3.0971,3.3534,3.3855,3.3881,3.1913,2.7343,0.0,0.0,0.0,0.0,0.0,0.0,0.0,0.0,0.0,0.0,0.0,0.0,0.0,0.0,0.0,0.0,0.0,0.0,0.0,0.0,0.0,0.0,0.0,0.0,0.0,0.0,0.0,0.0,0.0,0.0,0.0,0.0,0.0,0.0,0.0,0.0,0.0,0.0,0.0,0.0,0.0,0.0,0.0,0.0,0.0,0.0,0.0,0.0,0.0,0.0,0.0,0.0,0.0,0.0,0.0,0.0,0.0,0.0,0.0,0.0,0.0,0.0,0.0,0.0,0.0,0.0,0.0,0.0,0.0,0.0,0.0,0.0,0.0,0.0,0.0,0.0,0.0,0.0,0.0,0.0,0.0,0.0,0.0,0.0,0.0,0.0,0.0,0.0,0.0,0.0,0.0,0.0,0.0,0.0,0.0,0.0,0.0,0.0,0.0,0.0,0.0,0.0,0.0,0.0,2.7365,3.1568,3.2881,3.3534,3.3855,3.3881,3.1913,2.7343,0.0,0.0,0.0,0.0,0.0,0.0,0.0,0.0,0.0,0.0,0.0,0.0,0.0,0.0,0.0,0.0,0.0,0.0,0.0,0.0,0.0,0.0,0.0,0.0,0.0,0.0,0.0,0.0,0.0,0.0,0.0,0.0,0.0,0.0,0.0,0.0,0.0,0.0,0.0,0.0,0.0,0.0,0.0,0.0,0.0,0.0,0.0,0.0,0.0,0.0,0.0,0.0,0.0,0.0,0.0,0.0,0.0,0.0,0.0,0.0,0.0,0.0,0.0,0.0,0.0,0.0,0.0,0.0,0.0,0.0,0.0,0.0,0.0,0.0,0.0,0.0,0.0,0.0,0.0,0.0,0.0,0.0,0.0,0.0,0.0,0.0,0.0,0.0,0.0,0.0,0.0,0.0,0.0,0.0,0.0,0.0,0.0,0.0,0.0,0.0,0.0,0.0,0.0,2.5411,2.8017,3.3027,3.3587,3.3855,3.4322,3.4362,3.2312,2.7745,2.7448,0.0,0.0,0.0,0.0,0.0,0.0,0.0,0.0,0.0,0.0,0.0,0.0,0.0,0.0,0.0,0.0,0.0,0.0,0.0,0.0,0.0,0.0,0.0,0.0,0.0,0.0,0.0,0.0,0.0,0.0,0.0,0.0,0.0,0.0,0.0,0.0,0.0,0.0,0.0,0.0,0.0,0.0,0.0,0.0,0.0,0.0,0.0,0.0,0.0,0.0,0.0,0.0,0.0,0.0,0.0,0.0,0.0,0.0,0.0,0.0,0.0,0.0,0.0,0.0,0.0,0.0,0.0,0.0,0.0,0.0,0.0,0.0,0.0,0.0,0.0,0.0,0.0,0.0,0.0,0.0,0.0,0.0,0.0,0.0,0.0,0.0,0.0,0.0,0.0,0.0,0.0,0.0,0.0,0.0,0.0,0.0,0.0,0.0,0.0,0.0,0.0,0.0,2.7485,2.9636,3.3492,3.3881,3.4122,3.471,3.4763,3.2647,2.7933,2.7623,0.0,0.0,0.0,0.0,0.0,0.0,0.0,0.0,0.0,0.0,0.0,0.0,0.0,0.0,0.0,0.0,0.0,0.0,0.0,0.0,0.0,0.0,0.0,0.0,0.0,0.0,0.0,0.0,0.0,0.0,0.0,0.0,0.0,0.0,0.0,0.0,0.0,0.0,0.0,0.0,0.0,0.0,0.0,0.0,0.0,0.0,0.0,0.0,0.0,0.0,0.0,0.0,0.0,0.0,0.0,0.0,0.0,0.0,0.0,0.0,0.0,0.0,0.0,0.0,0.0,0.0,0.0,0.0,0.0,0.0,0.0,0.0,0.0,0.0,0.0,0.0,0.0,0.0,0.0,0.0,0.0,0.0,0.0,0.0,0.0,0.0,0.0,0.0,0.0,0.0,0.0,0.0,0.0,0.0,0.0,0.0,0.0,0.0,0.0,0.0,0.0,0.0,2.9899,3.2895,3.3814,3.3881,3.4122,3.471,3.4763,3.2647,2.7933,2.7623,0.0,0.0,0.0,0.0,0.0,0.0,0.0,0.0,0.0,0.0,0.0,0.0,0.0,0.0,0.0,0.0,0.0,0.0,0.0,0.0,0.0,0.0,0.0,0.0,0.0,0.0,0.0,0.0,0.0,0.0,0.0,0.0,0.0,0.0,0.0,0.0,0.0,0.0,0.0,0.0,0.0,0.0,0.0,0.0,0.0,0.0,0.0,0.0,0.0,0.0,0.0,0.0,0.0,0.0,0.0,0.0,0.0,0.0,0.0,0.0,0.0,0.0,0.0,0.0,0.0,0.0,0.0,0.0,0.0,0.0,0.0,0.0,0.0,0.0,0.0,0.0,0.0,0.0,0.0,0.0,0.0,0.0,0.0,0.0,0.0,0.0,0.0,0.0,0.0,0.0,0.0,0.0,0.0,0.0,0.0,0.0,0.0,0.0,0.0,0.0,0.0,0.0,2.945,3.2151,0.0,3.4429,3.467,3.5257,3.5311,3.3085,2.8179,0.0,0.0,0.0,0.0,0.0,0.0,0.0,0.0,0.0,0.0,0.0,0.0,0.0,0.0,0.0,0.0,0.0,0.0,0.0,0.0,0.0,0.0,0.0,0.0,0.0,0.0,0.0,0.0,0.0,0.0,0.0,0.0,0.0,0.0,0.0,0.0,0.0,0.0,0.0,0.0,0.0,0.0,0.0,0.0,0.0,0.0,0.0,0.0,0.0,0.0,0.0,0.0,0.0,0.0,0.0,0.0,0.0,0.0,0.0,0.0,0.0,0.0,0.0,0.0,0.0,0.0,0.0,0.0,0.0,0.0,0.0,0.0,0.0,0.0,0.0,0.0,0.0,0.0,0.0,0.0,0.0,0.0,0.0,0.0,0.0,0.0,0.0,0.0,0.0,0.0,0.0,0.0,0.0,0.0,0.0,0.0,0.0,0.0,0.0,0.0,0.0,0.0,2.6538,2.9529,3.2449,0.0,3.4897,3.5124,3.5725,3.5765,3.3458,2.8332,0.0,0.0,0.0,0.0,0.0,0.0,0.0,0.0,0.0,0.0,0.0,0.0,0.0,0.0,0.0,0.0,0.0,0.0,0.0,0.0,0.0,0.0,0.0,0.0,0.0,0.0,0.0,0.0,0.0,0.0,0.0,0.0,0.0,0.0,0.0,0.0,0.0,0.0,0.0,0.0,0.0,0.0,0.0,0.0,0.0,0.0,0.0,0.0,0.0,0.0,0.0,0.0,0.0,0.0,0.0,0.0,0.0,0.0,0.0,0.0,0.0,0.0,0.0,0.0,0.0,0.0,0.0,0.0,0.0,0.0,0.0,0.0,0.0,0.0,0.0,0.0,0.0,0.0,0.0,0.0,0.0,0.0,0.0,0.0,0.0,0.0,0.0,0.0,0.0,0.0,0.0,0.0,0.0,0.0,0.0,0.0,0.0,0.0,0.0,0.0,0.0,0.0,2.6829,3.1018,3.4242,3.511,3.5204,3.5444,3.6032,3.6086,3.3875,0.0,0.0,0.0,0.0,0.0,0.0,0.0,0.0,0.0,0.0,0.0,0.0,0.0,0.0,0.0,0.0,0.0,0.0,0.0,0.0,0.0,0.0,0.0,0.0,0.0,0.0,0.0,0.0,0.0,0.0,0.0,0.0,0.0,0.0,0.0,0.0,0.0,0.0,0.0,0.0,0.0,0.0,0.0,0.0,0.0,0.0,0.0,0.0,0.0,0.0,0.0,0.0,0.0,0.0,0.0,0.0,0.0,0.0,0.0,0.0,0.0,0.0,0.0,0.0,0.0,0.0,0.0,0.0,0.0,0.0,0.0,0.0,0.0,0.0,0.0,0.0,0.0,0.0,0.0,0.0,0.0,0.0,0.0,0.0,0.0,0.0,0.0,0.0,0.0,0.0,0.0,0.0,0.0,0.0,0.0,0.0,0.0,0.0,0.0,0.0,0.0,0.0,0.0,2.7576,3.1883,3.499,3.5458,3.5685,3.6046,3.6647,3.65,3.425,2.8872,0.0,0.0,0.0,0.0,0.0,0.0,0.0,0.0,0.0,0.0,0.0,0.0,0.0,0.0,0.0,0.0,0.0,0.0,0.0,0.0,0.0,0.0,0.0,0.0,0.0,0.0,0.0,0.0,0.0,0.0,0.0,0.0,0.0,0.0,0.0,0.0,0.0,0.0,0.0,0.0,0.0,0.0,0.0,0.0,0.0,0.0,0.0,0.0,0.0,0.0,0.0,0.0,0.0,0.0,0.0,0.0,0.0,0.0,0.0,0.0,0.0,0.0,0.0,0.0,0.0,0.0,0.0,0.0,0.0,0.0,0.0,0.0,0.0,0.0,0.0,0.0,0.0,0.0,0.0,0.0,0.0,0.0,0.0,0.0,0.0,0.0,0.0,0.0,0.0,0.0,0.0,0.0,0.0,0.0,0.0,0.0,0.0,0.0,0.0,0.0,0.0,0.0,2.8043,3.2328,3.5391,3.5925,3.6139,3.6473,3.7048,3.6941,3.5115,3.0878,0.0,0.0,0.0,0.0,0.0,0.0,0.0,0.0,0.0,0.0,0.0,0.0,0.0,0.0,0.0,0.0,0.0,0.0,0.0,0.0,0.0,0.0,0.0,0.0,0.0,0.0,0.0,0.0,0.0,0.0,0.0,0.0,0.0,0.0,0.0,0.0,0.0,0.0,0.0,0.0,0.0,0.0,0.0,0.0,0.0,0.0,0.0,0.0,0.0,0.0,0.0,0.0,0.0,0.0,0.0,0.0,0.0,0.0,0.0,0.0,0.0,0.0,0.0,0.0,0.0,0.0,0.0,0.0,0.0,0.0,0.0,0.0,0.0,0.0,0.0,0.0,0.0,0.0,0.0,0.0,0.0,0.0,0.0,0.0,0.0,0.0,0.0,0.0,0.0,0.0,0.0,0.0,0.0,0.0,0.0,0.0,0.0,0.0,0.0,0.0,0.0,0.0,2.8346,3.2506,3.5605,3.6473,3.658,3.6794,3.7342,3.7422,3.6118,3.2948,0.0,0.0,0.0,0.0,0.0,0.0,0.0,0.0,0.0,0.0,0.0,0.0,0.0,0.0,0.0,0.0,0.0,0.0,0.0,0.0,0.0,0.0,0.0,0.0,0.0,0.0,0.0,0.0,0.0,0.0,0.0,0.0,0.0,0.0,0.0,0.0,0.0,0.0,0.0,0.0,0.0,0.0,0.0,0.0,0.0,0.0,0.0,0.0,0.0,0.0,0.0,0.0,0.0,0.0,0.0,0.0,0.0,0.0,0.0,0.0,3.9199,0.0,0.0,0.0,0.0,0.0,0.0,0.0,0.0,0.0,0.0,0.0,0.0,0.0,0.0,0.0,0.0,0.0,0.0,0.0,0.0,0.0,0.0,0.0,0.0,0.0,0.0,0.0,0.0,0.0,0.0,0.0,0.0,0.0,0.0,0.0,0.0,0.0,0.0,0.0,0.0,0.0,2.8871,3.3091,3.6126,3.6794,3.7048,3.7235,3.7382,3.7595,3.5502,3.0162,2.9001,0.0,0.0,0.0,0.0,0.0,0.0,0.0,0.0,0.0,0.0,0.0,0.0,0.0,0.0,0.0,0.0,0.0,0.0,0.0,0.0,0.0,0.0,0.0,0.0,0.0,0.0,0.0,0.0,0.0,0.0,0.0,0.0,0.0,0.0,0.0,0.0,0.0,0.0,0.0,0.0,0.0,0.0,0.0,0.0,0.0,0.0,0.0,0.0,0.0,0.0,0.0,0.0,0.0,0.0,0.0,0.0,0.0,0.0,0.0,0.0,3.9966,0.0,0.0,0.0,0.0,0.0,0.0,0.0,0.0,0.0,0.0,0.0,0.0,0.0,0.0,0.0,0.0,0.0,0.0,0.0,0.0,0.0,0.0,0.0,0.0,0.0,0.0,0.0,0.0,0.0,0.0,0.0,0.0,0.0,0.0,0.0,0.0,0.0,0.0,0.0,0.0,2.9384,3.3663,3.6727,3.7301,3.7382,3.6814,3.5687,3.5484,3.3632,2.8975,2.7438,0.0,0.0,0.0,0.0,0.0,0.0,0.0,0.0,0.0,0.0,0.0,0.0,0.0,0.0,0.0,0.0,0.0,0.0,0.0,0.0,0.0,0.0,0.0,0.0,0.0,0.0,0.0,0.0,0.0,0.0,0.0,0.0,0.0,0.0,0.0,0.0,0.0,0.0,0.0,0.0,0.0,0.0,0.0,0.0,0.0,0.0,0.0,0.0,0.0,0.0,0.0,0.0,0.0,4.2872,4.3342,4.3615,4.3543,4.4451,4.5894,4.4046,4.3733,4.4174,4.0861,0.0,0.0,0.0,0.0,0.0,0.0,0.0,0.0,0.0,0.0,0.0,0.0,0.0,0.0,0.0,0.0,0.0,0.0,0.0,0.0,0.0,0.0,0.0,0.0,3.2669,3.3387,0.0,0.0,0.0,0.0,0.0,0.0,0.0,0.0,0.0,0.0,0.0,0.0,3.0235,3.4261,3.7235,3.7823,3.7676,3.633,3.3673,3.3359,3.174,2.8129,2.5718,2.4299,0.0,0.0,0.0,0.0,0.0,0.0,0.0,0.0,0.0,0.0,0.0,0.0,0.0,0.0,0.0,0.0,0.0,0.0,0.0,0.0,0.0,0.0,0.0,0.0,0.0,0.0,0.0,0.0,0.0,0.0,0.0,0.0,3.8901,3.8418,0.0,0.0,0.0,0.0,0.0,0.0,0.0,0.0,0.0,0.0,0.0,0.0,0.0,4.1888,4.2711,4.4141,4.5423,4.6187,4.7698,4.8853,4.9606,4.9258,4.9505,5.0064,4.9408,0.0,4.482,4.4294,0.0,0.0,0.0,0.0,0.0,0.0,0.0,0.0,0.0,0.0,0.0,0.0,0.0,0.0,0.0,0.0,0.0,0.0,0.0,0.0,0.0,0.0,3.6381,3.6604,3.6986,3.6999,0.0,3.2883,2.9501,2.8739,2.8595,0.0,0.0,0.0,0.0,0.0,0.0,0.0,3.3019,3.5598,3.7569,3.8143,3.8157,3.6881,3.3448,3.3571,3.1136,2.5114,2.4265,2.3232,2.0576,1.9367,0.0,0.0,0.0,0.0,0.0,0.0,0.0,0.0,0.0,0.0,0.0,0.0,0.0,0.0,0.0,0.0,0.0,0.0,0.0,0.0,0.0,0.0,0.0,0.0,0.0,0.0,0.0,0.0,0.0,3.806,3.9486,3.8061,3.7824,3.7199,0.0,0.0,0.0,0.0,0.0,0.0,0.0,0.0,0.0,4.4471,4.5113,4.6241,4.8082,4.9091,4.9665,5.0049,5.0823,5.1504,5.1875,5.168,5.1699,5.1855,5.1426,5.0319,4.8746,4.6573,4.4635,4.2797,0.0,0.0,0.0,0.0,3.4318,3.3782,3.303,3.2406,3.1642,2.964,0.0,0.0,0.0,0.0,0.0,0.0,0.0,0.0,0.0,0.0,3.6402,3.7954,3.833,3.833,3.833,3.6376,3.4191,0.0,3.082,2.894,2.6132,0.0,0.0,0.0,0.0,3.2026,3.3547,3.6223,3.7273,3.5873,3.5655,3.3547,2.8659,2.8238,2.6418,2.194,2.1707,2.1092,1.988,1.8926,1.8608,0.0,0.0,0.0,0.0,0.0,0.0,0.0,0.0,0.0,0.0,0.0,0.0,0.0,0.0,0.0,0.0,0.0,0.0,0.0,0.0,0.0,0.0,0.0,0.0,0.0,0.0,0.0,0.0,3.895,4.015,3.8529,3.8838,3.8648,0.0,0.0,0.0,0.0,0.0,0.0,4.3325,4.4213,4.5773,4.8424,4.9163,5.0662,5.2734,5.3066,5.3262,5.3379,5.3379,5.3437,5.3535,5.3418,5.3437,5.3496,5.2969,5.2676,5.2402,4.8862,4.6579,4.4937,4.1679,3.9465,3.8001,3.5716,3.47,3.4372,3.4044,3.4002,3.3758,3.187,3.1185,3.0514,2.9665,0.0,0.0,0.0,0.0,3.2768,3.5446,3.6092,3.6385,3.8339,3.8718,3.8718,3.8718,3.8148,3.7188,0.0,3.3453,3.1368,2.8606,0.0,0.0,0.0,0.0,3.3801,3.4579,3.6111,3.6141,3.3768,3.2839,3.0122,2.4889,2.4316,2.2862,1.9894,1.9664,1.9664,1.9664,1.9115,1.8728,1.8531,0.0,0.0,0.0,0.0,0.0,0.0,0.0,0.0,0.0,0.0,0.0,0.0,0.0,0.0,0.0,0.0,0.0,0.0,0.0,0.0,0.0,0.0,0.0,0.0,0.0,0.0,0.0,0.0,0.0,4.0717,4.216,0.0,0.0,0.0,0.0,4.2548,4.3349,4.5046,4.772,4.8937,5.0602,5.2905,5.3391,5.4062,5.4551,5.457,5.4785,5.5176,5.5176,5.539,5.5762,5.5351,5.539,5.5723,5.4902,5.4316,5.3789,5.1815,4.8656,4.4779,4.4385,4.1039,3.6406,3.5949,3.5252,3.4255,3.4282,3.4295,3.409,3.2388,3.0914,2.9956,3.2127,3.1843,0.0,0.0,3.4981,3.6129,3.8121,3.8658,3.8764,3.8784,3.8718,3.8718,3.8718,3.7088,3.6079,0.0,3.7901,3.6945,3.3939,0.0,3.3447,3.2945,3.3634,3.4884,3.7011,3.5318,3.3803,3.3547,3.0963,2.8001,2.464,2.4425,2.2989,1.9894,1.9664,1.9664,1.9664,1.9624,1.9271,1.8545,1.864,0.0,0.0,0.0,0.0,0.0,0.0,0.0,0.0,0.0,0.0,0.0,0.0,0.0,0.0,0.0,0.0,0.0,0.0,0.0,0.0,0.0,0.0,0.0,0.0,0.0,0.0,0.0,0.0,4.3659,4.4838,0.0,4.5083,4.5805,4.6648,4.7461,4.9057,5.0656,5.1781,5.2782,5.3661,5.4609,5.5566,5.6152,5.6308,5.6582,5.6797,5.6953,5.6953,5.7031,5.7168,5.7012,5.7031,5.7148,5.6562,5.5107,5.3112,5.1998,4.9726,4.6723,4.3316,4.0406,3.8199,3.6661,3.5747,3.5191,3.5378,3.5324,3.4953,3.4518,3.4115,3.426,3.5093,3.565,3.586,3.724,3.7788,3.8467,3.9269,3.9493,3.9372,3.9078,3.9012,3.8945,3.8758,3.8095,3.7719,3.8531,3.7292,3.5851,3.4555,3.5374,3.5754,3.3826,3.5003,3.5699,3.4333,3.3835,3.184,2.7728,2.6545,2.4846,2.1563,2.1232,2.075,1.9644,1.9569,1.9556,1.9664,1.9664,1.9535,1.9257,1.9312,1.8351,0.0,0.0,0.0,0.0,0.0,0.0,0.0,0.0,0.0,0.0,0.0,0.0,0.0,0.0,0.0,0.0,0.0,0.0,0.0,0.0,0.0,0.0,0.0,0.0,0.0,4.3144,4.5427,4.5694,4.7672,4.8756,4.8161,4.9704,5.0972,5.1675,5.3537,5.4707,5.5293,5.6152,5.668,5.6816,5.7793,5.8301,5.8301,5.8594,5.873,5.873,5.8594,5.8594,5.873,5.8594,5.8613,5.8711,5.8144,5.6056,5.304,5.1473,4.9274,4.647,4.2481,3.9948,3.854,3.6965,3.6233,3.6086,3.6179,3.6153,3.6072,3.6072,3.6393,3.6874,3.7275,3.7929,3.8651,3.9159,3.9599,3.992,4.0,3.9893,3.9666,3.9372,3.9306,3.9265,3.9052,3.9012,3.9012,3.9012,3.7605,3.6334,3.5886,3.701,3.6958,3.4417,3.5118,3.4981,3.1896,3.0814,2.8794,2.4222,2.3252,2.1993,1.9894,1.8986,1.8692,1.9569,1.8913,1.864,1.9569,1.9005,1.849,1.8542,1.8542,1.7638,1.567,0.0,0.0,0.0,0.0,0.0,0.0,0.0,0.0,0.0,0.0,0.0,0.0,0.0,0.0,0.0,0.0,0.0,0.0,0.0,0.0,0.0,0.0,0.0,4.2622,4.5445,4.7413,4.6914,5.0829,5.2869,5.1648,5.3474,5.5019,5.543,5.623,5.707,5.793,5.8789,5.9414,5.9863,6.0273,6.0449,6.0488,6.0449,6.0449,6.0449,6.0039,6.0039,6.043,6.0039,6.0039,6.0371,5.9551,5.7306,5.3997,5.0597,4.702,4.3836,4.22,3.985,3.7422,3.7114,3.7008,3.6941,3.6647,3.6727,3.6967,3.6941,3.7155,3.7529,3.8116,3.8691,3.9225,3.9533,4.004,4.0401,4.0107,4.004,3.996,3.968,3.9599,3.9599,3.9599,3.9599,3.9599,3.9599,3.9132,3.8651,3.833,3.829,3.7378,3.4994,3.3931,0.0,3.0126,2.65,2.4163,2.3909,2.1092,1.9501,1.9644,1.7699,1.7361,1.9186,1.7476,1.722,1.9427,1.7476,1.6455,1.6596,1.6578,1.6455,1.6425,0.0,0.0,0.0,0.0,0.0,0.0,0.0,0.0,0.0,0.0,0.0,0.0,0.0,0.0,0.0,0.0,0.0,0.0,0.0,0.0,0.0,4.4343,4.6541,4.6169,4.8843,5.1358,5.321,5.5049,5.631,5.7045,5.7847,5.8594,5.9004,5.9238,5.9746,6.0625,6.0625,6.0742,6.1191,6.1015,6.1074,6.1367,6.1074,6.0918,6.0918,6.0801,6.0625,6.043,6.0332,6.0332,6.0182,5.7601,5.4873,5.1527,4.8111,4.4489,4.1334,4.0688,3.9739,3.8651,3.8571,3.829,3.7849,3.7555,3.7515,3.7529,3.7342,3.7742,3.8397,3.8544,3.9159,3.9813,3.9893,4.0187,4.0441,4.0361,4.0361,4.0294,4.0,3.992,3.9853,3.964,3.9599,3.9599,3.9599,3.9452,3.9265,3.8972,3.8731,3.7501,3.4342,3.3465,0.0,2.635,2.4911,2.2854,1.8919,1.7816,1.7368,1.7544,1.6989,1.7501,1.959,1.8833,1.88,1.959,1.8919,1.8705,1.894,1.744,1.6728,0.0,0.0,0.0,0.0,0.0,0.0,0.0,0.0,0.0,0.0,0.0,0.0,0.0,0.0,0.0,0.0,0.0,0.0,0.0,0.0,0.0,0.0,4.7253,4.9835,5.1076,5.2917,5.4726,5.6777,5.7949,5.9004,6.0156,6.0625,6.0976,6.125,6.1601,6.2012,6.2519,6.2305,6.2305,6.2519,6.2129,6.2109,6.2519,6.2129,6.2012,6.2187,6.1797,6.1601,6.1523,6.1308,6.1367,6.1252,5.7741,5.4276,5.1101,4.7446,4.3837,4.0802,0.0,0.0,0.0,0.0,3.9118,3.8771,3.8464,3.8464,3.8504,3.821,3.8571,3.9092,3.9092,3.9519,4.0027,4.0027,4.0254,4.0481,4.0481,4.0481,4.0441,4.0254,4.0214,4.0187,4.0,3.996,3.996,3.996,3.8734,0.0,3.7519,3.7178,3.5598,3.1299,3.0169,2.8046,2.3696,2.2624,2.1232,1.8491,1.8058,1.807,1.799,1.7102,0.0,0.0,0.0,1.8014,1.8249,1.823,0.0,0.0,0.0,1.7236,1.7996,1.6745,0.0,0.0,1.6016,1.5578,0.0,0.0,0.0,0.0,0.0,0.0,0.0,0.0,0.0,0.0,0.0,0.0,0.0,0.0,0.0,0.0,5.0416,5.3672,5.6543,5.707,5.7578,5.8711,5.9961,6.1074,6.1836,6.2363,6.2656,6.2656,6.3398,6.3848,6.3906,6.3808,0.0,0.0,0.0,6.3398,6.3906,6.3457,6.3437,6.375,6.2949,6.2754,6.3027,6.2637,6.2458,6.2311,5.8299,5.456,5.1401,4.7299,4.3846,4.131,4.0508,4.0027,3.9786,3.9746,3.9706,3.9666,3.9346,0.0,0.0,3.9306,3.9412,3.9666,3.968,3.9893,4.0107,4.0107,4.0321,4.0508,4.0481,4.0508,4.0548,4.0548,4.0548,4.0588,4.0588,4.0588,4.0588,4.0588,3.7826,3.5556,3.5064,3.4612,3.2246,2.7232,2.5642,2.3983,2.1906,2.0781,2.0119,1.9843,1.9843,0.0,1.9823,1.8002,1.7611,1.9691,1.7883,1.6775,1.6882,1.7025,1.7209,1.747,1.7334,1.8385,2.0153,1.9997,1.9929,1.9908,1.7782,1.6971,0.0,0.0,0.0,0.0,0.0,0.0,0.0,0.0,0.0,0.0,0.0,0.0,0.0,0.0,0.0,5.0072,5.3743,5.6914,5.8887,6.0098,6.0683,6.0625,6.1719,6.2754,6.3281,6.3965,6.4433,6.4433,6.459,6.4844,6.5195,6.4551,6.4492,6.5195,6.4492,6.4433,6.5195,6.4785,6.4433,6.4199,6.4023,0.0,6.3027,6.293,6.1631,5.9002,5.5299,5.2047,4.8747,4.4867,4.2616,4.167,4.1229,4.1056,4.0976,4.0735,4.0508,4.0254,3.996,3.9746,3.9599,3.9533,3.9706,4.0,4.0227,4.0334,0.0,4.0695,4.0762,4.0762,4.0548,4.0842,4.1122,4.0869,4.1016,4.1163,4.1163,4.1163,4.1163,4.1163,3.8387,3.5335,3.2541,3.1494,2.9843,2.6133,2.5186,2.397,2.0978,2.0512,1.9727,1.81,1.7845,1.7802,1.7694,1.7217,1.799,2.001,1.9689,1.9349,1.9263,1.9502,1.9727,1.9899,1.976,2.0031,2.0451,2.0315,2.0241,2.0241,1.9722,1.9402,0.0,0.0,0.0,0.0,0.0,0.0,0.0,0.0,0.0,0.0,0.0,4.2585,4.4911,0.0,5.0384,5.3536,5.6348,5.8887,6.0801,6.2012,6.2637,6.2422,6.3164,6.3906,6.4551,6.5,6.5293,6.5293,6.5469,6.5683,6.5879,6.5527,6.5469,6.5879,6.5293,6.5254,6.5879,6.5469,6.5293,6.5234,6.5058,6.4726,6.4297,6.2551,6.0866,5.8987,5.3582,5.0191,4.852,4.4466,4.2485,4.2191,4.1897,4.1603,4.131,4.1016,4.0909,4.0869,4.0575,4.0468,4.0468,4.0468,4.0575,4.0722,4.0869,4.0909,4.0949,4.1082,4.1122,4.1096,4.0949,4.1122,4.131,4.1163,4.1229,4.1336,4.1336,4.1336,4.0814,3.9048,3.5986,3.2679,2.9125,2.6941,2.5033,2.3436,2.3167,2.2419,2.091,2.0736,2.0453,1.9287,1.9076,1.9057,1.9178,1.8912,1.9393,2.0329,2.0329,2.0329,2.0329,2.0539,2.0702,2.077,2.0702,2.0702,2.077,2.0627,2.056,2.0539,2.0471,2.0404,0.0,0.0,0.0,0.0,0.0,0.0,0.0,4.5211,4.4682,4.5583,4.5593,4.6256,4.9158,5.1246,5.3634,5.6777,5.8789,6.0566,6.248,6.3457,6.3984,6.414,6.4433,6.4883,6.5644,6.5703,6.5762,6.582,6.6152,6.6387,6.6445,6.6387,6.6387,6.6445,6.6055,6.5996,6.6328,6.5996,6.5976,6.6211,6.5879,6.5644,6.5605,6.1938,5.9917,5.8935,5.1604,4.8201,4.7752,4.4403,4.2766,4.2632,4.2405,4.2004,4.1563,4.1203,4.1229,4.1376,4.1096,4.1163,4.1336,4.1336,4.1336,4.1336,4.1416,4.1376,4.1336,4.1416,4.1416,4.1416,4.1416,4.1523,4.1603,4.1603,4.163,4.167,4.167,4.1144,3.9802,3.706,3.3156,2.9532,2.6811,2.3576,2.1231,2.1034,2.1055,2.1068,2.1055,2.1157,2.1211,2.1109,2.1157,2.1157,2.1021,2.0892,2.077,2.0682,2.0661,2.0736,2.0858,2.1001,2.1068,2.1034,2.1021,2.1021,2.1034,2.0858,2.079,2.0811,2.079,2.0682,4.5992,4.7373,4.8742,4.6796,4.789,4.9145,0.0,4.815,4.8887,5.0803,5.1405,5.2374,5.4675,5.6212,5.7691,5.9726,6.1484,6.2969,6.3965,6.4492,6.5058,6.5859,6.5644,6.5644,6.6094,6.6152,6.6289,6.6699,6.6758,6.6972,6.7324,6.6992,6.6972,6.7324,6.6933,6.6758,6.6797,6.6758,6.6562,6.6211,6.6152,6.5937,6.5605,6.1938,5.8767,5.5927,4.8549,4.5022,4.4495,4.3842,4.3127,4.2659,4.2619,4.2592,4.2445,4.1897,4.171,4.171,4.1376,4.131,4.1336,4.1336,4.1336,4.1376,4.1644,4.1563,4.1376,4.167,4.175,4.175,4.175,4.2111,4.2512,4.2512,4.2699,4.2913,4.2913,4.0337,3.787,3.7588,3.1778,2.7216,2.7021,2.4066,2.1475,2.1068,2.1231,2.1333,2.1211,2.1319,2.1408,2.1387,2.1279,2.1157,2.1021,2.098,2.1021,2.1123,2.1143,2.1143,2.1157,2.1319,2.1333,2.1197,2.1068,2.1068,2.1197,2.0912,2.0845,2.0967,2.0845,2.0682,5.0126,5.0277,5.0298,5.0894,5.1672,5.2139,5.1317,5.1547,5.2166,5.3443,5.4336,5.5469,5.7129,5.8711,6.0215,6.1719,6.2988,6.4082,6.4941,6.541,6.5703,6.582,6.5918,6.6113,6.6562,6.6797,6.7031,6.7207,6.7207,6.7324,6.75,6.709,6.6933,6.7148,6.6972,6.6875,6.6875,6.6875,6.6758,6.6582,6.6582,6.6504,6.6097,6.0561,5.4801,4.9489,4.648,4.4797,4.4222,4.3928,4.3567,4.3167,4.298,4.2913,4.2806,4.2071,4.2004,4.2218,4.175,4.171,4.1857,4.1857,4.1964,4.2111,4.2044,4.2071,4.2151,4.2258,4.2298,4.2365,4.2726,4.2846,4.2993,4.3354,4.1662,3.996,4.0122,3.7288,3.3951,3.1954,2.8915,2.6231,2.4523,2.2979,2.1862,2.1672,2.176,2.1848,2.1862,2.1916,2.1937,2.1848,2.1686,2.1584,2.1509,2.1509,2.155,2.1597,2.1597,2.1597,2.1597,2.1828,2.1808,2.1475,2.1496,2.1462,2.1353,2.1123,2.1055,2.1123,2.1055,2.0946,5.2498,5.3023,5.2929,5.4467,5.5512,5.5586,5.4139,5.4384,5.4977,5.5678,5.6484,5.7598,5.9121,6.043,6.1719,6.3144,6.4082,6.4941,6.5644,6.5937,6.5879,6.5469,6.5469,6.5762,6.6289,6.6914,6.7383,6.75,6.7617,6.7734,6.7832,6.7441,6.7226,6.7226,6.7226,6.7109,6.6875,6.6972,6.6972,6.6875,6.6972,6.6427,6.5277,5.8148,5.1435,4.5424,4.5344,4.5024,4.4543,4.4329,4.3968,4.3527,4.338,4.3273,4.3127,4.2405,4.2405,4.2726,4.2298,4.2298,4.2472,4.2472,4.2619,4.2739,4.2512,4.2619,4.2766,4.2766,4.2846,4.302,4.3527,4.3567,4.3346,4.2764,4.0389,3.7981,3.7011,3.3639,3.0285,2.7889,2.651,2.4908,2.2597,2.2167,2.2269,2.2344,2.2357,2.2378,2.2391,2.2432,2.2411,2.2255,2.2093,2.1991,2.195,2.1903,2.1916,2.2004,2.2004,2.2025,2.2059,2.2323,2.2255,2.1794,2.1848,2.176,2.1509,2.1299,2.1231,2.1279,2.1231,2.1157,5.1878,5.4905,5.7019,5.5941,5.8138,5.9527,5.6102,5.5859,5.6836,5.8144,5.8476,5.9121,6.125,6.166,6.2246,6.3965,6.5,6.5703,6.6152,6.5879,6.5469,6.5,6.4258,6.4082,6.4941,6.6152,6.7051,6.7441,6.791,6.8359,6.875,6.8359,6.8144,6.8144,6.8144,6.7734,6.6875,6.7265,6.7265,6.6875,6.7265,6.5383,6.1578,5.4444,4.919,4.5705,4.5424,4.5131,4.4877,4.485,4.4329,4.3567,4.3861,4.3781,4.3487,4.3167,4.306,4.31,4.306,4.306,4.306,4.306,4.306,4.31,4.306,4.306,4.31,4.31,4.3273,4.3567,4.3901,4.4182,4.3636,4.0094,3.9315,3.8122,3.4323,3.0583,2.774,2.7731,2.4624,2.2188,2.2486,2.2534,2.2642,2.294,2.2974,2.2873,2.2588,2.2676,2.271,2.2554,2.2411,2.2269,2.2113,2.1971,2.2004,2.2303,2.2323,2.2391,2.2534,2.2676,2.2554,2.2113,2.195,2.1815,2.1672,2.1353,2.1285,2.1421,2.1279,2.1211,5.5532,5.7397,5.9296,6.211,6.2707,6.2238,6.0678,6.0782,6.0727,5.9292,5.784,5.7151,5.7835,5.8406,5.9242,6.0649,6.3064,6.5078,6.6094,6.6094,6.5527,6.4258,6.4375,6.4297,6.373,6.5117,6.6445,6.7441,6.791,6.8242,6.8418,6.8242,6.8183,6.8183,6.8183,6.8066,6.7734,6.789,6.7734,6.7265,6.4739,6.1831,5.8243,5.3239,4.9176,4.5745,4.5638,4.5318,4.4877,4.4877,4.4476,4.3861,4.3968,4.3928,4.3558,4.1034,4.0051,4.0136,3.9769,3.9769,3.9941,3.9941,3.9916,4.018,3.9916,3.8305,3.7,3.9593,4.0234,4.0964,4.418,4.2873,4.0697,4.0024,3.5711,3.1592,3.0439,2.7077,2.4527,2.4416,2.325,2.2466,2.2676,2.2622,2.2622,2.2832,2.3029,2.3083,2.2886,2.2907,2.2873,2.273,2.2656,2.2608,2.2554,2.252,2.252,2.2622,2.2642,2.2656,2.271,2.2852,2.2676,2.2127,2.216,2.1971,2.1509,2.1408,2.1387,2.1441,2.1387,2.1367,5.8901,6.1161,6.3036,6.6465,6.6937,6.5853,6.3655,6.425,6.4093,6.0468,5.8034,5.6544,5.6326,5.6046,5.6254,5.7205,6.0071,6.2572,6.4284,6.4111,6.3856,6.4004,6.3965,6.3906,6.3515,6.4609,6.5879,6.7148,6.7969,6.8418,6.8418,6.8535,6.8574,6.8418,6.8535,6.8476,6.8183,6.8359,6.8242,6.7949,6.2585,5.9083,5.7037,5.1483,4.7862,4.5745,4.5745,4.5491,4.5064,4.5131,4.477,4.4182,4.4262,4.3426,4.1968,3.9507,3.7274,3.5298,3.5919,3.6467,3.6667,3.6667,3.6678,3.6926,3.6678,3.5033,3.3706,3.6312,3.6966,3.7657,4.0478,3.9393,3.7178,3.6372,3.2306,2.8212,2.6768,2.4532,2.2818,2.2662,2.2676,2.2744,2.2852,2.2818,2.2818,2.292,2.3097,2.3171,2.3029,2.3063,2.3049,2.2961,2.2886,2.2873,2.2873,2.2818,2.2798,2.2852,2.2873,2.2886,2.294,2.3029,2.2832,2.2289,2.2323,2.2072,2.153,2.1475,2.1441,2.1441,2.1441,2.1441,6.2175,6.5697,6.8152,6.9329,7.0898,7.0677,6.5412,6.6385,6.6904,6.1209,5.8802,5.711,5.5779,5.4139,5.3242,5.383,5.6171,5.8836,6.1495,6.0819,6.1037,6.3937,6.3281,6.2988,6.4199,6.4707,6.5508,6.6758,6.8066,6.8769,6.8769,6.9219,6.9277,6.8867,6.9258,6.9101,6.8242,6.8633,6.8789,6.8509,6.071,5.7037,5.7066,4.9206,4.5745,4.5745,4.5745,4.5571,4.5344,4.5598,4.5237,4.4476,4.4501,4.222,3.8716,3.8434,3.4053,2.8807,3.1734,3.3118,3.3307,3.3307,3.3307,3.3287,3.3307,3.3297,3.3011,3.3307,3.3446,3.3884,3.3894,3.4054,3.3361,2.9716,2.8856,2.7694,2.389,2.3008,2.2974,2.2818,2.292,2.3008,2.3008,2.313,2.3219,2.3219,2.3219,2.3171,2.3042,2.313,2.3219,2.3219,2.3097,2.3029,2.3029,2.2886,2.2873,2.3008,2.3029,2.3083,2.3219,2.3219,2.2995,2.2554,2.2391,2.2113,2.1652,2.1509,2.1441,2.1441,2.1441,2.1441,6.5567,6.8955,7.1773,7.3302,7.4392,7.3534,6.7987,6.7642,6.6011,5.7363,5.351,5.0725,4.7818,4.9275,5.1168,5.1944,5.7568,6.2215,6.3817,6.4281,6.4624,6.4805,6.4785,6.4668,6.4355,6.5,6.582,6.6816,6.7793,6.8359,6.8359,6.9336,6.9726,6.9277,6.9687,6.9687,6.9101,6.8926,6.7447,6.4706,5.9617,5.557,5.2974,4.8058,4.5745,4.5745,4.5745,4.5571,4.5318,4.5384,4.5171,4.4501,4.178,4.0106,3.8417,3.2903,2.9759,2.8014,2.6268,2.7732,3.0123,3.0123,3.0034,2.9937,3.0079,2.8072,2.6323,2.9234,3.0167,3.075,3.3564,3.2478,2.999,2.914,2.6619,2.4317,2.332,2.3097,2.313,2.2974,2.3063,2.313,2.3029,2.313,2.3219,2.3219,2.3219,2.3205,2.3171,2.3205,2.3219,2.3219,2.3185,2.3171,2.3171,2.313,2.313,2.3171,2.3171,2.3185,2.3219,2.3117,2.2852,2.2411,2.2249,2.195,2.1496,2.1455,2.1441,2.1441,2.1441,2.1441,6.898,7.1748,7.4121,7.5301,7.618,7.4908,6.8079,6.7302,6.5004,5.4758,5.0568,4.76,4.4385,4.6425,4.8728,4.9546,5.5522,6.0913,6.3078,6.3634,6.4188,6.5241,6.5527,6.5527,6.543,6.6055,6.6699,6.7383,6.791,6.8359,6.8711,6.9394,6.9785,6.9726,6.9785,6.9687,6.9433,6.9219,6.7171,6.358,5.9324,5.5479,5.1707,4.7525,4.5745,4.5745,4.5745,4.5638,4.5491,4.5344,4.4099,4.2277,4.0202,3.721,3.397,2.9821,2.7435,2.5918,2.3654,2.4574,2.6341,2.6341,2.6256,2.6194,2.6295,2.4853,2.3682,2.5739,2.6341,2.6888,2.8873,2.8011,2.6341,2.6341,2.4639,2.3205,2.3117,2.3171,2.3205,2.3117,2.3171,2.3205,2.3117,2.3171,2.3219,2.3219,2.3219,2.3219,2.3219,2.3219,2.3219,2.3219,2.3219,2.3219,2.3219,2.3219,2.3219,2.3219,2.3219,2.3219,2.3219,2.3083,2.2798,2.2337,2.052,1.943,1.902,1.7407,1.6603,1.6603,1.6603,1.7673,7.1887,7.4121,7.5477,7.5929,7.6783,7.5356,6.6837,6.5813,6.3497,5.2579,4.848,4.5779,4.3215,4.4528,4.6511,4.7697,5.274,5.7807,6.1645,6.1909,6.2836,6.596,6.6055,6.6172,6.7031,6.7441,6.789,6.8418,6.8418,6.875,6.9394,6.9609,6.9863,7.0254,6.9785,6.9512,6.9512,6.8927,6.6927,6.3047,5.8792,5.4956,5.1124,4.732,4.5745,4.5745,4.5745,4.5745,4.5732,4.4919,4.2578,3.9749,3.8419,3.4031,2.8346,2.7782,2.5933,2.3219,2.3219,2.3219,2.3219,2.3219,2.3219,2.3219,2.3219,2.3219,2.3219,2.3219,2.3219,2.3219,2.3219,2.3219,2.3219,2.3219,2.3219,2.3219,2.3219,2.3219,2.3219,2.3219,2.3219,2.3219,2.3219,2.3219,2.3219,2.3219,2.3219,2.3219,2.3219,2.3219,2.3219,2.3219,2.3219,2.3219,2.3219,2.3219,2.2925,2.2356,2.2356,2.2062,2.1755,2.1641,2.1361,2.0947,1.7474,1.5864,1.5277,1.2324,1.0717,1.0717,1.0717,1.2324,7.3745,7.5,7.5929,7.603,7.6205,7.4318,6.6263,6.3455,5.9567,4.8461,4.4692,4.2294,3.9324,4.134,4.4903,4.9088,5.3861,5.8594,6.3547,6.4876,6.5902,6.7148,6.7207,6.75,6.8418,6.8535,6.8926,6.9687,6.9746,6.9687,6.9453,7.0449,7.1074,7.1133,7.039,6.998,6.998,6.6602,6.2958,5.9111,5.489,5.1051,4.7319,4.6167,4.5745,4.5745,4.5745,4.5745,4.5471,4.2291,4.0597,3.9465,3.2992,2.992,2.8538,2.5153,2.3758,2.3219,2.3219,2.3219,2.3219,2.3219,2.3219,2.3219,2.3219,2.3219,2.3219,2.3219,2.3219,2.3219,2.3219,2.3219,2.3219,2.3219,2.3219,2.3219,2.3219,2.3219,2.3219,2.3219,2.3219,2.3219,2.3219,2.3219,2.3219,2.3219,2.3219,2.3219,2.3219,2.3219,2.3219,2.3219,2.3219,2.3219,2.3219,2.3219,2.1762,1.8565,1.8272,1.682,1.3634,1.3562,1.3387,1.3119,1.2202,1.176,1.1519,1.0988,1.0717,1.0717,1.0717,1.0988,7.5402,7.608,7.6482,7.6482,7.6055,7.3354,6.479,6.0963,5.6337,4.5685,4.2121,4.0291,3.8152,4.0594,4.4094,4.7371,5.216,5.7344,6.1833,6.4062,6.5801,6.7324,6.789,6.8418,6.9101,6.9336,6.9746,7.0371,7.0625,7.0664,7.0449,7.1015,7.125,7.1015,7.0605,7.0312,7.0097,6.6274,6.2146,5.8192,5.432,5.0198,4.64,4.6119,4.5892,4.5745,4.5745,4.5745,4.5431,4.1629,3.8853,3.6726,3.1014,2.767,2.5762,2.3779,2.3219,2.3219,2.3219,2.3219,2.3219,2.3219,2.3219,2.3219,2.3219,2.3219,2.3219,2.3219,2.3219,2.3219,2.3219,2.3219,2.3219,2.3219,2.3219,2.3219,2.3219,2.3219,2.3219,2.3219,2.3219,2.3219,2.3219,2.3219,2.3219,2.3219,2.3219,2.3219,2.3219,2.3219,2.3219,2.3219,2.3219,2.235,2.0305,2.0311,1.8565,1.4501,1.451,1.3634,1.1609,1.1538,1.1415,1.1225,0.9174,0.7958,0.7819,0.5919,0.5102,0.5102,0.5102,0.6172,7.6155,7.6607,7.6707,7.6707,7.5778,7.2415,6.3314,5.9122,5.4259,4.4157,4.0912,3.9291,3.804,3.9903,4.2597,4.5005,4.94,5.4263,5.9203,6.2024,6.445,6.7363,6.8418,6.916,6.9668,7.0097,7.0566,7.1113,7.1465,7.1601,7.1484,7.1484,7.1367,7.1015,7.084,7.0547,7.0215,6.5616,6.1795,5.8473,5.368,4.9552,4.6627,4.6253,4.5972,4.5745,4.5745,4.5745,4.5431,4.0442,3.6843,3.3914,2.9251,2.5641,2.3219,2.3219,2.3219,2.3219,2.3219,2.3219,2.3219,2.3219,2.3219,2.3219,2.3219,2.3219,2.3219,2.3219,2.3219,2.3219,2.3219,2.3219,2.3219,2.3219,2.3219,2.3219,2.3219,2.3219,2.3219,2.3219,2.3219,2.3219,2.3219,2.3219,2.3219,2.3219,2.3219,2.3219,2.3219,2.2356,2.2056,2.2056,2.2056,2.0599,1.7695,1.6541,1.451,1.0741,1.0466,0.9883,0.9292,0.8975,0.8894,0.8764,0.5873,0.4417,0.4354,0.1354,0.0,0.0,0.0,0.1615,7.441,7.5753,7.613,7.613,7.4925,7.1476,6.3152,5.8876,5.3899,4.394,4.0912,3.9291,3.804,3.7983,3.9714,4.4042,4.5584,4.9354,5.8331,6.0381,6.2646,6.7478,6.8887,6.9746,7.0547,7.1015,7.1601,7.2461,7.2578,7.2402,7.1953,7.1933,7.1933,7.1875,7.1133,7.0722,7.0664,6.2986,5.878,5.8457,5.0749,4.6906,4.6587,4.6039,4.5785,4.5745,4.5745,4.5745,4.517,3.7832,3.4736,3.3642,2.6588,2.3499,2.3219,2.3219,2.3219,2.3219,2.3219,2.3219,2.3219,2.3219,2.3219,2.3219,2.3219,2.3219,2.3219,2.3219,2.3219,2.3219,2.3219,2.3219,2.3219,2.3219,2.3219,2.3219,2.3219,2.3219,2.3219,2.3219,2.3219,2.3219,2.3219,2.3219,2.3219,2.3219,2.3219,2.3219,2.3219,2.0023,1.7989,1.7989,1.7989,1.77,1.7407,1.4217,1.0451,0.6685,0.6432,0.4683,0.1167,0.1172,0.1165,0.1143,0.0568,0.056,0.0549,0.0273,0.0,0.0,0.0,0.0269,7.4934,7.6381,7.6632,7.6959,7.35,6.8322,6.1495,5.6046,5.0195,4.2296,4.0186,3.9291,3.804,3.7845,3.8606,4.0885,4.2737,4.5719,5.0879,5.4929,5.8872,6.3482,6.6582,6.8926,7.0547,7.1347,7.1894,7.2226,7.2285,7.207,7.166,7.1875,7.1875,7.164,7.1308,6.9728,6.7007,6.1713,5.7603,5.5202,4.9541,4.6801,4.6627,4.6186,4.5932,4.5745,4.5745,4.432,4.1788,3.6726,3.3089,3.0539,2.5212,2.3219,2.3219,2.3219,2.3219,2.3219,2.3219,2.3219,2.3219,2.3219,2.3219,2.3219,2.3219,2.3219,2.3219,2.3219,2.3219,2.3219,2.3219,2.3219,2.3219,2.3219,2.3219,2.3219,2.3219,2.3219,2.3219,2.3219,2.3219,2.3219,2.3219,2.3219,2.3219,2.3219,2.3219,2.235,2.0023,1.8272,1.6536,1.4217,1.3928,1.306,1.0744,0.9002,0.6398,0.2621,0.2344,0.176,0.0,0.0,0.0,0.0,0.0,0.0,0.0,0.0,0.0,0.0,0.0,0.0,7.3546,7.5932,7.6959,7.736,7.2593,6.6346,6.035,5.4344,4.7957,4.1283,3.9822,3.9291,3.804,3.7877,3.8147,3.8497,4.0284,4.2921,4.5956,5.0331,5.4521,5.8904,6.2438,6.5416,6.8355,7.0825,7.2168,7.1992,7.2109,7.1953,7.1426,7.166,7.1601,7.1191,7.1074,6.9018,6.4573,6.0824,5.6807,5.3008,4.8853,4.6921,4.6627,4.6333,4.6039,4.5745,4.5745,4.3494,3.9836,3.6178,3.2244,2.8588,2.4632,2.3219,2.3219,2.3219,2.3219,2.3219,2.3219,2.3219,2.3219,2.3219,2.3219,2.3219,2.3219,2.3219,2.3219,2.3219,2.3219,2.3219,2.3219,2.3219,2.3219,2.3219,2.3219,2.3219,2.3219,2.3219,2.3219,2.3219,2.3219,2.3219,2.3219,2.3259,2.3293,2.3293,2.3293,2.1825,1.8031,1.6546,1.4217,1.0161,0.8717,0.7558,0.5815,0.4662,0.2922,0.0293,0.0,0.0,0.0,0.0,0.0,0.0,0.0,0.0,0.0,0.0,0.0,0.0,0.0,0.0,6.8647,7.3376,7.6883,7.6883,7.2323,6.6346,6.035,5.4344,4.7957,4.1283,3.9822,3.9291,3.804,3.7671,3.7798,3.8147,3.8783,4.0983,4.5888,4.7511,4.9878,5.4603,5.6257,5.879,6.3374,6.934,7.2519,7.2051,7.2402,7.2285,7.1426,7.1367,7.1191,7.0722,7.0312,6.8464,6.4573,6.0569,5.6583,5.3008,4.8853,4.6921,4.6627,4.6333,4.6039,4.5745,4.5745,4.3494,3.9836,3.6178,3.2244,2.8588,2.4632,2.3219,2.3219,2.3219,2.3219,2.3219,2.3219,2.3219,2.3219,2.3219,2.3219,2.3219,2.3219,2.3219,2.3219,2.3219,2.3219,2.3219,2.3219,2.3219,2.3219,2.3219,2.3219,2.3219,2.3219,2.3219,2.3219,2.3219,2.3219,2.3219,2.3219,2.3347,2.3449,2.3449,2.3449,2.1978,1.8152,1.3981,1.0161,0.6398,0.2332,0.1749,0.5525,0.2344,0.0,0.0,0.0,0.0,0.0,0.0,0.0,0.0,0.0,0.0,0.0,0.0,0.0,0.0,0.0,0.0,6.3577,6.6465,6.807,6.7731,6.3359,5.8433,5.5012,4.9252,4.3613,4.0419,3.9109,3.8208,3.7855,3.8052,3.8481,3.8846,3.9689,4.0793,4.2481,4.7347,5.1765,5.4639,6.1812,6.714,6.9205,7.1117,7.2168,7.1992,7.1875,7.1543,7.0957,7.0371,7.0137,7.0273,7.0156,6.6883,6.0569,5.9103,5.5447,4.9144,4.755,4.6694,4.6613,4.6106,4.5825,4.5745,4.5745,4.2089,3.6157,3.5057,3.0831,2.4926,2.3793,2.3219,2.3219,2.3219,2.3219,2.3219,2.3219,2.3219,2.3219,2.3219,2.3219,2.3219,2.3219,2.3219,2.3219,2.3219,2.3219,2.3219,2.3219,2.3219,2.3219,2.3219,2.3219,2.3219,2.3219,2.3219,2.3219,2.3219,2.3219,2.3219,2.3219,2.3347,2.2572,1.9629,1.9327,1.6983,1.026,0.8456,0.6117,0.2344,0.088,0.0587,0.1759,0.0588,0.0,0.0,0.0,0.0,0.0,0.0,0.0,0.0,0.0,0.0,0.0,0.0,0.0,0.0,0.0,0.0,5.9215,6.2029,6.3777,6.3658,5.9338,5.4754,5.2935,4.7082,4.1634,4.0186,3.8759,3.7671,3.7671,3.802,3.8386,3.8608,3.9403,4.041,4.1879,4.6556,5.1428,5.4836,6.2829,6.849,6.9166,7.0961,7.1992,7.1992,7.1601,7.1191,7.0722,6.9902,6.8947,6.7684,6.7513,6.3815,5.6376,5.636,5.3324,4.7175,4.6921,4.6667,4.644,4.6079,4.5852,4.5745,4.5745,4.1499,0.0,3.4486,2.999,2.3219,2.3219,2.3219,2.3219,2.3219,2.3219,2.3219,2.3219,2.3219,2.3219,2.3219,2.3219,2.3219,2.3219,2.3219,2.3219,2.3219,2.3219,2.3219,2.3219,2.3219,2.3219,2.3219,2.3219,2.3219,2.3219,2.3219,2.3219,2.3219,2.3219,2.2631,2.1186,2.1051,1.9995,1.5872,1.5327,1.2992,0.6799,0.5882,0.4403,0.0295,0.0,0.0,0.0,0.0,0.0,0.0,0.0,0.0,0.0,0.0,0.0,0.0,0.0,0.0,0.0,0.0,0.0,0.0,0.0,0.0,0.0,5.9389,6.2421,6.2666,5.866,5.4315,5.284,4.714,0.0,4.0186,3.8775,3.7718,3.7718,3.7734,3.775,3.7782,3.8354,3.9981,4.3704,4.644,5.004,5.5393,6.0927,6.4267,6.4332,6.8881,7.1933,7.1933,7.1543,7.1074,7.0722,6.956,6.7266,6.3098,6.2385,5.9108,5.2499,5.2499,5.0442,4.6627,4.6881,4.6707,4.6186,4.6159,4.5999,4.5745,4.5745,4.1499,3.4486,3.4486,2.999,2.3219,2.3219,2.3219,2.3219,2.3219,2.3219,2.3219,2.3219,2.3219,2.3219,2.3219,2.3219,2.3219,2.3219,2.3219,2.3219,2.3219,2.3219,2.3219,2.3219,2.3219,2.3219,2.3219,2.3219,2.3219,2.3219,2.3219,2.3219,2.2925,2.2925,2.1468,1.7695,1.7012,1.5964,1.1837,1.1308,0.9865,0.5986,0.536,0.3858,0.0298,0.0,0.0,0.0,0.0,0.0,0.0,0.0,0.0,0.0,0.0,0.0,0.0,0.0,0.0,0.0,0.0,0.0,0.0,0.0,0.0,5.0285,0.0,5.2546,5.1598,5.031,4.9172,0.0,4.5097,4.1994,4.1616,3.9691,3.8084,3.8084,3.8274,3.8545,3.8815,3.945,4.1013,4.4329,5.194,5.8074,6.0834,6.5677,6.7766,6.555,6.8689,7.1172,7.1484,7.084,7.0332,7.0254,6.6644,6.2865,5.9263,5.5683,5.3406,5.2126,5.2126,5.0212,4.6627,4.648,4.6333,4.6186,4.5959,4.5812,4.5745,4.5745,4.1499,3.4486,3.4486,2.999,2.3219,2.3219,2.3219,2.3219,2.3219,2.3219,2.3219,2.3219,2.3219,2.3219,2.3219,2.3219,2.3219,2.3219,2.3219,2.3219,2.3219,2.3219,2.3219,2.3219,2.3219,2.3219,2.3219,2.3219,2.3219,2.3219,2.3219,2.235,1.943,1.8859,1.7407,1.3634,1.3198,1.1837,0.77,0.7149,0.5986,0.1799,0.1491,0.0893,0.0,0.0,0.0,0.0,0.0,0.0,0.0,0.0,0.0,0.0,0.0,0.0,0.0,0.0,0.0,0.0,0.0,0.0,0.0,0.0,0.0,4.8427,4.9082,4.9285,4.8435,4.7979,4.7503,4.7349,4.4873,4.2495,4.2138,4.0356,3.8683,3.8143,3.8917,3.9633,3.8941,4.1357,4.4581,4.7982,5.3804,5.8832,6.2205,6.5421,6.7389,6.7696,6.949,7.084,7.1074,7.0449,6.9186,6.7589,6.4424,6.0372,5.5291,5.2459,5.0462,4.936,4.936,4.8216,4.6226,4.6186,4.6119,4.5972,4.5825,4.5745,4.5732,4.3769,3.9836,3.4475,3.2516,2.858,2.3219,2.3219,2.3219,2.3219,2.3219,2.3219,2.3219,2.3219,2.3219,2.3219,2.3219,2.3219,2.3219,2.3219,2.3219,2.3219,2.3219,2.3219,2.3219,2.3219,2.3219,2.3219,2.3219,2.1762,2.0593,2.0593,1.9153,1.7402,1.5088,1.479,1.3634,0.9584,0.9102,0.77,0.3858,0.3291,0.2409,0.0302,0.0,0.0,0.0,0.0,0.0,0.0,0.0,0.0,0.0,0.0,0.0,0.0,0.0,0.0,0.0,0.0,0.0,0.0,0.0,0.0,0.0,0.0,0.0,4.8361,4.9307,4.9978,4.9196,4.8357,4.7835,4.7652,4.5629,4.3375,4.2282,4.0946,3.9607,3.8498,3.9714,4.0419,3.9239,4.394,4.8971,5.2848,5.5153,5.7987,6.1849,6.4003,6.6049,6.8927,6.9891,7.0261,6.9688,6.9321,6.7475,6.3279,6.1998,5.8237,5.1784,5.0659,4.8776,4.6119,4.6119,4.5999,4.5745,4.5999,4.5999,4.5745,4.5745,4.5745,4.5444,4.2328,3.8355,3.4165,3.1059,2.7142,2.3185,2.3219,2.3219,2.3219,2.3219,2.3219,2.3219,2.3219,2.3219,2.3219,2.3219,2.3219,2.3219,2.3219,2.3219,2.3219,2.2356,2.2631,2.2931,2.2356,2.235,2.2056,2.1468,1.8859,1.6536,1.6536,1.3928,1.132,1.0744,1.0744,0.9584,0.5533,0.5001,0.3858,0.0595,0.0,0.0,0.0,0.0,0.0,0.0,0.0,0.0,0.0,0.0,0.0,0.0,0.0,0.0,0.0,0.0,0.0,0.0,0.0,0.0,0.0,0.0,0.0,0.0,0.0,0.0,4.917,5.1344,5.2406,4.9167,4.8336,4.8037,4.7713,4.5842,4.3708,4.2335,4.0989,4.0579,4.1331,4.0394,4.0271,4.259,4.7548,5.2708,5.7259,6.1746,6.3883,6.2434,6.6067,6.7795,6.5392,6.793,6.8252,6.5498,6.4846,6.2832,5.8925,5.5274,5.2912,5.1799,4.8302,4.6293,4.5825,4.5825,4.5785,4.5745,4.5785,4.5785,4.5745,4.5745,4.5745,4.5745,4.4906,4.061,3.4192,3.3635,2.9191,2.3063,2.3171,2.3219,2.3219,2.3219,2.3219,2.3219,2.3219,2.3219,2.3219,2.3219,2.3219,2.3219,2.3219,2.3219,2.2644,1.9142,2.0599,2.2356,1.9142,1.8272,1.7407,1.4217,1.306,1.2478,1.2478,1.1902,1.0744,0.7268,0.6685,0.5536,0.1467,0.0887,0.0596,0.0,0.0,0.0,0.0,0.0,0.0,0.0,0.0,0.0,0.0,0.0,0.0,0.0,0.0,0.0,0.0,0.0,0.0,0.0,0.0,0.0,0.0,0.0,0.0,0.0,0.0,0.0,4.9038,5.0373,5.1567,5.1353,5.2094,5.2616,5.1722,4.9659,4.7326,4.4736,4.2729,4.1694,4.2477,4.3241,4.5743,5.1722,5.3109,5.4691,5.8499,6.0109,6.1344,6.2341,6.4604,6.6278,6.6891,6.8249,6.7734,6.4167,6.372,6.0916,5.4719,5.2672,5.0624,4.8603,4.6621,4.5678,4.5531,4.5678,4.5745,4.5745,4.5745,4.5745,4.5745,4.5745,4.5665,4.5232,4.1171,3.741,3.3683,2.9551,2.5994,2.3008,2.3083,2.3151,2.3219,2.3219,2.3219,2.3219,2.3219,2.3219,2.3219,2.3219,2.3219,2.3219,2.3219,2.3219,2.235,1.8565,1.8565,1.9142,1.5377,1.4221,1.3923,1.1902,0.9869,0.8427,0.8427,0.6685,0.4946,0.2913,0.2621,0.2042,0.0293,0.0,0.0,0.0,0.0,0.0,0.0,0.0,0.0,0.0,0.0,0.0,0.0,0.0,0.0,0.0,0.0,0.0,0.0,0.0,0.0,0.0,0.0,0.0,0.0,0.0,0.0,0.0,0.0,0.0,4.8951,4.9657,5.1027,5.3375,5.4418,5.5111,5.5824,5.3887,5.1152,4.8712,4.653,4.507,4.4129,4.6346,5.0754,5.7546,5.7259,5.7125,6.0344,5.9869,6.0404,6.3499,6.4048,6.5544,6.8684,6.8143,6.6004,6.2281,6.1165,5.7652,5.0624,5.0338,4.8876,4.5652,4.5638,4.5491,4.5211,4.5424,4.5571,4.5638,4.5705,4.5705,4.5638,4.5638,4.4919,4.3529,3.7893,3.4175,3.2096,2.6353,2.3686,2.2961,2.3029,2.313,2.3219,2.3219,2.3205,2.3171,2.3205,2.3205,2.3185,2.3205,2.3219,2.3219,2.3219,2.2644,2.0893,1.7113,1.5377,1.3928,1.1034,1.0161,0.9869,0.9002,0.6689,0.4363,0.4363,0.2041,0.0,0.0,0.0,0.0,0.0,0.0,0.0,0.0,0.0,0.0,0.0,0.0,0.0,0.0,0.0,0.0,0.0,0.0,0.0,0.0,0.0,0.0,0.0,0.0,0.0,0.0,0.0,0.0,0.0,0.0,0.0,0.0,0.0,0.0,4.9454,5.1188,5.3012,5.372,5.1275,5.0741,5.8082,5.6576,5.364,5.4177,5.3681,5.1988,4.7527,4.881,5.1064,5.2758,5.7797,6.2381,6.5186,6.668,6.7536,6.7692,6.8042,6.8496,6.8301,6.5611,6.198,5.7819,5.4276,5.0624,4.6307,4.6033,4.5912,4.5344,4.5344,4.5211,4.4917,4.4917,4.5064,4.5344,4.5598,4.5598,4.5344,4.5344,4.3219,3.9918,3.9092,3.4898,2.8622,2.7952,2.5832,2.2818,2.3097,2.3205,2.3219,2.3219,2.313,2.3042,2.3171,2.313,2.3042,2.3185,2.3219,2.3219,2.3219,2.0599,1.7108,1.306,0.9294,0.6685,0.6398,0.6108,0.5237,0.1749,0.0583,0.0292,0.0292,0.0292,0.0,0.0,0.0,0.0,0.0,0.0,0.0,0.0,0.0,0.0,0.0,0.0,0.0,0.0,0.0,0.0,0.0,0.0,0.0,0.0,0.0,0.0,0.0,0.0,0.0,0.0,0.0,0.0,0.0,0.0,0.0,0.0,0.0,0.0,4.9126,5.1193,5.3174,5.3356,5.2403,5.3388,6.0577,6.028,5.8019,5.6478,5.6113,5.4404,4.9896,5.378,5.7288,5.6565,6.0772,6.4725,6.6484,6.7265,6.7773,6.7773,6.789,6.7216,6.5199,6.3484,6.0077,5.4198,5.2341,4.9964,4.5764,4.5491,4.5344,4.5064,4.5064,4.4917,4.4623,4.481,4.4837,4.477,4.5064,4.5237,4.5318,4.5131,4.2925,3.9092,3.654,3.2597,2.7584,2.5486,2.3933,2.2676,2.2974,2.3097,2.3097,2.3097,2.3063,2.3008,2.3063,2.3117,2.3151,2.3205,2.1468,1.9723,1.9723,1.682,1.306,0.9002,0.6975,0.5237,0.2913,0.2332,0.1749,0.0292,0.0,0.0,0.0,0.0,0.0,0.0,0.0,0.0,0.0,0.0,0.0,0.0,0.0,0.0,0.0,0.0,0.0,0.0,0.0,0.0,0.0,0.0,0.0,0.0,0.0,0.0,0.0,0.0,0.0,0.0,0.0,0.0,0.0,0.0,0.0,0.0,0.0,0.0,4.9937,5.1378,5.3016,5.428,5.4334,5.596,6.3016,6.3373,6.1878,6.0889,5.8273,5.511,5.2001,5.5967,5.9495,5.8702,6.2649,6.6094,6.6933,6.7324,6.75,6.75,6.6439,6.4877,6.2651,6.0377,5.6806,5.1904,5.0477,4.8377,4.5331,4.5237,4.5064,4.473,4.4663,4.4436,4.4142,4.4262,4.4262,4.4142,4.4262,4.4516,4.4917,4.4797,4.2043,3.6791,3.4449,3.0639,2.5944,2.3498,2.25,2.2656,2.2961,2.3029,2.294,2.2995,2.2961,2.2886,2.2974,2.3042,2.2804,2.1743,1.9435,1.7113,1.595,1.2767,0.9292,0.6683,0.4946,0.3496,0.0583,0.0,0.0,0.0,0.0,0.0,0.0,0.0,0.0,0.0,0.0,0.0,0.0,0.0,0.0,0.0,0.0,0.0,0.0,0.0,0.0,0.0,0.0,0.0,0.0,0.0,0.0,0.0,0.0,0.0,0.0,0.0,0.0,0.0,0.0,0.0,0.0,0.0,0.0,0.0,0.0,0.0,5.2241,5.2036,5.2581,5.6374,5.6531,5.7731,6.5766,6.5413,6.4536,6.8212,6.0884,5.3923,5.4337,5.4769,5.5948,5.7794,6.2688,6.6504,6.7383,6.75,6.75,6.75,6.4304,6.2011,6.1632,5.5562,5.1378,5.1064,4.7311,4.5318,4.5318,4.5024,4.473,4.4436,4.4142,4.3861,4.3527,4.3233,4.3233,4.3527,4.3233,4.342,4.4008,4.4289,4.0004,3.2838,3.306,2.9236,2.2554,2.2554,2.2642,2.2818,2.3097,2.3042,2.2798,2.2961,2.2818,2.2588,2.2907,2.2907,2.2247,1.8484,1.7402,1.6536,1.2767,0.8712,0.5815,0.5815,0.2913,0.0,0.0,0.0,0.0,0.0,0.0,0.0,0.0,0.0,0.0,0.0,0.0,0.0,0.0,0.0,0.0,0.0,0.0,0.0,0.0,0.0,0.0,0.0,0.0,0.0,0.0,0.0,0.0,0.0,0.0,0.0,0.0,0.0,0.0,0.0,0.0,0.0,0.0,0.0,0.0,0.0,0.0,0.0,5.0003,5.2514,5.5136,5.5042,5.8301,6.2672,6.664,6.7731,6.8462,6.9595,6.3563,5.7629,5.6043,5.8157,5.9802,5.8382,6.2188,6.5703,6.6875,6.7051,6.7051,6.7051,6.3876,6.0561,5.7824,5.366,4.9635,4.6977,4.5387,4.4623,4.4409,4.4115,4.3781,4.3487,4.342,4.3314,4.3233,4.3127,4.3127,4.3233,4.3127,4.342,4.3995,4.1221,3.7451,3.2781,3.0268,2.659,2.2411,2.2411,2.2554,2.2784,2.2764,2.2764,2.2784,2.271,2.2622,2.2574,2.2656,2.1091,1.8644,1.7566,1.3594,0.9002,0.7844,0.4946,0.1749,0.1749,0.0875,0.0,0.0,0.0,0.0,0.0,0.0,0.0,0.0,0.0,0.0,0.0,0.0,0.0,0.0,0.0,0.0,0.0,0.0,0.0,0.0,0.0,0.0,0.0,0.0,0.0,0.0,0.0,0.0,0.0,0.0,0.0,0.0,0.0,0.0,0.0,0.0,0.0,0.0,0.0,0.0,0.0,0.0,0.0,5.2241,5.4603,5.7101,5.876,6.2027,6.5844,6.982,7.0178,6.9841,7.0407,6.5133,5.9968,5.8709,6.0437,6.1583,6.053,6.2899,6.5058,6.623,6.6348,6.6348,6.6348,6.2131,5.812,5.5861,5.102,4.7247,4.4984,4.4329,4.3995,4.3821,4.3527,4.3273,4.31,4.2993,4.2913,4.2913,4.2806,4.2726,4.2766,4.1417,4.0874,4.1319,3.8965,3.5241,3.0388,2.7011,2.4151,2.2357,2.2466,2.2588,2.2696,2.2656,2.2662,2.2676,2.2588,2.252,2.2194,2.0896,1.9048,1.6613,1.3542,0.9542,0.5509,0.4073,0.1746,0.0,0.0,0.0,0.0,0.0,0.0,0.0,0.0,0.0,0.0,0.0,0.0,0.0,0.0,0.0,0.0,0.0,0.0,0.0,0.0,0.0,0.0,0.0,0.0,0.0,0.0,0.0,0.0,0.0,0.0,0.0,0.0,0.0,0.0,0.0,0.0,0.0,0.0,0.0,0.0,0.0,0.0,0.0,0.0,0.0,0.0,5.6957,5.7515,5.8687,6.5272,6.6834,6.8327,7.4179,7.2511,6.9882,7.042,6.5903,6.1658,6.1836,6.1601,6.1894,6.3515,6.4082,6.4648,6.541,6.5586,6.5586,6.5527,5.9285,5.5155,5.5122,4.864,4.4329,4.4329,4.3781,4.3461,4.3461,4.3167,4.302,4.302,4.2766,4.2619,4.2592,4.2325,4.1952,4.1646,3.8546,3.685,3.6566,3.6819,3.3131,2.6174,2.3472,2.2303,2.2323,2.2622,2.2656,2.2554,2.2696,2.2656,2.2554,2.2248,2.189,2.1256,1.7838,1.6212,1.4836,0.8098,0.5504,0.4623,0.1165,0.0,0.0,0.0,0.0,0.0,0.0,0.0,0.0,0.0,0.0,0.0,0.0,0.0,0.0,0.0,0.0,0.0,0.0,0.0,0.0,0.0,0.0,0.0,0.0,0.0,0.0,0.0,0.0,0.0,0.0,0.0,0.0,0.0,0.0,0.0,0.0,0.0,0.0,0.0,0.0,0.0,0.0,0.0,0.0,0.0,0.0,-0.0288,5.4627,5.7786,6.1619,6.5214,6.9387,7.3335,7.6532,7.4739,7.2076,7.0617,6.8258,6.5843,6.368,6.3457,6.373,6.414,6.4531,6.4883,6.5058,6.5351,6.5469,6.5117,5.9147,5.4676,5.4395,4.7952,4.3634,4.338,4.306,4.2846,4.2846,4.2579,4.2405,4.2405,4.2325,4.2218,4.1964,4.2151,4.0821,3.7758,3.7215,3.3892,2.882,2.9013,2.6818,2.2744,2.229,2.2093,2.2004,2.2303,2.2411,2.2391,2.2425,2.2479,2.2248,1.9042,1.788,1.7315,1.38,1.0492,0.7708,0.6047,0.3767,0.1165,0.0292,0.0,0.0,0.0,0.0,0.0,0.0,0.0,0.0,0.0,0.0,0.0,0.0,0.0,0.0,0.0,0.0,0.0,0.0,0.0,0.0,0.0,0.0,0.0,0.0,0.0,0.0,0.0,0.0,0.0,0.0,0.0,0.0,0.0,0.0,0.0,0.0,0.0,0.0,0.0,0.0,0.0,0.0,0.0,0.0,0.0,0.0,-0.1727,5.5579,5.895,6.2925,6.8228,7.2511,7.5578,7.6984,7.6424,7.4344,7.1009,6.8863,6.671,6.3542,6.3574,6.3965,6.373,6.3906,6.4023,6.4023,6.4238,6.4297,6.4062,5.7955,5.3834,5.3653,4.7309,4.306,4.2913,4.2619,4.2405,4.2258,4.2111,4.1924,4.1817,4.1817,4.0933,3.925,3.9414,3.7601,3.4172,3.2371,2.9039,2.3937,2.3853,2.3281,2.1672,2.1828,2.1937,2.2004,2.2093,2.2201,2.2337,2.2249,2.2323,2.2161,2.0116,1.8175,1.6268,1.243,0.8806,0.5429,0.3467,0.1737,0.0,0.0,0.0,0.0,0.0,0.0,0.0,0.0,0.0,0.0,0.0,0.0,0.0,0.0,0.0,0.0,0.0,0.0,0.0,0.0,0.0,0.0,0.0,0.0,0.0,0.0,0.0,0.0,0.0,0.0,0.0,0.0,0.0,0.0,0.0,0.0,0.0,0.0,0.0,0.0,0.0,0.0,0.0,0.0,-0.1749,-0.2908,-0.2897,-0.4634,-0.6644,5.681,6.0459,6.4284,7.1623,7.4774,7.6205,7.6758,7.7235,7.6133,7.1217,6.8947,6.6889,6.3227,6.3066,6.3457,6.3086,6.3027,6.3027,6.293,6.2988,6.2988,6.293,5.6944,5.2943,5.2893,4.6621,4.2485,4.2445,4.2218,4.1964,4.171,4.171,4.1603,4.1336,4.1336,3.9795,3.6429,3.6464,3.4456,3.0348,2.6817,2.376,2.0967,2.1089,2.1299,2.1597,2.1618,2.1774,2.1991,2.1916,2.2025,2.2249,2.2147,2.1652,2.1218,2.0652,1.7918,1.4356,1.0492,0.7115,0.4,0.087,0.0,0.0,0.0,0.0,0.0,0.0,0.0,0.0,0.0,0.0,0.0,0.0,0.0,0.0,0.0,0.0,0.0,0.0,0.0,0.0,0.0,0.0,0.0,0.0,0.0,0.0,0.0,0.0,0.0,0.0,0.0,0.0,0.0,0.0,-0.0312,-0.0926,-0.0919,-0.1211,-0.208,-0.2066,-0.2053,-0.2041,-0.1459,-0.1459,-0.2041,-0.5237,-0.6685,-0.6975,-1.0158,-1.1902,5.4094,6.056,6.7813,7.1812,7.4473,7.6205,7.6758,7.6933,7.5445,7.0261,6.9958,6.9046,6.3779,6.3047,6.3105,6.3047,6.3027,6.291,6.2519,6.2812,6.2871,6.248,5.6778,5.248,5.2411,4.5977,4.179,4.1523,4.1483,4.1443,4.1416,4.1416,4.1376,4.1336,4.1336,3.9692,3.592,3.6143,3.3087,2.6626,2.3086,2.1318,2.0811,2.0824,2.1001,2.1285,2.1408,2.1496,2.1543,2.1774,2.1903,2.195,2.2072,2.0251,1.7016,1.3953,1.0337,0.6444,0.2826,0.1134,0.0569,0.0288,0.0,0.0,0.0,0.0,0.0,0.0,0.0,0.0,0.0,0.0,0.0,0.0,0.0,0.0,0.0,0.0,0.0,0.0,0.0,0.0,0.0,0.0,0.0,0.0,0.0,0.0,0.0,0.0,0.0,0.0,0.0,0.0,0.0,0.0,-0.1554,-0.4927,-0.5177,-0.6614,-1.0068,-1.0298,-1.023,-1.0167,-0.6685,-0.6685,-1.0158,-1.0451,-1.0744,-1.0744,-1.132,-1.3341,5.5947,6.17,6.7381,7.215,7.4197,7.5452,7.6607,7.6883,7.542,7.042,6.9815,6.8479,6.298,6.2344,6.2578,6.2344,6.2285,6.2129,6.1719,6.1836,6.1153,5.924,5.4642,5.0896,4.9242,4.461,4.1483,4.1336,4.1336,4.1269,4.1122,4.1096,4.1016,4.0869,4.0869,3.8284,3.2905,3.3013,2.9762,2.2905,2.14,2.0648,2.0648,2.0648,2.0804,2.1109,2.1245,2.1353,2.1455,2.1584,2.1686,2.1774,2.1916,1.9768,1.6206,1.4719,1.061,0.5318,0.3668,0.1703,0.0,0.0,0.0,0.0,0.0,0.0,0.0,0.0,0.0,0.0,0.0,0.0,0.0,0.0,0.0,0.0,0.0,0.0,0.0,0.0,0.0,0.0,0.0,0.0,0.0,0.0,0.0,0.0,0.0,0.0,0.0,0.0,-0.2204,-0.3463,-0.3451,-0.561,-0.7736,-0.953,-0.9448,-1.0254,-1.1906,-1.1827,-1.292,-1.4881,-1.1053,-0.9869,-1.1609,-1.3923,-1.4795,-1.4795,-1.7058,-1.876,5.6183,6.0448,6.4336,7.0093,7.2461,7.381,7.5879,7.6456,7.5199,7.0193,6.9075,6.73,6.1787,6.1445,6.1953,6.1601,6.1543,6.1426,6.0976,6.0918,5.9725,5.6583,5.2981,4.9783,4.6828,4.3256,4.1203,4.1122,4.1122,4.1016,4.0802,4.0802,4.0695,4.0481,3.9713,3.6478,3.0522,2.8713,2.5465,2.0485,2.0451,2.0451,2.0485,2.0485,2.0627,2.0892,2.1068,2.1245,2.1387,2.1421,2.153,2.1686,2.0689,1.8223,1.4949,1.4079,0.9732,0.4191,0.421,0.2262,0.0,0.0,0.0,0.0,0.0,0.0,0.0,0.0,0.0,0.0,0.0,0.0,0.0,0.0,0.0,0.0,0.0,0.0,0.0,0.0,0.0,0.0,0.0,0.0,0.0,0.0,-0.0912,-0.1537,-0.1542,-0.156,-0.1886,-0.3138,-0.5036,-0.6612,-0.7828,-1.0575,-1.2674,-1.3818,-1.3738,-1.4218,-1.4939,-1.4842,-1.6216,-1.9047,-1.6015,-1.4501,-1.4501,-1.7407,-1.8859,-1.8848,-2.1628,-2.3008,5.19,5.4779,5.8274,6.4117,6.7825,7.0921,7.3953,7.5352,7.4637,6.8782,6.809,6.671,6.0951,6.0566,6.1152,6.1133,6.1133,6.0976,6.0547,6.0488,5.9284,5.6183,5.2844,4.9605,4.6209,4.2836,4.0802,4.0548,4.0508,4.0508,4.0508,4.0508,4.0481,4.0481,3.7469,3.3987,3.0522,2.4139,2.0594,2.0349,2.0187,2.0207,2.0349,2.0349,2.0417,2.0573,2.0878,2.1089,2.1231,2.1387,2.153,2.139,1.7864,1.4403,1.0669,0.74,0.3586,0.0278,0.0278,0.0279,0.0,0.0,0.0,0.0,0.0,0.0,0.0,0.0,0.0,0.0,0.0,0.0,0.0,0.0,0.0,0.0,0.0,0.0,0.0,0.0,0.0,0.0,0.0,0.0,0.0,0.0,-0.3314,-0.5769,-0.5836,-0.5848,-0.7421,-1.156,-0.8458,-0.783,-1.1891,-1.244,-1.391,-1.7811,-1.8006,-1.966,-2.3003,-2.316,-2.3008,-2.3152,-2.2717,-2.2644,-2.2644,-2.2925,-2.2925,-2.2925,-2.3076,-2.3008,5.1197,5.2948,5.5155,5.9884,6.4053,6.7384,6.9292,7.241,7.3527,6.8532,6.7754,6.6382,6.119,6.0449,6.0664,6.0664,6.0664,6.0508,6.0098,6.0039,5.8863,5.5551,5.2245,4.9057,4.5863,4.264,4.0588,4.0481,4.0481,4.0481,4.0481,4.0481,4.0401,4.0187,3.6978,3.2705,2.7147,2.2325,2.0085,2.0187,2.0031,2.0085,2.0329,2.0329,2.0397,2.056,2.0858,2.1034,2.1089,2.1231,2.0044,1.8019,1.6751,1.2707,0.7306,0.6008,0.33,0.0,0.0,0.0,0.0,0.0,0.0,0.0,0.0,0.0,0.0,0.0,0.0,0.0,0.0,0.0,0.0,0.0,0.0,0.0,0.0,0.0,0.0,0.0,0.0,0.0,0.0,0.0,0.0,0.0,-0.3325,-0.6091,-0.6117,-0.8309,-1.0523,-1.212,-1.3407,-1.4997,-1.6562,-1.8955,-2.1011,-2.2115,-2.2277,-2.2735,-2.4046,-2.3802,-2.3666,-2.3592,-2.3347,-2.3219,-2.3219,-2.3219,-2.3219,-2.3219,-2.2974,-2.2873,4.9448,5.0635,5.2058,5.5832,5.8968,6.2146,6.5471,6.9145,7.0762,6.7393,6.6939,6.5732,6.0951,6.0039,6.0039,6.0215,6.0215,6.0098,5.9648,5.959,5.795,5.3716,5.1137,4.8265,4.4288,4.1747,4.0481,4.0481,4.0481,4.0481,4.0481,4.0361,3.9196,3.6695,3.3413,2.9165,2.3443,2.0988,1.9732,1.9875,1.9712,1.98,2.0098,2.0207,2.0329,2.0485,2.0736,2.0912,2.1021,2.1211,1.9212,1.6086,1.4809,1.0762,0.5379,0.4072,0.2186,0.0,0.0,0.0,0.0,0.0,0.0,0.0,0.0,0.0,0.0,0.0,0.0,0.0,0.0,0.0,0.0,0.0,0.0,0.0,0.0,0.0,0.0,0.0,0.0,0.0,0.0,-0.1183,-0.2082,-0.2091,-0.6633,-1.0026,-1.0045,-1.2565,-1.4797,-1.6409,-1.7714,-1.9327,-2.0621,-2.3314,-2.4724,-2.4582,-2.4419,-2.4277,-2.4121,-2.3843,-2.368,-2.368,-2.3381,-2.3219,-2.3219,-2.3219,-2.3219,-2.3219,-2.292,-2.273,0.0,0.0,0.0,5.1782,5.3114,5.5484,6.2576,6.5231,6.6014,6.5199,6.5912,6.51,6.0135,5.918,5.9297,5.9746,5.9805,5.9648,5.9238,5.918,5.6854,5.0736,4.9806,4.7464,4.1195,4.0481,4.0481,4.0481,4.0481,4.0481,4.0481,4.0187,3.6936,3.0078,2.6718,2.3236,1.9841,1.94,1.9257,1.9413,1.9257,1.9359,1.9678,1.9963,2.0187,2.0349,2.0485,2.0716,2.0754,2.1029,1.9273,1.5533,1.2053,0.831,0.4837,0.1346,0.0,0.0,0.0,0.0,0.0,0.0,0.0,0.0,0.0,0.0,0.0,0.0,0.0,0.0,0.0,0.0,0.0,0.0,0.0,0.0,-0.0292,-0.0292,-0.0292,-0.0292,-0.0292,-0.0292,-0.0292,-0.3533,-0.6226,-0.6226,-1.2855,-1.8116,-1.8223,-1.8248,-1.9858,-2.4439,-2.1045,-2.0487,-2.468,-2.486,-2.4724,-2.4562,-2.4419,-2.4277,-2.4121,-2.3836,-2.368,-2.368,-2.3381,-2.3219,-2.3219,-2.3219,-2.3219,-2.3205,-2.2907,-2.2622,4.6068,0.0,0.0,0.0,0.0,0.0,5.366,5.933,6.3308,6.0985,6.2937,6.3717,5.9996,5.918,5.9238,5.9355,5.9355,5.9297,5.918,5.918,5.7776,5.3768,5.1217,4.8153,4.4206,4.1892,4.0481,4.0481,4.0481,4.0481,4.0481,4.0,3.6639,3.0094,2.8366,2.4982,1.9237,1.8884,1.8796,1.8938,1.8905,1.9149,1.9664,1.9854,2.0139,2.0485,2.0648,1.9446,1.718,1.7236,1.5277,1.17,0.8249,0.4545,0.1346,0.0269,0.0,0.0,0.0,0.0,0.0,0.0,0.0,0.0,0.0,0.0,0.0,0.0,0.0,0.0,0.0,0.0,0.0,0.0,0.0,-0.0875,-0.3493,-0.4076,-0.4076,-0.4076,-0.4076,-0.4954,-0.7897,-0.939,-1.001,-1.0054,-1.4592,-1.7973,-1.8008,-2.0566,-2.3158,-2.4164,-2.3636,-2.341,-2.4684,-2.465,-2.4562,-2.4419,-2.4263,-2.4121,-2.3965,-2.368,-2.3524,-2.3524,-2.3327,-2.3219,-2.3219,-2.3117,-2.3063,-2.3063,-2.2764,-2.252,0.0,0.0,4.4736,4.4576,0.0,0.0,5.1188,5.5836,5.9362,5.9156,6.1381,6.1916,5.8344,5.7851,5.8144,5.832,5.8652,5.8965,5.918,5.9004,5.7751,5.4691,5.1269,4.8283,4.5172,4.2178,4.0334,4.0481,4.0361,4.0187,3.9933,3.8255,3.4738,2.9714,2.7426,2.4009,1.8796,1.8443,1.8335,1.8477,1.8552,1.8884,1.9488,1.9752,2.0085,2.0451,2.0614,1.8595,1.5495,1.3944,1.1486,0.8228,0.6107,0.3206,0.0,0.0,0.0,0.0,0.0,0.0,0.0,0.0,0.0,0.0,0.0,0.0,0.0,0.0,0.0,0.0,0.0,-0.1145,-0.2304,-0.2318,-0.3778,-0.5528,-0.7844,-0.8134,-0.8134,-0.8134,-0.8134,-0.9015,-1.1085,-1.2864,-1.4083,-1.4136,-1.7769,-2.0226,-2.0226,-2.2506,-2.4189,-2.4243,-2.4385,-2.4494,-2.4562,-2.446,-2.4372,-2.4351,-2.4087,-2.3924,-2.389,-2.3612,-2.3449,-2.3449,-2.3293,-2.3185,-2.313,-2.3117,-2.3029,-2.2907,-2.2662,-2.2445,0.0,0.0,0.0,0.0,4.3074,0.0,5.1158,5.3356,5.4727,5.7762,5.935,5.9031,5.5247,5.5068,5.5708,5.5901,5.6968,5.808,5.9004,5.8769,5.7349,5.403,5.0721,4.7489,4.4826,4.1828,4.0107,4.0361,4.0147,3.9746,3.9225,3.5747,3.2388,2.9058,2.5396,2.1796,1.8464,1.8023,1.7901,1.8036,1.8213,1.8599,1.9203,1.9644,2.0031,2.0329,2.0485,1.8224,1.4637,1.1551,0.8322,0.5301,0.5039,0.2933,0.0,0.0,0.0,0.0,0.0,0.0,0.0,0.0,0.0,0.0,0.0,0.0,0.0,0.0,0.0,0.0,-0.0565,-0.3125,-0.6,-0.6325,-0.8962,-1.1603,-1.2185,-1.2185,-1.2474,-1.2767,-1.2478,-1.2474,-1.2767,-1.5744,-1.8142,-1.8142,-2.1198,-2.3666,-2.3666,-2.3788,-2.3944,-2.4087,-2.4229,-2.4365,-2.4473,-2.4243,-2.4141,-2.4263,-2.389,-2.3714,-2.3843,-2.3571,-2.3429,-2.3429,-2.3293,-2.3151,-2.3008,-2.3117,-2.3029,-2.273,-2.2574,-2.2357,0.0,0.0,0.0,0.0,0.0,0.0,4.402,4.6983,4.9658,4.9385,5.078,5.1779,5.0777,4.9897,4.911,4.8657,5.1159,5.4493,5.808,5.8594,5.7234,5.3668,5.0584,4.7606,4.4511,4.152,3.9706,3.9786,3.9706,3.964,3.9519,3.6131,3.2555,2.9067,2.5277,2.139,1.7989,1.767,1.7582,1.7738,1.8002,1.8443,1.904,1.9501,1.9922,2.0329,2.0485,1.6939,1.1296,1.0531,0.8273,0.4965,0.2093,0.0528,0.0,0.0,0.0,0.0,0.0,0.0,0.0,0.0,0.0,0.0,0.0,0.0,0.0,0.0,0.0,-0.0561,-0.3646,-0.5091,-0.6288,-0.9483,-1.0943,-1.2401,-1.5647,-1.6243,-1.7113,-2.0305,-1.8272,-1.7402,-2.0305,-2.1499,-2.2107,-2.2107,-2.2803,-2.3503,-2.3503,-2.3734,-2.391,-2.3931,-2.4066,-2.4121,-2.4033,-2.3965,-2.389,-2.3822,-2.3612,-2.3503,-2.3537,-2.3361,-2.3273,-2.3273,-2.3239,-2.3151,-2.3008,-2.292,-2.271,-2.2425,-2.2269,-2.2093,0.0,0.0,0.0,4.2504,0.0,0.0,0.0,4.6073,4.7664,4.7943,4.822,4.7954,4.7042,4.6012,4.5251,4.5007,4.8107,5.0476,5.0125,5.3779,5.6017,5.4637,5.0249,4.6795,4.5403,4.1458,3.9159,3.9159,3.9159,3.8985,3.8504,3.6665,3.338,2.8327,2.6087,2.2514,1.765,1.7494,1.746,1.7541,1.7982,1.8477,1.9006,1.9535,1.9976,2.0091,1.8678,1.5143,1.0271,0.848,0.5673,0.2333,0.0782,0.0,0.0,0.0,0.0,0.0,0.0,0.0,0.0,0.0,0.0,0.0,0.0,0.0,0.0,0.0,0.0,-0.0837,-0.4731,-0.7021,-0.9362,-1.3367,-1.5734,-1.7841,-1.9625,-2.0269,-2.0893,-2.2925,-2.1755,-2.0893,-2.2925,-2.3219,-2.3219,-2.3219,-2.3293,-2.3347,-2.3347,-2.3537,-2.368,-2.368,-2.3802,-2.3877,-2.3788,-2.3714,-2.368,-2.368,-2.347,-2.3361,-2.3449,-2.3307,-2.3219,-2.3219,-2.3219,-2.3151,-2.3008,-2.2852,-2.2622,-2.2337,-2.2181,-2.1991,0.0,0.0,0.0,0.0,0.0,4.2289,0.0,0.0,0.0,4.7051,4.598,4.4464,4.2883,4.1868,4.1331,4.1388,4.4282,4.5168,4.1064,4.6423,5.144,5.2439,4.8384,4.5284,4.4714,3.9981,3.7456,3.8357,3.7509,3.7181,3.7342,3.5806,3.2696,2.7587,2.5781,2.257,1.7378,1.7378,1.7405,1.7473,1.8023,1.8531,1.9006,1.9576,1.9997,2.0037,1.7396,1.4117,1.0012,0.7199,0.3605,0.0,0.0,0.0,0.0,0.0,0.0,0.0,0.0,0.0,0.0,0.0,0.0,0.0,0.0,0.0,0.0,0.0,-0.055,-0.1935,-0.58,-0.946,-1.3183,-1.7177,-2.0446,-2.2907,-2.2961,-2.3083,-2.3185,-2.3185,-2.3205,-2.3219,-2.3219,-2.3219,-2.3219,-2.3219,-2.3219,-2.3219,-2.3219,-2.3361,-2.3449,-2.3449,-2.3592,-2.3666,-2.3646,-2.3524,-2.3483,-2.3592,-2.3361,-2.3273,-2.3395,-2.3293,-2.3219,-2.3219,-2.3219,-2.313,-2.2961,-2.2818,-2.2588,-2.2289,-2.2147,-2.1916,0.0,0.0,0.0,0.0,4.2363,0.0,0.0,0.0,4.2484,4.0788,0.0,3.8043,3.6706,0.0,0.0,3.3878,3.5288,3.6237,3.5807,3.6791,3.8449,4.049,4.2856,4.2853,3.9311,3.4007,3.2445,3.6865,3.3225,3.264,3.6733,3.1519,2.8039,2.7142,2.1566,1.8023,1.7222,1.7216,1.7351,1.7629,1.7968,1.8423,1.9006,1.9468,1.9854,2.0139,1.9918,1.6168,1.0271,0.9756,0.5915,0.0,0.0,0.0,0.0,0.0,0.0,0.0,0.0,0.0,0.0,0.0,0.0,0.0,0.0,0.0,0.0,0.0,-0.2439,-0.5718,-0.9577,-1.316,-1.6814,-2.1049,-2.2194,-2.2479,-2.2744,-2.292,-2.3029,-2.3029,-2.313,-2.3219,-2.3219,-2.3219,-2.3219,-2.3219,-2.3219,-2.3219,-2.3219,-2.3361,-2.3449,-2.3449,-2.3592,-2.3626,-2.3483,-2.347,-2.3395,-2.3273,-2.3239,-2.3219,-2.3239,-2.3239,-2.3219,-2.3219,-2.3219,-2.3083,-2.2798,-2.2656,-2.2432,-2.2127,-2.1991,-2.174,0.0,0.0,0.0,0.0,0.0,0.0,0.0,0.0,4.0224,0.0,0.0,0.0,0.0,0.0,0.0,0.0,3.3535,3.3628,2.9123,3.2807,3.6323,3.7715,3.7022,3.5773,3.4059,3.3399,3.3981,3.5922,3.426,3.3854,3.5672,3.1511,2.8392,2.6317,2.2035,1.8939,1.7195,1.7283,1.7473,1.7772,1.8253,1.8654,1.9006,1.9535,1.9854,1.9722,1.6146,1.2707,0.9698,0.5876,0.2566,0.0,0.0,0.0,0.0,0.0,0.0,0.0,0.0,0.0,0.0,0.0,0.0,0.0,0.0,0.0,-0.0536,-0.2417,-0.432,-0.6787,-1.2496,-1.5262,-1.7276,-2.1403,-2.2323,-2.2425,-2.271,-2.2832,-2.292,-2.3097,-2.3117,-2.313,-2.3205,-2.3219,-2.3219,-2.3219,-2.3219,-2.3219,-2.3219,-2.3273,-2.3307,-2.3307,-2.3381,-2.3381,-2.3327,-2.3307,-2.3293,-2.3219,-2.3219,-2.3219,-2.3219,-2.3219,-2.3219,-2.3219,-2.313,-2.2995,-2.2784,-2.2554,-2.2323,-2.2113,-2.1862,-2.1652,4.7182,0.0,0.0,0.0,0.0,0.0,0.0,0.0,0.0,0.0,0.0,0.0,0.0,0.0,3.0996,3.0215,0.0,3.0759,2.4915,2.8537,3.2045,3.2225,2.9962,2.8611,2.911,3.0853,3.2483,3.381,3.3313,3.3615,3.4536,3.2028,2.8887,2.5756,2.2888,2.0173,1.7188,1.7426,1.767,1.7935,1.8498,1.8871,1.9061,1.9576,1.9841,1.9635,1.402,1.0838,0.963,0.3818,0.0768,0.0,0.0,0.0,0.0,0.0,0.0,0.0,0.0,0.0,0.0,0.0,0.0,0.0,0.0,-0.0799,-0.2133,-0.4557,-0.6731,-0.9458,-1.4879,-1.7078,-1.8545,-2.1493,-2.216,-2.2303,-2.2588,-2.2696,-2.2784,-2.2995,-2.3029,-2.3042,-2.3151,-2.3205,-2.3219,-2.3219,-2.3219,-2.3219,-2.3219,-2.3219,-2.3219,-2.3219,-2.3219,-2.3219,-2.3219,-2.3219,-2.3219,-2.3219,-2.3219,-2.3219,-2.3219,-2.3219,-2.3219,-2.3219,-2.3083,-2.294,-2.2784,-2.2479,-2.2235,-2.2038,-2.1794,-2.1618,0.0,0.0,0.0,0.0,0.0,0.0,0.0,0.0,3.8411,0.0,0.0,0.0,0.0,0.0,0.0,0.0,0.0,0.0,0.0,2.2453,2.0854,1.9487,2.0788,2.2412,2.4183,2.3207,2.438,2.9131,2.7901,2.8884,3.3665,3.1644,2.8718,2.5756,2.3015,2.0293,1.7195,1.7629,1.7935,1.8091,1.8552,1.8918,1.9203,1.9522,1.9752,1.9635,1.6513,1.3058,0.9809,0.6344,0.3058,0.0,0.0,0.0,0.0,0.0,0.0,0.0,0.0,0.0,0.0,0.0,0.0,0.0,0.0,-0.2396,-0.5323,-0.5362,-1.0457,-1.583,-1.6209,-1.8855,-2.129,-2.2004,-2.2004,-2.1991,-2.2289,-2.2466,-2.2574,-2.2574,-2.2818,-2.3008,-2.3008,-2.313,-2.3219,-2.3219,-2.3219,-2.3219,-2.3219,-2.3219,-2.3219,-2.3219,-2.3219,-2.3219,-2.3219,-2.3219,-2.3219,-2.3219,-2.3219,-2.3219,-2.3219,-2.3219,-2.3219,-2.3219,-2.3083,-2.294,-2.2784,-2.2479,-2.2181,-2.1882,-2.174,-2.1672,0.0,0.0,5.8533,4.9057,0.0,0.0,0.0,0.0,0.0,0.0,0.0,0.0,0.0,0.0,0.0,0.0,0.0,2.6106,0.0,2.1071,1.8274,1.6599,1.9156,2.0909,2.0835,2.3821,2.6556,2.8021,2.9393,3.1048,3.2973,2.9127,2.6285,2.5528,2.1135,1.8503,1.7494,1.7738,1.7935,1.8091,1.8552,1.8816,1.8918,1.9223,1.9379,1.92,1.3706,1.0843,0.9413,0.4001,0.1009,0.0,0.0,0.0,0.0,0.0,0.0,0.0,0.0,0.0,0.0,0.0,0.0,-0.0524,-0.2623,-0.4208,-0.6335,-1.1155,-1.4146,-1.6619,-1.908,-2.0405,-2.1509,-2.176,-2.1774,-2.1848,-2.2249,-2.2303,-2.2344,-2.2642,-2.271,-2.2764,-2.2974,-2.3049,-2.3117,-2.3205,-2.3219,-2.3219,-2.3219,-2.3219,-2.3219,-2.3219,-2.3219,-2.3219,-2.3219,-2.3219,-2.3219,-2.3219,-2.3219,-2.3219,-2.3219,-2.3219,-2.3219,-2.3219,-2.3083,-2.2995,-2.294,-2.2534,-2.2337,-2.2323,-2.1882,-2.1618,6.1273,6.3406,0.0,5.4647,5.4939,0.0,0.0,0.0,0.0,0.0,0.0,0.0,0.0,0.0,0.0,0.0,0.0,0.0,0.0,2.0008,1.7216,1.5338,1.7097,1.8473,1.8776,2.182,2.4627,2.6908,2.8679,3.0459,3.2358,2.8658,2.6202,2.5528,2.1259,1.8697,1.7717,1.7935,1.8111,1.8247,1.8606,1.8796,1.885,1.904,1.8438,1.7281,1.1858,0.9011,0.7592,0.2235,0.0,0.0,0.0,0.0,0.0,0.0,0.0,0.0,0.0,0.0,0.0,0.0,0.0,-0.052,-0.4162,-0.6001,-0.8398,-1.4403,-1.6848,-1.8459,-2.1083,-2.1564,-2.1475,-2.1638,-2.1672,-2.176,-2.2113,-2.2093,-2.2127,-2.2479,-2.25,-2.2554,-2.2798,-2.294,-2.3063,-2.3205,-2.3219,-2.3219,-2.3219,-2.3219,-2.3219,-2.3219,-2.3219,-2.3219,-2.3219,-2.3219,-2.3219,-2.3219,-2.3219,-2.3219,-2.3219,-2.3219,-2.3327,-2.3537,-2.3137,-2.3063,-2.3327,-2.2656,-2.2391,-2.2466,-2.1971,-2.1672]},{"header":{"parameterUnit":"m.s-1","parameterCategory":1,"la1":30.6,"la2":29.2853,"lo1":-89.7004,"lo2":-87.6739,"dy":0.0162,"dx":0.0183,"nx":112,"ny":82,"refTime":"2023-11-13T18:00:00:Z","depth":0,"parameterNumber":3,"parameterNumberName":"V-component_of_WINDS"},"data":[0.0,0.0,0.0,0.0,0.0,0.0,0.0,0.0,0.0,0.0,0.0,0.0,0.0,0.0,0.0,0.0,0.0,0.0,0.0,0.0,0.0,0.0,0.0,0.0,0.0,0.0,0.0,0.0,0.0,0.0,0.0,0.0,0.0,0.0,0.0,0.0,0.0,0.0,0.0,0.0,0.0,0.0,0.0,0.0,0.0,0.0,0.0,0.0,0.0,0.0,0.0,0.0,0.0,0.0,0.0,0.0,0.0,0.0,0.0,0.0,0.0,0.0,0.0,0.0,0.0,0.0,0.0,0.0,0.0,0.0,0.0,0.0,0.0,0.0,0.0,0.0,0.0,0.0,0.0,0.0,0.0,0.0,0.0,0.0,0.0,0.0,0.0,0.0,0.0,0.0,0.0,8.5343,8.9313,9.2134,9.3015,9.3088,9.1385,8.7384,0.0,0.0,0.0,0.0,0.0,0.0,0.0,0.0,0.0,0.0,0.0,0.0,0.0,0.0,0.0,0.0,0.0,0.0,0.0,0.0,0.0,0.0,0.0,0.0,0.0,0.0,0.0,0.0,0.0,0.0,0.0,0.0,0.0,0.0,0.0,0.0,0.0,0.0,0.0,0.0,0.0,0.0,0.0,0.0,0.0,0.0,0.0,0.0,0.0,0.0,0.0,0.0,0.0,0.0,0.0,0.0,0.0,0.0,0.0,0.0,0.0,0.0,0.0,0.0,0.0,0.0,0.0,0.0,0.0,0.0,0.0,0.0,0.0,0.0,0.0,0.0,0.0,0.0,0.0,0.0,0.0,0.0,0.0,0.0,0.0,0.0,0.0,0.0,0.0,0.0,0.0,0.0,0.0,0.0,0.0,0.0,0.0,0.0,0.0,0.0,0.0,0.0,0.0,0.0,8.422,8.9146,9.0958,9.2134,9.3015,9.3088,9.1385,8.7384,0.0,0.0,0.0,0.0,0.0,0.0,0.0,0.0,0.0,0.0,0.0,0.0,0.0,0.0,0.0,0.0,0.0,0.0,0.0,0.0,0.0,0.0,0.0,0.0,0.0,0.0,0.0,0.0,0.0,0.0,0.0,0.0,0.0,0.0,0.0,0.0,0.0,0.0,0.0,0.0,0.0,0.0,0.0,0.0,0.0,0.0,0.0,0.0,0.0,0.0,0.0,0.0,0.0,0.0,0.0,0.0,0.0,0.0,0.0,0.0,0.0,0.0,0.0,0.0,0.0,0.0,0.0,0.0,0.0,0.0,0.0,0.0,0.0,0.0,0.0,0.0,0.0,0.0,0.0,0.0,0.0,0.0,0.0,0.0,0.0,0.0,0.0,0.0,0.0,0.0,0.0,0.0,0.0,0.0,0.0,0.0,0.0,0.0,0.0,0.0,0.0,0.0,0.0,8.3116,8.6226,9.1362,9.2281,9.3015,9.4299,9.441,9.2528,8.7995,8.772,0.0,0.0,0.0,0.0,0.0,0.0,0.0,0.0,0.0,0.0,0.0,0.0,0.0,0.0,0.0,0.0,0.0,0.0,0.0,0.0,0.0,0.0,0.0,0.0,0.0,0.0,0.0,0.0,0.0,0.0,0.0,0.0,0.0,0.0,0.0,0.0,0.0,0.0,0.0,0.0,0.0,0.0,0.0,0.0,0.0,0.0,0.0,0.0,0.0,0.0,0.0,0.0,0.0,0.0,0.0,0.0,0.0,0.0,0.0,0.0,0.0,0.0,0.0,0.0,0.0,0.0,0.0,0.0,0.0,0.0,0.0,0.0,0.0,0.0,0.0,0.0,0.0,0.0,0.0,0.0,0.0,0.0,0.0,0.0,0.0,0.0,0.0,0.0,0.0,0.0,0.0,0.0,0.0,0.0,0.0,0.0,0.0,0.0,0.0,0.0,0.0,0.0,8.5864,8.8572,9.2647,9.3088,9.3749,9.5364,9.5511,9.3487,8.8591,8.8279,0.0,0.0,0.0,0.0,0.0,0.0,0.0,0.0,0.0,0.0,0.0,0.0,0.0,0.0,0.0,0.0,0.0,0.0,0.0,0.0,0.0,0.0,0.0,0.0,0.0,0.0,0.0,0.0,0.0,0.0,0.0,0.0,0.0,0.0,0.0,0.0,0.0,0.0,0.0,0.0,0.0,0.0,0.0,0.0,0.0,0.0,0.0,0.0,0.0,0.0,0.0,0.0,0.0,0.0,0.0,0.0,0.0,0.0,0.0,0.0,0.0,0.0,0.0,0.0,0.0,0.0,0.0,0.0,0.0,0.0,0.0,0.0,0.0,0.0,0.0,0.0,0.0,0.0,0.0,0.0,0.0,0.0,0.0,0.0,0.0,0.0,0.0,0.0,0.0,0.0,0.0,0.0,0.0,0.0,0.0,0.0,0.0,0.0,0.0,0.0,0.0,0.0,8.7452,9.0994,9.2905,9.3088,9.3749,9.5364,9.5511,9.3487,8.8591,8.8279,0.0,0.0,0.0,0.0,0.0,0.0,0.0,0.0,0.0,0.0,0.0,0.0,0.0,0.0,0.0,0.0,0.0,0.0,0.0,0.0,0.0,0.0,0.0,0.0,0.0,0.0,0.0,0.0,0.0,0.0,0.0,0.0,0.0,0.0,0.0,0.0,0.0,0.0,0.0,0.0,0.0,0.0,0.0,0.0,0.0,0.0,0.0,0.0,0.0,0.0,0.0,0.0,0.0,0.0,0.0,0.0,0.0,0.0,0.0,0.0,0.0,0.0,0.0,0.0,0.0,0.0,0.0,0.0,0.0,0.0,0.0,0.0,0.0,0.0,0.0,0.0,0.0,0.0,0.0,0.0,0.0,0.0,0.0,0.0,0.0,0.0,0.0,0.0,0.0,0.0,0.0,0.0,0.0,0.0,0.0,0.0,0.0,0.0,0.0,0.0,0.0,0.0,8.8016,9.1425,0.0,9.4593,9.5254,9.6869,9.7016,9.4741,8.9373,0.0,0.0,0.0,0.0,0.0,0.0,0.0,0.0,0.0,0.0,0.0,0.0,0.0,0.0,0.0,0.0,0.0,0.0,0.0,0.0,0.0,0.0,0.0,0.0,0.0,0.0,0.0,0.0,0.0,0.0,0.0,0.0,0.0,0.0,0.0,0.0,0.0,0.0,0.0,0.0,0.0,0.0,0.0,0.0,0.0,0.0,0.0,0.0,0.0,0.0,0.0,0.0,0.0,0.0,0.0,0.0,0.0,0.0,0.0,0.0,0.0,0.0,0.0,0.0,0.0,0.0,0.0,0.0,0.0,0.0,0.0,0.0,0.0,0.0,0.0,0.0,0.0,0.0,0.0,0.0,0.0,0.0,0.0,0.0,0.0,0.0,0.0,0.0,0.0,0.0,0.0,0.0,0.0,0.0,0.0,0.0,0.0,0.0,0.0,0.0,0.0,0.0,8.5467,8.8896,9.2273,0.0,9.5878,9.6502,9.8154,9.8264,9.581,8.9858,0.0,0.0,0.0,0.0,0.0,0.0,0.0,0.0,0.0,0.0,0.0,0.0,0.0,0.0,0.0,0.0,0.0,0.0,0.0,0.0,0.0,0.0,0.0,0.0,0.0,0.0,0.0,0.0,0.0,0.0,0.0,0.0,0.0,0.0,0.0,0.0,0.0,0.0,0.0,0.0,0.0,0.0,0.0,0.0,0.0,0.0,0.0,0.0,0.0,0.0,0.0,0.0,0.0,0.0,0.0,0.0,0.0,0.0,0.0,0.0,0.0,0.0,0.0,0.0,0.0,0.0,0.0,0.0,0.0,0.0,0.0,0.0,0.0,0.0,0.0,0.0,0.0,0.0,0.0,0.0,0.0,0.0,0.0,0.0,0.0,0.0,0.0,0.0,0.0,0.0,0.0,0.0,0.0,0.0,0.0,0.0,0.0,0.0,0.0,0.0,0.0,0.0,8.5744,9.0083,9.4079,9.6465,9.6722,9.7383,9.8998,9.9145,9.6326,0.0,0.0,0.0,0.0,0.0,0.0,0.0,0.0,0.0,0.0,0.0,0.0,0.0,0.0,0.0,0.0,0.0,0.0,0.0,0.0,0.0,0.0,0.0,0.0,0.0,0.0,0.0,0.0,0.0,0.0,0.0,0.0,0.0,0.0,0.0,0.0,0.0,0.0,0.0,0.0,0.0,0.0,0.0,0.0,0.0,0.0,0.0,0.0,0.0,0.0,0.0,0.0,0.0,0.0,0.0,0.0,0.0,0.0,0.0,0.0,0.0,0.0,0.0,0.0,0.0,0.0,0.0,0.0,0.0,0.0,0.0,0.0,0.0,0.0,0.0,0.0,0.0,0.0,0.0,0.0,0.0,0.0,0.0,0.0,0.0,0.0,0.0,0.0,0.0,0.0,0.0,0.0,0.0,0.0,0.0,0.0,0.0,0.0,0.0,0.0,0.0,0.0,0.0,8.813,9.2594,9.6135,9.7419,9.8043,9.9035,10.0686,10.0283,9.7395,9.1572,0.0,0.0,0.0,0.0,0.0,0.0,0.0,0.0,0.0,0.0,0.0,0.0,0.0,0.0,0.0,0.0,0.0,0.0,0.0,0.0,0.0,0.0,0.0,0.0,0.0,0.0,0.0,0.0,0.0,0.0,0.0,0.0,0.0,0.0,0.0,0.0,0.0,0.0,0.0,0.0,0.0,0.0,0.0,0.0,0.0,0.0,0.0,0.0,0.0,0.0,0.0,0.0,0.0,0.0,0.0,0.0,0.0,0.0,0.0,0.0,0.0,0.0,0.0,0.0,0.0,0.0,0.0,0.0,0.0,0.0,0.0,0.0,0.0,0.0,0.0,0.0,0.0,0.0,0.0,0.0,0.0,0.0,0.0,0.0,0.0,0.0,0.0,0.0,0.0,0.0,0.0,0.0,0.0,0.0,0.0,0.0,0.0,0.0,0.0,0.0,0.0,0.0,8.9621,9.3887,9.7236,9.8704,9.9292,10.0209,10.1788,10.1494,9.9161,9.4332,0.0,0.0,0.0,0.0,0.0,0.0,0.0,0.0,0.0,0.0,0.0,0.0,0.0,0.0,0.0,0.0,0.0,0.0,0.0,0.0,0.0,0.0,0.0,0.0,0.0,0.0,0.0,0.0,0.0,0.0,0.0,0.0,0.0,0.0,0.0,0.0,0.0,0.0,0.0,0.0,0.0,0.0,0.0,0.0,0.0,0.0,0.0,0.0,0.0,0.0,0.0,0.0,0.0,0.0,0.0,0.0,0.0,0.0,0.0,0.0,0.0,0.0,0.0,0.0,0.0,0.0,0.0,0.0,0.0,0.0,0.0,0.0,0.0,0.0,0.0,0.0,0.0,0.0,0.0,0.0,0.0,0.0,0.0,0.0,0.0,0.0,0.0,0.0,0.0,0.0,0.0,0.0,0.0,0.0,0.0,0.0,0.0,0.0,0.0,0.0,0.0,0.0,9.059,9.4404,9.7823,10.0209,10.0503,10.109,10.2595,10.2815,10.1292,9.7761,0.0,0.0,0.0,0.0,0.0,0.0,0.0,0.0,0.0,0.0,0.0,0.0,0.0,0.0,0.0,0.0,0.0,0.0,0.0,0.0,0.0,0.0,0.0,0.0,0.0,0.0,0.0,0.0,0.0,0.0,0.0,0.0,0.0,0.0,0.0,0.0,0.0,0.0,0.0,0.0,0.0,0.0,0.0,0.0,0.0,0.0,0.0,0.0,0.0,0.0,0.0,0.0,0.0,0.0,0.0,0.0,0.0,0.0,0.0,0.0,7.8621,0.0,0.0,0.0,0.0,0.0,0.0,0.0,0.0,0.0,0.0,0.0,0.0,0.0,0.0,0.0,0.0,0.0,0.0,0.0,0.0,0.0,0.0,0.0,0.0,0.0,0.0,0.0,0.0,0.0,0.0,0.0,0.0,0.0,0.0,0.0,0.0,0.0,0.0,0.0,0.0,0.0,9.2268,9.6103,9.9255,10.109,10.1788,10.2301,10.2705,10.3293,10.2378,9.9432,9.7904,0.0,0.0,0.0,0.0,0.0,0.0,0.0,0.0,0.0,0.0,0.0,0.0,0.0,0.0,0.0,0.0,0.0,0.0,0.0,0.0,0.0,0.0,0.0,0.0,0.0,0.0,0.0,0.0,0.0,0.0,0.0,0.0,0.0,0.0,0.0,0.0,0.0,0.0,0.0,0.0,0.0,0.0,0.0,0.0,0.0,0.0,0.0,0.0,0.0,0.0,0.0,0.0,0.0,0.0,0.0,0.0,0.0,0.0,0.0,0.0,7.9723,0.0,0.0,0.0,0.0,0.0,0.0,0.0,0.0,0.0,0.0,0.0,0.0,0.0,0.0,0.0,0.0,0.0,0.0,0.0,0.0,0.0,0.0,0.0,0.0,0.0,0.0,0.0,0.0,0.0,0.0,0.0,0.0,0.0,0.0,0.0,0.0,0.0,0.0,0.0,0.0,9.3908,9.7765,10.0907,10.2485,10.2705,10.3242,10.438,10.4532,10.4281,10.3602,10.1513,0.0,0.0,0.0,0.0,0.0,0.0,0.0,0.0,0.0,0.0,0.0,0.0,0.0,0.0,0.0,0.0,0.0,0.0,0.0,0.0,0.0,0.0,0.0,0.0,0.0,0.0,0.0,0.0,0.0,0.0,0.0,0.0,0.0,0.0,0.0,0.0,0.0,0.0,0.0,0.0,0.0,0.0,0.0,0.0,0.0,0.0,0.0,0.0,0.0,0.0,0.0,0.0,0.0,8.192,8.238,8.3339,8.3201,8.3162,8.3223,8.2404,8.1819,8.1359,8.0628,0.0,0.0,0.0,0.0,0.0,0.0,0.0,0.0,0.0,0.0,0.0,0.0,0.0,0.0,0.0,0.0,0.0,0.0,0.0,0.0,0.0,0.0,0.0,0.0,9.8349,9.8355,0.0,0.0,0.0,0.0,0.0,0.0,0.0,0.0,0.0,0.0,0.0,0.0,9.5893,9.9501,10.2301,10.3917,10.3513,10.4034,10.599,10.5803,10.63,10.7796,10.5102,10.3193,0.0,0.0,0.0,0.0,0.0,0.0,0.0,0.0,0.0,0.0,0.0,0.0,0.0,0.0,0.0,0.0,0.0,0.0,0.0,0.0,0.0,0.0,0.0,0.0,0.0,0.0,0.0,0.0,0.0,0.0,0.0,0.0,7.2398,7.4594,0.0,0.0,0.0,0.0,0.0,0.0,0.0,0.0,0.0,0.0,0.0,0.0,0.0,8.2209,8.2928,8.3018,8.3659,8.5067,8.517,8.5909,8.7233,8.6622,8.6616,8.7152,8.6447,0.0,8.212,8.2005,0.0,0.0,0.0,0.0,0.0,0.0,0.0,0.0,0.0,0.0,0.0,0.0,0.0,0.0,0.0,0.0,0.0,0.0,0.0,0.0,0.0,0.0,10.2028,10.2653,10.3014,10.3051,0.0,9.8277,9.4281,9.2555,9.2804,0.0,0.0,0.0,0.0,0.0,0.0,0.0,9.8685,10.1228,10.3219,10.4798,10.4834,10.4876,10.5283,10.6473,10.7699,10.8779,10.8331,10.6999,10.4636,10.3238,0.0,0.0,0.0,0.0,0.0,0.0,0.0,0.0,0.0,0.0,0.0,0.0,0.0,0.0,0.0,0.0,0.0,0.0,0.0,0.0,0.0,0.0,0.0,0.0,0.0,0.0,0.0,0.0,0.0,7.3504,7.5051,7.718,7.7122,7.7122,0.0,0.0,0.0,0.0,0.0,0.0,0.0,0.0,0.0,8.3638,8.4846,8.6059,8.7191,8.7658,8.8232,8.8913,8.8922,8.9207,8.985,8.9512,8.9545,8.9816,8.9072,8.8041,8.6598,8.4455,8.3507,8.3543,0.0,0.0,0.0,0.0,8.8249,8.8582,8.9531,9.0257,9.061,8.9887,0.0,0.0,0.0,0.0,0.0,0.0,0.0,0.0,0.0,0.0,10.3512,10.4991,10.5311,10.5311,10.5311,10.3439,10.0722,0.0,9.6281,9.4659,9.1132,0.0,0.0,0.0,0.0,9.7121,9.9538,10.2291,10.453,10.5679,10.5794,10.6399,10.7899,10.8212,10.8992,11.03,11.0386,10.9789,10.8586,10.5979,10.2901,0.0,0.0,0.0,0.0,0.0,0.0,0.0,0.0,0.0,0.0,0.0,0.0,0.0,0.0,0.0,0.0,0.0,0.0,0.0,0.0,0.0,0.0,0.0,0.0,0.0,0.0,0.0,0.0,7.6033,7.7128,7.8995,7.9192,7.9241,0.0,0.0,0.0,0.0,0.0,0.0,8.2786,8.4481,8.6087,8.7359,8.8692,9.0002,9.1338,9.1913,9.2252,9.2455,9.2455,9.2556,9.2725,9.2522,9.2556,9.2658,9.1744,9.1237,9.0763,8.7249,8.5787,8.5866,8.6411,8.7101,8.792,9.0093,9.099,9.1324,9.2904,9.3418,9.3382,9.3218,9.3202,9.3219,9.2672,0.0,0.0,0.0,0.0,10.1604,10.4421,10.4819,10.4925,10.6056,10.6376,10.6376,10.6376,10.625,10.5016,0.0,9.9981,9.7992,9.5046,0.0,0.0,0.0,0.0,9.9575,10.0424,10.3407,10.5711,10.6288,10.6579,10.7703,10.9992,10.9681,10.9913,11.1401,11.1522,11.1522,11.1522,10.8406,10.6213,10.5097,0.0,0.0,0.0,0.0,0.0,0.0,0.0,0.0,0.0,0.0,0.0,0.0,0.0,0.0,0.0,0.0,0.0,0.0,0.0,0.0,0.0,0.0,0.0,0.0,0.0,0.0,0.0,0.0,0.0,7.9912,8.0133,0.0,0.0,0.0,0.0,8.3056,8.4621,8.6073,8.7434,8.9663,9.1288,9.2097,9.2944,9.3639,9.4485,9.4518,9.489,9.5567,9.5567,9.5939,9.6582,9.5872,9.5939,9.6514,9.5093,9.4079,9.3165,9.02,9.0082,9.181,9.1003,9.2175,9.4227,9.365,9.3663,9.4116,9.4189,9.4226,9.4301,9.4733,9.5143,9.5735,9.6718,9.8003,0.0,0.0,10.3795,10.5674,10.6176,10.6938,10.7232,10.6559,10.6376,10.6376,10.6376,10.5465,10.4782,0.0,10.4844,10.361,9.9982,0.0,9.9242,9.8462,9.9797,10.1311,10.2382,10.4794,10.64,10.6399,10.7098,10.8273,11.0008,11.0176,11.0525,11.1401,11.1522,11.1522,11.1522,11.1291,10.929,10.5174,10.5713,0.0,0.0,0.0,0.0,0.0,0.0,0.0,0.0,0.0,0.0,0.0,0.0,0.0,0.0,0.0,0.0,0.0,0.0,0.0,0.0,0.0,0.0,0.0,0.0,0.0,0.0,0.0,0.0,8.4769,8.4328,0.0,8.7067,8.6601,8.6816,8.833,8.9419,9.0453,9.1523,9.3291,9.4364,9.4586,9.6244,9.7258,9.7529,9.8003,9.8375,9.8645,9.8645,9.8781,9.9018,9.8747,9.8781,9.8984,9.7969,9.7899,9.8331,9.6268,9.4514,9.3202,9.5048,9.577,9.5747,9.6764,9.6897,9.6685,9.7199,9.7052,9.6688,9.6803,9.7691,9.8798,9.979,10.1375,10.3412,10.5163,10.671,10.7878,10.8628,10.8505,10.8175,10.7367,10.7183,10.7,10.6486,10.6103,10.5781,10.5862,10.531,10.4118,10.1795,10.2009,10.167,9.9649,10.0939,10.2227,10.2611,10.4913,10.6637,10.7215,10.8479,10.9802,11.0931,11.0518,11.0609,11.1406,11.0983,11.0906,11.1522,11.1522,11.0791,10.9213,10.9521,10.6794,0.0,0.0,0.0,0.0,0.0,0.0,0.0,0.0,0.0,0.0,0.0,0.0,0.0,0.0,0.0,0.0,0.0,0.0,0.0,0.0,0.0,0.0,0.0,0.0,0.0,8.2439,8.4545,8.8246,8.826,8.8871,9.1056,9.1069,9.1485,9.2747,9.367,9.4755,9.577,9.7258,9.8172,9.8409,10.01,10.098,10.098,10.1487,10.1724,10.1724,10.1487,10.1487,10.1724,10.1487,10.1521,10.169,10.0709,10.1128,10.2434,10.1569,9.9917,9.7975,9.8878,9.8875,9.8468,9.9529,9.9548,9.9145,9.9402,9.9328,9.9108,9.9108,9.9989,10.131,10.2412,10.421,10.6192,10.7587,10.8799,10.9679,10.99,10.9606,10.8982,10.8175,10.7991,10.7881,10.7294,10.7183,10.7183,10.7183,10.6194,10.4777,10.3486,10.3794,10.3647,10.1388,10.2717,10.3795,10.3518,10.5718,10.7459,10.8141,10.9392,11.0568,11.1401,11.049,11.0223,11.0983,11.0066,10.9915,11.0983,11.0605,11.0495,11.0803,11.0803,10.8299,10.331,0.0,0.0,0.0,0.0,0.0,0.0,0.0,0.0,0.0,0.0,0.0,0.0,0.0,0.0,0.0,0.0,0.0,0.0,0.0,0.0,0.0,0.0,0.0,8.2315,8.5023,8.7779,9.0121,9.1698,9.2972,9.3656,9.4515,9.5296,9.6007,9.7394,9.8848,10.0337,10.1825,10.2908,10.3686,10.4396,10.4701,10.4769,10.4701,10.4701,10.4701,10.399,10.399,10.4667,10.399,10.399,10.4566,10.3145,10.3383,10.4841,10.5485,10.6231,10.6486,10.2513,10.1815,10.2815,10.1971,10.1677,10.1494,10.0686,10.0907,10.1567,10.1494,10.2081,10.3109,10.4724,10.6302,10.7771,10.8615,11.001,11.1001,11.0193,11.001,10.979,10.9019,10.8799,10.8799,10.8799,10.8799,10.8799,10.8799,10.7514,10.6192,10.5311,10.5201,10.4824,10.3832,10.521,0.0,10.5063,10.7283,10.8994,10.897,10.9789,11.0598,11.1406,11.0189,10.961,11.0217,10.8801,10.8723,11.0175,10.8801,10.8485,10.9412,10.9296,10.8485,10.6712,0.0,0.0,0.0,0.0,0.0,0.0,0.0,0.0,0.0,0.0,0.0,0.0,0.0,0.0,0.0,0.0,0.0,0.0,0.0,0.0,0.0,8.3397,8.5274,8.5476,8.7663,9.0775,9.4529,9.6316,9.8024,9.9809,10.07,10.1487,10.2198,10.2603,10.3483,10.5005,10.5005,10.5208,10.5986,10.5682,10.5783,10.6291,10.5783,10.5513,10.5513,10.531,10.5005,10.4667,10.4498,10.4498,10.4765,10.5538,10.6543,10.8028,10.8696,10.9427,10.9822,10.8104,10.6999,10.6192,10.5972,10.5201,10.399,10.3182,10.3072,10.3109,10.2595,10.3696,10.5495,10.5899,10.7587,10.9386,10.9606,11.0414,11.1111,11.0891,11.0891,11.0707,10.99,10.9679,10.9496,10.8909,10.8799,10.8799,10.8799,10.8395,10.7881,10.7073,10.6413,10.59,10.5693,10.6138,0.0,10.7682,10.8986,10.9875,11.0105,11.0922,11.123,11.0767,11.038,11.0497,11.1098,10.9604,10.9412,11.1098,11.0105,11.03,11.1686,11.0112,10.8681,0.0,0.0,0.0,0.0,0.0,0.0,0.0,0.0,0.0,0.0,0.0,0.0,0.0,0.0,0.0,0.0,0.0,0.0,0.0,0.0,0.0,0.0,8.6131,8.8988,9.1203,9.2585,9.4789,9.8341,10.0371,10.2198,10.4193,10.5005,10.5614,10.6088,10.6697,10.7407,10.8287,10.7915,10.7915,10.8287,10.761,10.7576,10.8287,10.761,10.7407,10.7712,10.7035,10.6697,10.6561,10.6189,10.6291,10.6628,10.7462,10.886,11.0214,11.0434,11.1286,11.2102,0.0,0.0,0.0,0.0,10.7477,10.6523,10.5678,10.5678,10.5789,10.4981,10.5972,10.7404,10.7404,10.8578,10.9973,10.9973,11.0597,11.1221,11.1221,11.1221,11.1111,11.0597,11.0487,11.0414,10.99,10.979,10.979,10.979,11.0145,0.0,10.974,10.8742,10.7954,10.8261,10.8785,10.9432,11.0296,11.1198,11.183,11.1999,11.2426,11.2503,11.2002,11.1113,0.0,0.0,0.0,10.9109,11.0535,11.0419,0.0,0.0,0.0,11.0381,11.0497,10.8797,0.0,0.0,10.5589,10.5812,0.0,0.0,0.0,0.0,0.0,0.0,0.0,0.0,0.0,0.0,0.0,0.0,0.0,0.0,0.0,0.0,8.9109,9.2962,9.7935,9.8848,9.9728,10.169,10.3855,10.5783,10.7103,10.8016,10.8524,10.8524,10.9809,11.0587,11.0689,11.0519,0.0,0.0,0.0,10.9809,11.0689,10.9911,10.9877,11.0418,10.9031,10.8693,10.9166,10.849,10.8728,10.9576,10.9644,11.0637,11.214,11.211,11.2751,11.3497,11.1295,10.9973,10.9312,10.9202,10.9092,10.8982,10.8101,0.0,0.0,10.7991,10.8285,10.8982,10.9019,10.9606,11.0193,11.0193,11.0781,11.1295,11.1221,11.1295,11.1405,11.1405,11.1405,11.1515,11.1515,11.1515,11.1515,11.1515,11.2235,11.2769,11.2923,11.1468,11.063,11.1287,11.2185,11.2831,11.2695,11.3504,11.4099,11.3989,11.3989,0.0,11.3873,11.2079,11.1192,11.1675,10.9803,10.899,10.9685,11.0611,11.1808,11.3507,11.2619,11.2887,11.4291,11.3407,11.3022,11.2906,10.9186,10.8683,0.0,0.0,0.0,0.0,0.0,0.0,0.0,0.0,0.0,0.0,0.0,0.0,0.0,0.0,0.0,9.1268,9.4991,9.8578,10.1995,10.4092,10.5107,10.5005,10.69,10.8693,10.9606,11.079,11.1602,11.1602,11.1873,11.2312,11.2921,11.1805,11.1703,11.2921,11.1703,11.1602,11.2921,11.2211,11.1602,11.1196,11.0892,0.0,10.9166,10.8997,11.005,11.2144,11.2755,11.4207,11.6247,11.6126,11.5515,11.4488,11.3277,11.28,11.2579,11.1919,11.1295,11.0597,10.979,10.9202,10.8799,10.8615,10.9092,10.99,11.0524,11.0817,0.0,11.1808,11.1992,11.1992,11.1405,11.2212,11.2983,11.2286,11.2689,11.3093,11.3093,11.3093,11.3093,11.3093,11.39,11.4679,11.5382,11.3565,11.2354,11.3194,11.3609,11.3991,11.458,11.4862,11.4802,11.4278,11.4279,11.4009,11.3314,11.3506,11.3584,11.3483,11.3104,11.2607,11.2107,11.3493,11.4802,11.5803,11.4994,11.5066,11.5984,11.5215,11.4791,11.4791,11.3296,11.2915,0.0,0.0,0.0,0.0,0.0,0.0,0.0,0.0,0.0,0.0,0.0,8.1806,8.4466,0.0,9.1364,9.5108,9.8588,10.1995,10.531,10.7407,10.849,10.8118,10.9403,11.0689,11.1805,11.2583,11.309,11.309,11.3395,11.3767,11.4105,11.3496,11.3395,11.4105,11.309,11.3023,11.4105,11.3395,11.309,11.2989,11.2685,11.2109,11.1365,11.2266,11.3277,11.453,11.5565,11.6823,11.7864,11.7366,11.6727,11.592,11.5112,11.4305,11.3497,11.2689,11.2396,11.2286,11.1478,11.1184,11.1184,11.1184,11.1478,11.1882,11.2286,11.2396,11.2506,11.2873,11.2983,11.291,11.2506,11.2983,11.3497,11.3093,11.3277,11.357,11.357,11.357,11.3676,11.4212,11.5009,11.587,11.6814,11.6696,11.6521,11.6494,11.6468,11.6694,11.7093,11.76,11.7491,11.6817,11.7128,11.7013,11.6162,11.6126,11.5888,11.5291,11.5291,11.5291,11.5291,11.6484,11.7407,11.7792,11.7407,11.7407,11.7792,11.6984,11.6599,11.6484,11.6099,11.5715,0.0,0.0,0.0,0.0,0.0,0.0,0.0,7.6371,7.8575,8.2235,8.4411,8.6538,8.9141,9.245,9.577,9.8837,10.1825,10.4904,10.8219,10.9911,11.0824,11.1095,11.1602,11.238,11.3699,11.3801,11.3902,11.4004,11.4579,11.4985,11.5086,11.4985,11.4985,11.5086,11.441,11.4308,11.4883,11.4308,11.4274,11.468,11.4105,11.3699,11.3632,11.5273,11.6336,11.6924,11.868,11.9302,11.8936,11.7975,11.7498,11.7131,11.6507,11.5406,11.4194,11.3203,11.3277,11.3681,11.291,11.3093,11.357,11.357,11.357,11.357,11.3791,11.3681,11.357,11.3791,11.3791,11.3791,11.3791,11.4084,11.4305,11.4305,11.4378,11.4488,11.4488,11.4595,11.4779,11.5775,11.6588,11.7357,11.8489,11.9891,12.0408,11.9292,11.9408,11.9485,11.9408,11.9985,12.0292,11.9715,11.9985,11.9985,11.9215,11.8484,11.7792,11.7292,11.7176,11.76,11.8292,11.91,11.9485,11.9292,11.9215,11.9215,11.9292,11.8292,11.7907,11.8023,11.7907,11.7292,6.7548,6.7971,6.8968,7.2405,7.3744,7.5677,0.0,8.2979,8.4674,8.8439,8.994,9.1635,9.5179,9.7855,10.0429,10.3449,10.6494,10.9065,11.079,11.1703,11.2685,11.4072,11.3699,11.3699,11.4477,11.4579,11.4816,11.5526,11.5628,11.6,11.6609,11.6034,11.6,11.6609,11.5932,11.5628,11.5695,11.5628,11.5289,11.468,11.4579,11.4207,11.3632,11.5273,11.7227,11.9256,12.1688,12.2038,12.0609,11.9642,11.8489,11.7204,11.7094,11.7021,11.6617,11.5112,11.4598,11.4598,11.3681,11.3497,11.357,11.357,11.357,11.3681,11.4415,11.4194,11.3681,11.4488,11.4708,11.4708,11.4708,11.5699,11.6801,11.6801,11.7314,11.7902,11.7902,11.7982,11.8305,11.9214,11.964,12.0279,12.1884,12.2382,12.1793,11.9485,12.0408,12.0985,12.0292,12.0908,12.1408,12.1293,12.0677,11.9985,11.9215,11.8985,11.9215,11.9792,11.9908,11.9908,11.9985,12.0908,12.0985,12.0216,11.9485,11.9485,12.0216,11.86,11.8215,11.8908,11.8215,11.7292,6.7433,6.984,7.2504,7.4748,7.7333,8.0672,8.5829,8.7509,8.9003,9.2102,9.4112,9.6074,9.895,10.169,10.4295,10.69,10.9099,11.0993,11.2482,11.3293,11.3801,11.4004,11.4173,11.4511,11.5289,11.5695,11.6101,11.6406,11.6406,11.6609,11.6913,11.6203,11.5932,11.6304,11.6,11.5831,11.5831,11.5831,11.5628,11.5323,11.5323,11.5188,11.5062,11.7586,12.025,12.2489,12.3495,12.3077,12.1499,12.0691,11.97,11.8599,11.8085,11.7902,11.7608,11.5589,11.5406,11.5993,11.4708,11.4598,11.5002,11.5002,11.5296,11.5699,11.5516,11.5589,11.581,11.6103,11.6213,11.6397,11.7388,11.7718,11.8122,11.9113,11.9302,11.9429,11.9911,12.0086,12.0382,12.1372,12.1609,12.2097,12.3287,12.3982,12.3985,12.2908,12.3408,12.3909,12.3985,12.4293,12.4409,12.3909,12.2985,12.2408,12.1985,12.1985,12.2216,12.2485,12.2485,12.2485,12.2485,12.3793,12.3678,12.1793,12.1908,12.1716,12.11,11.9792,11.9408,11.9792,11.9408,11.8792,6.8727,7.1656,7.524,7.7787,8.1149,8.5187,9.0103,9.1867,9.3332,9.5953,9.7834,9.9762,10.2401,10.4667,10.69,10.9369,11.0993,11.2482,11.3699,11.4207,11.4105,11.3395,11.3395,11.3902,11.4816,11.5898,11.671,11.6913,11.7116,11.7319,11.7488,11.6812,11.644,11.644,11.644,11.6237,11.5831,11.6,11.6,11.5831,11.6,11.6223,11.656,11.9884,12.266,12.4803,12.4582,12.3701,12.238,12.1793,12.0802,11.959,11.9187,11.8893,11.8489,11.6507,11.6507,11.7388,11.6213,11.6213,11.669,11.669,11.7094,11.7425,11.6801,11.7094,11.7498,11.7498,11.7718,11.8195,11.959,11.97,11.9905,12.1606,12.1592,12.1384,12.201,12.2334,12.2604,12.3251,12.3395,12.3808,12.4965,12.5717,12.6294,12.6717,12.6794,12.6909,12.6986,12.7217,12.7101,12.6217,12.5293,12.4716,12.4486,12.4216,12.4293,12.4793,12.4793,12.4909,12.5101,12.6601,12.6217,12.3601,12.3909,12.3408,12.1985,12.0793,12.0408,12.0677,12.0408,11.9985,7.273,7.42,7.7057,8.2936,8.5789,8.8668,9.4299,9.6751,9.8442,10.0709,10.1284,10.2401,10.6088,10.6798,10.7813,11.079,11.2583,11.3801,11.4579,11.4105,11.3395,11.2583,11.1298,11.0993,11.2482,11.4579,11.6135,11.6812,11.7624,11.8402,11.9078,11.8402,11.803,11.803,11.803,11.7319,11.5831,11.6507,11.6507,11.5831,11.6507,11.735,11.8291,12.1568,12.4082,12.5573,12.4803,12.3995,12.3298,12.3224,12.1793,11.97,12.0508,12.0288,11.948,11.8599,11.8306,11.8416,11.8306,11.8306,11.8306,11.8306,11.8306,11.8416,11.8306,11.8306,11.8416,11.8416,11.8893,11.97,12.0618,12.1389,12.2375,12.4319,12.4691,12.4693,12.482,12.4984,12.5126,12.5088,12.5219,12.5832,12.7525,12.7794,12.8409,13.0102,13.0294,12.9717,12.8102,12.8602,12.8794,12.7909,12.7101,12.6294,12.5409,12.4601,12.4793,12.6486,12.6601,12.6986,12.7794,12.8602,12.7909,12.5409,12.4486,12.3716,12.2908,12.11,12.0716,12.1485,12.0677,12.0292,7.5047,7.7215,8.0134,8.4708,8.7508,9.0557,9.6168,9.8222,9.9585,10.1669,10.2233,10.2575,10.3803,10.4827,10.6328,10.8854,11.0901,11.2718,11.4477,11.4477,11.3496,11.1298,11.1501,11.1365,11.0384,11.2786,11.5086,11.6812,11.7624,11.8199,11.8503,11.8199,11.8097,11.8097,11.8097,11.7894,11.7319,11.759,11.7319,11.6507,11.7395,11.8776,12.075,12.2442,12.4045,12.5684,12.539,12.4509,12.3298,12.3298,12.2196,12.0508,12.0802,12.0691,12.0493,12.0881,12.1457,12.1717,12.0604,12.0604,12.1123,12.1123,12.1049,12.0962,12.1049,12.1487,12.1972,12.1854,12.2014,12.243,12.3051,12.3636,12.4329,12.5982,12.6623,12.6707,12.6788,12.7388,12.7665,12.709,12.699,12.7409,12.8602,12.8294,12.8294,12.9487,13.0602,13.091,12.9794,12.991,12.9717,12.8909,12.8486,12.8217,12.7909,12.7717,12.7717,12.8294,12.8409,12.8486,12.8794,12.9602,12.8602,12.5486,12.5678,12.4601,12.1985,12.1408,12.1293,12.16,12.1293,12.1177,7.7109,7.9707,8.2896,8.7011,8.964,9.2749,9.8019,9.8937,9.9643,10.2655,10.1538,10.0452,10.2139,10.2159,10.307,10.6464,10.8371,11.0596,11.3622,11.3316,11.2293,11.0858,11.079,11.0689,11.0012,11.1906,11.4105,11.6304,11.7725,11.8503,11.8503,11.8706,11.8774,11.8503,11.8706,11.8605,11.8097,11.8402,11.8199,11.7691,11.8955,12.0471,12.2316,12.3529,12.4684,12.5684,12.5684,12.4986,12.3812,12.3995,12.3004,12.1389,12.1609,12.1786,12.1883,12.2498,12.3848,12.5156,12.3231,12.3111,12.3785,12.3785,12.3822,12.3667,12.3822,12.4217,12.4704,12.4581,12.4796,12.512,12.5509,12.5895,12.6525,12.7897,12.838,12.8582,12.8691,12.9215,12.941,12.8525,12.8602,12.8986,12.9602,12.941,12.941,12.9987,13.0987,13.141,13.0602,13.0794,13.0718,13.0217,12.9794,12.9717,12.9717,12.941,12.9294,12.9602,12.9717,12.9794,13.0102,13.0602,12.9487,12.6409,12.6601,12.5178,12.21,12.1793,12.16,12.16,12.16,12.16,7.8869,8.1857,8.5296,8.9539,9.198,9.4648,9.9297,9.8885,9.8723,10.3397,9.9329,9.6472,10.1147,9.9195,9.8571,10.396,10.5643,10.7801,11.2091,11.0858,11.0113,11.1302,10.9606,10.9099,11.1196,11.2076,11.3463,11.5628,11.7894,11.9112,11.9112,11.989,11.9992,11.9281,11.9958,11.9687,11.8199,11.8875,11.9146,11.9262,12.1103,12.2316,12.3078,12.4916,12.5684,12.5684,12.5684,12.5206,12.4582,12.528,12.4289,12.2196,12.3101,12.349,12.3732,12.3779,12.5987,12.861,12.6107,12.5791,12.6509,12.6509,12.6509,12.6433,12.6509,12.6471,12.6506,12.6509,12.7038,12.7569,12.7606,12.821,12.8998,13.0006,13.016,13.0292,13.0487,13.0487,13.0294,12.941,12.9987,13.0487,13.0487,13.1179,13.1679,13.1679,13.1679,13.141,13.0679,13.1179,13.1679,13.1679,13.0987,13.0602,13.0602,12.9794,12.9717,13.0487,13.0602,13.091,13.1679,13.1679,13.041,12.7909,12.6986,12.5409,12.2793,12.1985,12.16,12.16,12.16,12.16,8.2061,8.4397,8.6681,8.9319,9.0647,9.2445,9.6646,9.7506,9.7865,9.9356,9.7536,9.54,9.4356,9.5673,9.7771,10.0318,10.4933,10.9407,11.2225,11.304,11.3069,11.2245,11.2211,11.2008,11.1467,11.2583,11.4004,11.5729,11.7421,11.8402,11.8402,12.0093,12.077,11.9992,12.0702,12.0702,11.9687,11.9383,11.9821,12.1057,12.1558,12.2646,12.4045,12.5194,12.5684,12.5684,12.5684,12.5206,12.4509,12.4693,12.4105,12.3101,12.3969,12.4356,12.4684,12.609,12.7631,12.9025,12.9112,12.9086,12.9191,12.9191,12.881,12.8392,12.9,12.9292,12.938,12.9194,12.9381,12.9324,12.8622,12.9062,12.9903,13.0097,13.0835,13.1203,13.059,13.0987,13.1179,13.0294,13.0794,13.1179,13.0602,13.1179,13.1679,13.1679,13.1679,13.1602,13.141,13.1602,13.1679,13.1679,13.1487,13.141,13.141,13.1179,13.1179,13.141,13.141,13.1487,13.1679,13.1102,12.9602,12.7101,12.6178,12.4486,12.1908,12.1677,12.16,12.16,12.16,12.16,8.4427,8.6651,8.8334,8.9741,9.0788,9.2092,9.4134,9.4354,9.4581,9.5807,9.3622,9.1438,9.1003,9.2608,9.512,9.8297,10.3332,10.8213,11.206,11.3047,11.3452,11.3571,11.3496,11.3496,11.3327,11.441,11.5526,11.671,11.7624,11.8402,11.9011,12.0195,12.0871,12.077,12.0871,12.0702,12.0262,11.989,12.0558,12.2137,12.2309,12.3159,12.4832,12.5439,12.5684,12.5684,12.5684,12.539,12.4986,12.4582,12.4531,12.4543,12.4654,12.562,12.6777,12.7897,12.9069,13.0299,13.0808,13.0996,13.0931,13.0931,13.051,13.0203,13.0701,13.0904,13.0962,13.0891,13.0931,13.07,13.0236,13.0384,13.0931,13.0931,13.1341,13.1602,13.1102,13.141,13.1602,13.1102,13.141,13.1602,13.1102,13.141,13.1679,13.1679,13.1679,13.1679,13.1679,13.1679,13.1679,13.1679,13.1679,13.1679,13.1679,13.1679,13.1679,13.1679,13.1679,13.1679,13.1679,13.091,12.9294,12.6678,12.5996,12.4429,12.1805,12.1927,12.2,12.2,12.2,12.1889,8.6434,8.8334,8.995,9.0489,9.1506,9.2231,9.1994,9.1,9.0682,9.2463,8.9289,8.7012,8.9096,8.98,9.1778,9.7254,10.1313,10.5916,11.1785,11.2264,11.2778,11.4825,11.441,11.4613,11.6101,11.6812,11.759,11.8503,11.8503,11.9078,12.0195,12.0567,12.1006,12.1683,12.0871,12.0398,12.0398,12.0598,12.1363,12.3072,12.3259,12.4162,12.5746,12.5726,12.5684,12.5684,12.5684,12.5684,12.5647,12.511,12.5431,12.6069,12.5664,12.7004,12.9192,12.9315,13.0375,13.1679,13.1679,13.1679,13.1679,13.1679,13.1679,13.1679,13.1679,13.1679,13.1679,13.1679,13.1679,13.1679,13.1679,13.1679,13.1679,13.1679,13.1679,13.1679,13.1679,13.1679,13.1679,13.1679,13.1679,13.1679,13.1679,13.1679,13.1679,13.1679,13.1679,13.1679,13.1679,13.1679,13.1679,13.1679,13.1679,13.1679,13.1679,13.1679,13.1691,13.1828,13.1828,13.1838,13.1771,13.1077,12.9381,12.6876,12.6336,12.4698,12.2213,12.2389,12.2501,12.2501,12.2501,12.2389,8.7885,8.9382,9.0489,9.0608,9.0818,9.0961,9.1204,9.1045,9.0424,8.9255,8.8189,8.7198,8.5792,8.7654,9.1053,9.634,10.0766,10.5706,11.175,11.351,11.4723,11.6304,11.6406,11.6913,11.8503,11.8706,11.9383,12.0702,12.0803,12.0702,12.0296,12.2021,12.3104,12.3205,12.192,12.1209,12.1209,12.2031,12.2898,12.3929,12.4747,12.5566,12.656,12.5987,12.5684,12.5684,12.5684,12.5684,12.5783,12.6393,12.6825,12.7099,12.873,12.9599,13.007,13.0926,13.1384,13.1679,13.1679,13.1679,13.1679,13.1679,13.1679,13.1679,13.1679,13.1679,13.1679,13.1679,13.1679,13.1679,13.1679,13.1679,13.1679,13.1679,13.1679,13.1679,13.1679,13.1679,13.1679,13.1679,13.1679,13.1679,13.1679,13.1679,13.1679,13.1679,13.1679,13.1679,13.1679,13.1679,13.1679,13.1679,13.1679,13.1679,13.1679,13.1679,13.1809,13.21,13.2101,13.2215,13.2503,13.1804,13.0094,12.7491,12.6718,12.4995,12.2428,12.2516,12.2501,12.2501,12.2501,12.2516,8.986,9.0668,9.1147,9.1147,9.0638,8.9781,8.8362,8.7878,8.7168,8.547,8.5413,8.5428,8.4694,8.7055,9.0406,9.4494,9.8618,10.3451,10.9847,11.2086,11.397,11.6609,11.759,11.8503,11.9687,12.0093,12.0803,12.1886,12.2326,12.2393,12.2021,12.3002,12.3408,12.3002,12.2292,12.1785,12.1412,12.2698,12.3967,12.4794,12.5677,12.6624,12.7482,12.6711,12.6087,12.5684,12.5684,12.5684,12.5673,12.6243,12.7084,12.808,12.9181,13.0177,13.1006,13.15,13.1679,13.1679,13.1679,13.1679,13.1679,13.1679,13.1679,13.1679,13.1679,13.1679,13.1679,13.1679,13.1679,13.1679,13.1679,13.1679,13.1679,13.1679,13.1679,13.1679,13.1679,13.1679,13.1679,13.1679,13.1679,13.1679,13.1679,13.1679,13.1679,13.1679,13.1679,13.1679,13.1679,13.1679,13.1679,13.1679,13.1679,13.179,13.1923,13.1961,13.21,13.2411,13.2489,13.2503,13.2696,13.1879,13.0478,12.8299,12.7208,12.5607,12.3424,12.3217,12.3019,12.3019,12.3019,12.2892,9.0758,9.1297,9.1416,9.1416,9.0309,8.8631,8.5956,8.4828,8.3953,8.2611,8.2961,8.3783,8.4445,8.6557,8.9306,9.2786,9.5916,10.0461,10.7912,11.0188,11.2764,11.6676,11.8503,11.9789,12.0668,12.1412,12.2224,12.3172,12.378,12.4017,12.3814,12.3814,12.3611,12.3002,12.2698,12.219,12.1615,12.3405,12.4622,12.5396,12.6461,12.7423,12.8106,12.7078,12.6308,12.5684,12.5684,12.5684,12.5673,12.6341,12.7437,12.8813,12.9271,13.0393,13.1679,13.1679,13.1679,13.1679,13.1679,13.1679,13.1679,13.1679,13.1679,13.1679,13.1679,13.1679,13.1679,13.1679,13.1679,13.1679,13.1679,13.1679,13.1679,13.1679,13.1679,13.1679,13.1679,13.1679,13.1679,13.1679,13.1679,13.1679,13.1679,13.1679,13.1679,13.1679,13.1679,13.1679,13.1679,13.1828,13.18,13.18,13.18,13.1917,13.218,13.2329,13.2489,13.2769,13.2987,13.2992,13.2878,13.2509,13.13,12.9391,12.8107,12.6485,12.4689,12.4094,12.3711,12.3515,12.3515,12.3388,8.9468,9.0279,9.0728,9.0728,8.9292,8.7482,8.5736,8.4476,8.3395,8.2638,8.2961,8.3783,8.4445,8.4813,8.6644,9.182,9.346,9.7387,10.6876,10.9493,11.2436,11.7467,11.9315,12.0803,12.219,12.3002,12.4017,12.5506,12.5709,12.5404,12.4626,12.4592,12.4592,12.4491,12.3205,12.2495,12.2393,12.4287,12.5339,12.536,12.7203,12.8004,12.7996,12.6491,12.5794,12.5684,12.5684,12.5684,12.5808,12.7717,12.8513,12.8925,13.0682,13.159,13.1679,13.1679,13.1679,13.1679,13.1679,13.1679,13.1679,13.1679,13.1679,13.1679,13.1679,13.1679,13.1679,13.1679,13.1679,13.1679,13.1679,13.1679,13.1679,13.1679,13.1679,13.1679,13.1679,13.1679,13.1679,13.1679,13.1679,13.1679,13.1679,13.1679,13.1679,13.1679,13.1679,13.1679,13.1679,13.2005,13.218,13.218,13.218,13.2219,13.2218,13.2481,13.2792,13.3113,13.3908,13.4098,13.3706,13.4291,13.351,13.101,13.0116,12.8397,12.5819,12.5117,12.4297,12.3515,12.3515,12.3515,9.0098,9.1027,9.1327,9.1716,8.956,8.7055,8.6213,8.4276,8.2719,8.301,8.3314,8.3783,8.4445,8.5002,8.6203,8.8686,9.0105,9.322,9.9855,10.2764,10.6757,11.3356,11.6494,11.9383,12.219,12.3577,12.4525,12.51,12.5201,12.4829,12.4119,12.4491,12.4491,12.4085,12.351,12.3243,12.3412,12.5141,12.6399,12.6955,12.8223,12.8583,12.8106,12.6895,12.6197,12.5684,12.5684,12.6028,12.6725,12.808,12.9108,12.9695,13.1233,13.1679,13.1679,13.1679,13.1679,13.1679,13.1679,13.1679,13.1679,13.1679,13.1679,13.1679,13.1679,13.1679,13.1679,13.1679,13.1679,13.1679,13.1679,13.1679,13.1679,13.1679,13.1679,13.1679,13.1679,13.1679,13.1679,13.1679,13.1679,13.1679,13.1679,13.1679,13.1679,13.1679,13.1679,13.179,13.2005,13.2101,13.229,13.2481,13.2512,13.26,13.2808,13.2898,13.3205,13.349,13.4315,13.448,13.3789,13.4609,13.3789,13.1211,13.0312,12.8593,12.6015,12.5195,12.4414,12.3515,12.3515,12.3515,8.9219,9.0894,9.1716,9.2194,8.9645,8.6856,8.6591,8.4084,8.2233,8.3256,8.3489,8.3783,8.4445,8.5074,8.568,8.6465,8.7887,9.0493,9.5277,9.8249,10.2539,10.9054,11.2641,11.6213,12.0205,12.3293,12.4998,12.4694,12.4897,12.4626,12.3713,12.4119,12.4017,12.3307,12.3104,12.324,12.4043,12.5402,12.6845,12.7971,12.8946,12.8914,12.8106,12.7299,12.6491,12.5684,12.5684,12.6315,12.7311,12.8277,12.9322,13.0299,13.1303,13.1679,13.1679,13.1679,13.1679,13.1679,13.1679,13.1679,13.1679,13.1679,13.1679,13.1679,13.1679,13.1679,13.1679,13.1679,13.1679,13.1679,13.1679,13.1679,13.1679,13.1679,13.1679,13.1679,13.1679,13.1679,13.1679,13.1679,13.1679,13.1679,13.1679,13.191,13.2102,13.2102,13.2102,13.2194,13.2489,13.2368,13.2481,13.2815,13.2996,13.3106,13.3193,13.3512,13.3913,13.4101,13.5195,13.5312,13.4218,13.4883,13.4218,13.1601,13.0703,12.8984,12.6406,12.5586,12.4609,12.3515,12.3515,12.3515,8.6301,8.9409,9.1626,9.1626,8.9311,8.6856,8.6591,8.4084,8.2233,8.3256,8.3489,8.3783,8.4445,8.461,8.4895,8.568,8.7108,8.993,9.5136,9.7953,10.1143,10.5452,10.807,11.1152,11.5515,12.1937,12.5607,12.4795,12.5404,12.5201,12.3713,12.3611,12.3307,12.2495,12.1785,12.2251,12.4043,12.4875,12.6346,12.7971,12.8946,12.8914,12.8106,12.7299,12.6491,12.5684,12.5684,12.6315,12.7311,12.8277,12.9322,13.0299,13.1303,13.1679,13.1679,13.1679,13.1679,13.1679,13.1679,13.1679,13.1679,13.1679,13.1679,13.1679,13.1679,13.1679,13.1679,13.1679,13.1679,13.1679,13.1679,13.1679,13.1679,13.1679,13.1679,13.1679,13.1679,13.1679,13.1679,13.1679,13.1679,13.1679,13.1679,13.241,13.2987,13.2987,13.2987,13.3119,13.338,13.3017,13.2815,13.3205,13.3612,13.3582,13.3205,13.4315,13.5,13.5,13.6601,13.6797,13.5117,13.5781,13.5117,13.25,13.1601,12.9883,12.7304,12.6406,12.5117,12.3515,12.3515,12.3515,8.2482,8.4689,8.596,8.5532,8.4463,8.3451,8.3509,8.2785,8.2458,8.3332,8.3869,8.4326,8.4527,8.5466,8.643,8.7251,8.9142,9.1087,9.2681,9.7077,10.1595,10.5521,11.3253,11.9276,12.1699,12.3801,12.4998,12.4694,12.4491,12.3916,12.2901,12.1886,12.148,12.1717,12.1514,12.2545,12.4875,12.5316,12.6763,12.9713,12.8891,12.829,12.807,12.6675,12.5904,12.5684,12.5684,12.6708,12.8202,12.8588,12.9666,13.1287,13.1577,13.1679,13.1679,13.1679,13.1679,13.1679,13.1679,13.1679,13.1679,13.1679,13.1679,13.1679,13.1679,13.1679,13.1679,13.1679,13.1679,13.1679,13.1679,13.1679,13.1679,13.1679,13.1679,13.1679,13.1679,13.1679,13.1679,13.1679,13.1679,13.1679,13.1679,13.241,13.3099,13.3328,13.3293,13.3494,13.41,13.3482,13.3414,13.4315,13.4489,13.4608,13.4402,13.4803,13.5312,13.5898,13.6992,13.6797,13.5117,13.5781,13.4804,13.1718,13.0781,12.8984,12.6406,12.5586,12.4609,12.3515,12.3515,12.3515,7.966,8.1943,8.3116,8.2961,8.2425,8.1945,8.2297,8.2377,8.26,8.3314,8.4074,8.461,8.461,8.5395,8.6216,8.6715,8.85,9.0232,9.1367,9.5985,10.0934,10.5903,11.4522,12.0442,12.1631,12.353,12.4694,12.4694,12.4017,12.3307,12.2495,12.1074,12.0632,12.1479,12.1172,12.2587,12.5882,12.5846,12.7163,12.9611,12.8914,12.8216,12.7592,12.6601,12.5977,12.5684,12.5684,12.6779,0.0,12.8702,12.9903,13.1679,13.1679,13.1679,13.1679,13.1679,13.1679,13.1679,13.1679,13.1679,13.1679,13.1679,13.1679,13.1679,13.1679,13.1679,13.1679,13.1679,13.1679,13.1679,13.1679,13.1679,13.1679,13.1679,13.1679,13.1679,13.1679,13.1679,13.1679,13.1679,13.1679,13.1702,13.1903,13.2913,13.3787,13.4103,13.452,13.4923,13.5376,13.4715,13.4498,13.539,13.5508,13.5586,13.6015,13.6015,13.6211,13.6797,13.7304,13.6992,13.5508,13.5703,13.4414,13.1289,13.0312,12.8593,12.6015,12.4883,12.3984,12.3515,12.3515,12.3515,0.0,8.026,8.2088,8.2784,8.2238,8.1674,8.2544,8.2479,0.0,8.3314,8.4109,8.4717,8.4717,8.4753,8.4788,8.486,8.6144,8.824,9.1115,9.5216,10.0365,10.6978,11.28,11.654,11.7262,12.1748,12.4592,12.4592,12.3916,12.3104,12.2495,12.1091,12.0728,12.1859,12.1128,12.2544,12.6744,12.6744,12.7241,12.8106,12.8804,12.8326,12.6895,12.6822,12.6381,12.5684,12.5684,12.6779,12.8702,12.8702,12.9903,13.1679,13.1679,13.1679,13.1679,13.1679,13.1679,13.1679,13.1679,13.1679,13.1679,13.1679,13.1679,13.1679,13.1679,13.1679,13.1679,13.1679,13.1679,13.1679,13.1679,13.1679,13.1679,13.1679,13.1679,13.1679,13.1679,13.1679,13.1679,13.1691,13.1691,13.1818,13.218,13.3727,13.4879,13.5303,13.6093,13.6793,13.7096,13.6418,13.6,13.6406,13.6406,13.6797,13.7695,13.7695,13.7695,13.7812,13.7695,13.7187,13.6406,13.5508,13.3789,13.1211,13.0195,12.8398,12.6015,12.4414,12.3593,12.3593,12.3593,12.3593,7.3508,0.0,7.5745,7.5781,7.6736,7.7932,0.0,8.0941,8.2418,8.2565,8.4157,8.5538,8.5538,8.5966,8.6573,8.7179,8.8607,9.0517,9.2938,10.0848,10.8081,11.2628,11.7275,11.9776,11.8866,12.1408,12.3273,12.3814,12.2698,12.1818,12.1683,12.085,12.1408,12.3553,12.2895,12.3561,12.5842,12.5842,12.666,12.8106,12.7702,12.7299,12.6895,12.6271,12.5867,12.5684,12.5684,12.6779,12.8702,12.8702,12.9903,13.1679,13.1679,13.1679,13.1679,13.1679,13.1679,13.1679,13.1679,13.1679,13.1679,13.1679,13.1679,13.1679,13.1679,13.1679,13.1679,13.1679,13.1679,13.1679,13.1679,13.1679,13.1679,13.1679,13.1679,13.1679,13.1679,13.1679,13.179,13.1976,13.2098,13.2218,13.2503,13.4,13.5303,13.5602,13.6414,13.7096,13.741,13.671,13.6481,13.7187,13.7304,13.789,13.9492,13.8398,13.8203,13.9492,13.8281,13.75,13.7304,13.5781,13.3789,13.1211,12.8398,12.6601,12.6015,12.5,12.4492,12.4492,12.4492,12.4492,7.1796,7.2767,7.376,7.4228,7.5312,7.6764,7.8415,8.0126,8.1633,8.2257,8.3666,8.4882,8.5169,8.5891,8.6466,8.6952,8.9199,9.2427,9.6765,10.3357,10.9492,11.3973,11.7418,11.9719,12.0264,12.1581,12.2698,12.3104,12.2021,12.1665,12.1934,12.1164,12.1752,12.4185,12.3585,12.4118,12.6114,12.6114,12.643,12.7005,12.6895,12.6711,12.6308,12.5904,12.5684,12.5647,12.622,12.7311,12.8664,12.9213,13.0261,13.1679,13.1679,13.1679,13.1679,13.1679,13.1679,13.1679,13.1679,13.1679,13.1679,13.1679,13.1679,13.1679,13.1679,13.1679,13.1679,13.1679,13.1679,13.1679,13.1679,13.1679,13.1679,13.1679,13.1809,13.1878,13.1878,13.2095,13.2179,13.2424,13.2379,13.2503,13.2897,13.4379,13.5602,13.6,13.7109,13.7986,13.8202,13.7812,13.7695,13.8086,13.8593,13.9218,14.0117,13.9687,13.9609,14.0195,13.8593,13.7382,13.6992,13.539,13.3203,13.0703,12.8008,12.6406,12.6015,12.5586,12.539,12.539,12.539,12.539,7.1699,7.2757,7.4095,7.5037,7.5905,7.6926,7.8916,7.9833,8.0725,8.2095,8.3031,8.398,8.4966,8.5655,8.6188,8.6603,9.009,9.5083,10.1521,10.5385,10.9058,11.3322,11.6061,11.8545,12.0598,12.1667,12.231,12.2548,12.1903,12.1729,12.2865,12.1678,12.2096,12.425,12.3827,12.4622,12.6711,12.6711,12.6381,12.5684,12.6381,12.6381,12.5684,12.5684,12.5684,12.571,12.6505,12.7439,12.8626,12.937,13.0488,13.1487,13.1679,13.1679,13.1679,13.1679,13.1679,13.1679,13.1679,13.1679,13.1679,13.1679,13.1679,13.1679,13.1679,13.1679,13.1679,13.1828,13.1702,13.173,13.1828,13.179,13.18,13.1818,13.2098,13.229,13.229,13.2512,13.2721,13.2808,13.2808,13.2897,13.3401,13.479,13.6,13.6405,13.789,13.8906,13.8906,13.8906,13.8906,13.8906,13.9609,14.0117,14.039,14.1015,14.1015,14.039,13.8593,13.7109,13.6015,13.4297,13.2383,13.0117,12.8281,12.6992,12.6406,12.6289,12.6211,12.6211,12.6289,12.6406,7.2897,7.4012,7.4843,7.4636,7.5872,7.7628,7.9016,8.0206,8.1345,8.2199,8.3576,8.5076,8.714,8.7621,8.8366,9.0304,9.5366,10.0713,10.5458,11.0255,11.349,11.3803,11.737,11.922,11.7971,11.9458,12.1251,12.2539,12.1957,12.1996,12.2849,12.3422,12.3901,12.4286,12.5016,12.5483,12.5904,12.5904,12.5794,12.5684,12.5794,12.5794,12.5684,12.5684,12.5684,12.5684,12.5073,12.5918,12.7608,12.7756,12.9004,13.0794,13.141,13.1679,13.1679,13.1679,13.1679,13.1679,13.1679,13.1679,13.1679,13.1679,13.1679,13.1679,13.1679,13.1679,13.1779,13.2018,13.1917,13.1828,13.2018,13.2101,13.2218,13.2481,13.26,13.2617,13.2617,13.2709,13.2808,13.3122,13.3113,13.3479,13.4484,13.5583,13.6483,13.7304,13.8281,13.8906,13.8906,13.8906,13.8906,13.8906,13.8984,13.9687,14.1211,14.0703,14.0703,14.1289,13.8984,13.6601,13.4297,13.25,13.1406,13.1015,12.8593,12.7617,12.8203,12.75,12.7109,12.7109,12.789,12.8203,7.2703,7.3637,7.4333,7.4718,7.6152,7.764,7.8144,7.9471,8.0746,8.1542,8.2963,8.5014,8.8064,8.9647,9.225,9.7789,10.0944,10.3951,10.7184,11.0133,11.2396,11.3632,11.5951,11.7745,11.8834,11.9411,12.0332,12.1962,12.1756,12.2179,12.3626,12.4088,12.4516,12.4983,12.5528,12.55,12.5096,12.55,12.5684,12.5684,12.5684,12.5684,12.5684,12.5684,12.5463,12.5122,12.5777,12.6294,12.6814,12.8,12.9208,13.0487,13.091,13.1295,13.1679,13.1679,13.1679,13.1679,13.1679,13.1679,13.1679,13.1679,13.1679,13.1679,13.1679,13.1679,13.179,13.21,13.21,13.2018,13.2391,13.252,13.2473,13.2709,13.2798,13.3014,13.3014,13.3113,13.3306,13.3484,13.349,13.3695,13.4296,13.5,13.5898,13.6797,13.7617,13.8398,13.8789,13.8906,13.9101,13.9609,14.0,14.0781,14.2109,14.1797,14.1015,13.9492,13.7812,13.6015,13.3906,13.2109,13.1211,13.1211,12.9101,12.8203,12.8593,12.8203,12.8203,12.8711,12.9101,12.9609,7.2573,7.3274,7.3899,7.4828,7.6291,7.762,7.8263,7.9515,8.1071,8.2696,8.3943,8.5664,8.8995,9.1949,9.5959,10.2757,10.5458,10.7437,10.9425,11.0841,11.2417,11.4554,11.5545,11.7037,11.9567,11.9831,12.031,12.1577,12.2011,12.2934,12.4516,12.459,12.4877,12.5427,12.539,12.4986,12.4215,12.4803,12.5206,12.539,12.5573,12.5573,12.539,12.539,12.511,12.4649,12.5905,12.6439,12.6378,12.8098,12.9373,13.0217,13.0602,13.1179,13.1679,13.1679,13.1602,13.141,13.1602,13.1602,13.1487,13.1602,13.1679,13.1679,13.1679,13.1779,13.191,13.2217,13.2391,13.2512,13.2784,13.2815,13.2798,13.2898,13.3191,13.3288,13.3288,13.3617,13.3789,13.3789,13.3789,13.3906,13.4297,13.4883,13.5703,13.6718,13.75,13.8086,13.8789,13.9101,13.9492,14.0117,14.1015,14.1718,14.2187,14.2382,14.1015,13.75,13.6718,13.5508,13.3906,13.2304,13.1484,13.1484,12.9804,12.8984,12.9218,12.8789,12.9218,13.0195,13.0,13.0508,7.3318,7.3788,7.432,7.4966,7.6377,7.8134,8.0682,8.1935,8.3794,8.7977,8.8463,8.87,9.0815,9.477,9.8618,10.1348,10.7565,11.2539,11.4053,11.6078,11.7568,11.7839,11.8449,11.8638,11.83,12.0214,12.1643,12.1905,12.3352,12.4516,12.5519,12.562,12.529,12.4582,12.4582,12.4215,12.3408,12.3408,12.3812,12.4582,12.528,12.528,12.4582,12.4582,12.4633,12.4704,12.3983,12.4782,12.6489,12.7399,12.8404,12.941,13.0987,13.1602,13.1679,13.1679,13.1179,13.0679,13.141,13.1179,13.0679,13.1487,13.1679,13.1679,13.1679,13.1917,13.2178,13.26,13.2917,13.3113,13.3205,13.3219,13.3295,13.3582,13.3709,13.3788,13.3788,13.3788,13.3789,13.3789,13.3789,13.4297,13.5898,13.6211,13.6797,13.8515,13.8789,13.8789,13.8906,13.9609,14.0117,14.0195,14.1015,14.1211,14.0507,14.1093,14.0117,13.6601,13.6289,13.5508,13.3906,13.289,13.2383,13.2383,13.0703,13.0195,13.1015,12.9414,12.9492,13.1093,13.0312,13.0781,7.2832,7.3451,7.4204,7.4458,7.5892,7.768,7.9662,8.1836,8.4024,8.6144,8.8933,9.1901,9.4336,9.9568,10.3884,10.4723,10.9635,11.3821,11.5154,11.6507,11.7387,11.7387,11.759,11.8201,11.9459,12.0026,12.1157,12.3173,12.4059,12.4446,12.4887,12.4986,12.4582,12.3812,12.3812,12.3408,12.26,12.3114,12.3188,12.3004,12.3812,12.4289,12.4509,12.3995,12.3784,12.3983,12.4352,12.4918,12.572,12.668,12.7579,12.8602,13.0294,13.0987,13.0987,13.0987,13.0794,13.0487,13.0794,13.1102,13.1295,13.1602,13.1818,13.1971,13.1971,13.2215,13.26,13.2898,13.3098,13.3295,13.3484,13.3612,13.3582,13.3788,13.3789,13.3789,13.3789,13.3789,13.3789,13.3789,13.3789,13.4218,13.5312,13.5508,13.6093,13.7812,13.8086,13.8515,13.9609,14.0,14.0586,14.1718,14.2617,14.25,14.1093,14.1289,14.0,13.6484,13.6289,13.5508,13.3906,13.3008,13.25,13.25,13.1289,13.0898,13.1211,13.0508,13.0586,13.1211,13.0898,13.1093,7.2658,7.3036,7.3644,7.4368,7.5823,7.7733,8.0295,8.2589,8.5168,8.8593,9.1912,9.4973,9.7287,10.1489,10.5156,10.6449,11.0732,11.4477,11.5932,11.6609,11.6913,11.6913,11.743,11.8255,11.9714,12.044,12.182,12.3776,12.4154,12.4401,12.4546,12.4289,12.3812,12.2894,12.271,12.2086,12.1279,12.1609,12.1609,12.1279,12.1609,12.2307,12.3408,12.3077,12.2972,12.3218,12.4218,12.5212,12.6109,12.6786,12.7602,12.8486,13.0217,13.0602,13.0102,13.041,13.0217,12.9794,13.0294,13.0679,13.0998,13.1693,13.2014,13.2217,13.2284,13.259,13.2878,13.3074,13.3306,13.3509,13.3709,13.3789,13.3789,13.3789,13.3789,13.3789,13.3789,13.3789,13.3789,13.3789,13.3789,13.4101,13.5195,13.539,13.6015,13.7695,13.8007,13.8515,14.0,14.039,14.1289,14.3007,14.3906,14.3711,14.2109,14.1718,14.0195,13.7304,13.6601,13.5508,13.3906,13.3203,13.289,13.289,13.2109,13.1718,13.1992,13.1484,13.1289,13.1601,13.1015,13.0898,7.2902,7.2616,7.2705,7.5151,7.6398,7.8376,8.3051,8.4864,8.8016,9.6965,9.8388,9.8289,9.9042,9.983,10.1455,10.5344,11.08,11.5188,11.671,11.6913,11.6913,11.6913,11.8434,11.9122,11.8395,12.192,12.4038,12.328,12.4058,12.4509,12.4509,12.3701,12.2894,12.2086,12.1279,12.0508,11.959,11.8783,11.8783,11.959,11.8783,11.9297,12.0912,12.1683,12.2213,12.2552,12.3382,12.5386,12.7909,12.7909,12.8409,12.941,13.0987,13.0679,12.9294,13.0217,12.941,12.8102,12.991,12.991,12.9469,13.152,13.2179,13.229,13.259,13.2918,13.3193,13.3193,13.3484,13.3789,13.3789,13.3789,13.3789,13.3789,13.3789,13.3789,13.3789,13.3789,13.3789,13.3789,13.3789,13.4297,13.6015,13.6289,13.6914,13.8593,13.8906,13.9218,14.0117,14.1015,14.2187,14.3789,14.4804,14.4609,14.289,14.1992,14.0781,13.8984,13.7304,13.5586,13.3906,13.3789,13.3789,13.3789,13.3008,13.289,13.3789,13.2109,13.1718,13.2383,13.0703,13.039,7.2755,7.3283,7.4174,7.5068,7.7368,8.0217,8.3404,8.5532,8.9221,9.8475,10.123,10.1859,10.1626,10.3847,10.57,10.5868,10.9916,11.3801,11.5831,11.6135,11.6135,11.6135,11.7644,11.8859,11.9216,12.1233,12.2852,12.3182,12.3027,12.26,12.2013,12.1205,12.0288,11.948,11.9297,11.9003,11.8783,11.8489,11.8489,11.8783,11.8489,11.9297,12.0875,12.057,12.1548,12.3416,12.3694,12.5096,12.7101,12.7101,12.7909,12.9217,12.9102,12.9102,12.9217,12.8794,12.8294,12.8025,12.8486,12.9504,13.059,13.1212,13.2115,13.2898,13.3011,13.3306,13.3582,13.3582,13.3708,13.3789,13.3789,13.3789,13.3789,13.3789,13.3789,13.3789,13.3789,13.3789,13.3789,13.3789,13.4297,13.5,13.6093,13.6797,13.7617,13.8711,13.8906,13.9414,14.0898,14.2382,14.3398,14.3906,14.4218,14.3984,14.289,14.2617,14.1406,13.8984,13.7812,13.6406,13.4687,13.4101,13.3789,13.3789,13.3515,13.3515,13.3789,13.3281,13.25,13.1601,13.1093,13.0312,7.2902,7.3791,7.5091,7.6577,7.9035,8.204,8.5455,8.9422,9.3955,9.9624,10.2733,10.4392,10.4299,10.5744,10.7204,10.7533,11.0051,11.2685,11.4714,11.4917,11.4917,11.4917,11.6852,11.8507,11.9114,12.0928,12.2283,12.2759,12.1793,12.0875,12.0398,11.959,11.8893,11.8416,11.8122,11.7902,11.7902,11.7608,11.7388,11.7498,11.7773,11.8707,11.9999,11.9922,12.0906,12.3021,12.4406,12.5709,12.6794,12.7409,12.8102,12.8717,12.8486,12.8525,12.8602,12.8102,12.7717,12.7496,12.8309,12.9386,13.0588,13.1609,13.2312,13.2815,13.3297,13.3387,13.3398,13.3711,13.3789,13.3789,13.3789,13.3515,13.3398,13.3711,13.3789,13.3789,13.3789,13.3789,13.3789,13.3789,13.4414,13.5312,13.6093,13.6992,13.789,13.8789,13.9492,14.039,14.1797,14.3515,14.4414,14.3984,14.4297,14.4218,14.3281,14.3007,14.1992,14.0117,13.8515,13.6992,13.5586,13.4414,13.3789,13.3789,13.3789,13.3789,13.3789,13.3789,13.3086,13.1718,13.1718,13.1015,7.3231,7.4281,7.5795,7.9182,8.1438,8.4001,8.8796,9.4927,9.9802,10.057,10.3447,10.6258,10.7103,10.6697,10.7204,11.0012,11.0993,11.1974,11.3293,11.3598,11.3598,11.3496,11.6353,11.828,11.8209,12.0389,12.1793,12.1793,12.0288,11.9407,11.9407,11.8599,11.8195,11.8195,11.7498,11.7094,11.7021,11.6287,11.6048,11.5992,11.6894,11.7768,11.8674,11.9495,12.0488,12.1829,12.5122,12.6486,12.6601,12.8294,12.8486,12.7909,12.8717,12.8486,12.7909,12.7804,12.7391,12.7023,12.8967,12.9694,13.0212,13.2409,13.2698,13.238,13.351,13.3203,13.2695,13.3593,13.3711,13.3711,13.3789,13.3203,13.2812,13.3593,13.3711,13.3711,13.3789,13.3789,13.3789,13.3789,13.4414,13.5312,13.6093,13.6992,13.789,13.8789,14.0312,14.1718,14.2617,14.4101,14.4804,14.4101,14.4687,14.4882,14.4101,14.3281,14.25,14.1601,13.9101,13.7304,13.6289,13.4687,13.3789,13.3789,13.3789,13.3789,13.3789,13.3789,13.3398,13.25,13.25,13.1992,7.4501,7.565,7.7466,8.0893,8.4548,8.8176,9.1207,9.4382,9.7405,10.0384,10.4111,10.7446,10.9194,10.9911,11.0384,11.1095,11.1771,11.238,11.2685,11.3192,11.3395,11.2786,11.5458,11.7253,11.6651,11.8687,11.9884,11.9187,11.8306,11.7718,11.7718,11.6984,11.6507,11.6507,11.6287,11.5993,11.5296,11.581,11.6078,11.6207,11.6259,11.723,11.8901,11.9698,12.0969,12.2715,12.4822,12.5293,12.4793,12.6486,12.7101,12.6986,12.7178,12.7486,12.7804,12.7413,12.7226,12.7225,12.8597,12.9693,13.071,13.1892,13.2798,13.351,13.371,13.3203,13.2695,13.3593,13.3281,13.289,13.3593,13.3711,13.3593,13.3789,13.3281,13.3008,13.3711,13.3789,13.3789,13.3789,13.4414,13.5312,13.6093,13.6992,13.789,13.8789,13.9804,14.0781,14.1718,14.2695,14.3515,14.3984,14.4218,14.4218,14.3984,14.3789,14.3086,14.1601,13.9687,13.789,13.6406,13.4687,13.3789,13.3789,13.3789,13.3789,13.3789,13.3789,13.3398,13.25,13.25,13.1902,7.4429,7.6825,7.982,8.388,8.7185,9.007,9.1746,9.3123,9.5585,10.0011,10.404,10.7278,10.8958,11.0114,11.079,11.0384,11.0689,11.0892,11.0892,11.1264,11.1365,11.0959,11.3742,11.5448,11.5058,11.7093,11.8306,11.7902,11.7094,11.6507,11.6103,11.5699,11.5185,11.4892,11.4892,11.4795,11.4804,11.5284,11.5724,11.6294,11.6727,11.756,11.8983,11.9916,12.1182,12.2908,12.3793,12.4409,12.4793,12.5293,12.5909,12.6678,12.6178,12.6601,12.7304,12.701,12.7303,12.7875,12.909,13.0014,13.0903,13.2415,13.2684,13.2695,13.3515,13.3203,13.2617,13.3008,13.289,13.25,13.25,13.2617,13.2695,13.3086,13.3086,13.3203,13.3711,13.3789,13.3789,13.3789,13.4414,13.5117,13.5586,13.6718,13.8007,13.9297,14.0312,14.1093,14.1992,14.3203,14.3984,14.3984,14.4414,14.4492,14.3984,14.3984,14.3281,14.1601,14.0312,13.8593,13.6406,13.5117,13.4218,13.3789,13.3789,13.3789,13.3789,13.3582,13.3288,13.2781,13.2692,13.2294,7.4036,7.7732,8.2279,8.6501,8.9112,9.0818,9.1476,9.2045,9.4016,9.9383,10.3186,10.6013,10.7875,10.9234,10.9911,10.9268,10.9166,10.9166,10.8997,10.9099,10.9099,10.8997,11.1758,11.3536,11.343,11.5391,11.6727,11.6617,11.5993,11.5296,11.4598,11.4598,11.4305,11.357,11.357,11.3954,11.4665,11.4776,11.5395,11.6301,11.7325,11.8102,11.8908,11.96,12.0793,12.2485,12.2601,12.3485,12.4716,12.4293,12.4909,12.6178,12.5601,12.6005,12.6791,12.6806,12.7497,12.8497,12.9693,13.0313,13.0915,13.2887,13.2617,13.1718,13.3281,13.3086,13.2304,13.25,13.2304,13.1914,13.1289,13.1289,13.1601,13.2304,13.3203,13.3789,13.3789,13.3789,13.3789,13.3789,13.4414,13.5,13.5195,13.6484,13.8086,13.9687,14.0586,14.1406,14.2382,14.3789,14.4492,14.3984,14.4609,14.4804,14.4101,14.3906,14.3085,14.1481,14.0387,13.8783,13.6195,13.5296,13.4398,13.3617,13.3703,13.3703,13.3617,13.3295,13.3113,13.3098,13.2776,13.2709,7.4455,7.9282,8.4116,8.6344,8.8753,9.0818,9.1476,9.1686,9.3166,9.8049,10.0844,10.3825,10.8276,10.92,10.9302,10.92,10.9166,10.8963,10.8287,10.8794,10.8896,10.8219,11.0834,11.2545,11.1758,11.3797,11.4818,11.4084,11.3974,11.3864,11.3791,11.3791,11.3681,11.357,11.357,11.3659,11.3924,11.4632,11.5389,11.6488,11.74,11.7892,11.8023,11.81,11.91,12.0716,12.1408,12.1908,12.2177,12.3485,12.4216,12.4486,12.5178,12.6079,12.7108,12.7402,12.7785,12.8315,12.95,12.9995,13.0311,13.2109,13.25,13.25,13.3515,13.2695,13.1484,13.2304,13.1406,13.039,13.1015,13.1797,13.2383,13.25,13.3203,13.3789,13.3789,13.3789,13.3789,13.3789,13.4414,13.5195,13.6015,13.6914,13.789,13.8906,13.9218,13.9804,14.1484,14.1914,14.25,14.3906,14.4101,14.4101,14.3984,14.3398,14.2413,14.1086,13.9513,13.7692,13.5485,13.4606,13.371,13.2893,13.3113,13.3113,13.2776,13.2792,13.2808,13.2808,13.2721,13.2494,7.5955,7.9687,8.3209,8.6367,8.8424,8.992,9.1297,9.1626,9.3136,9.8272,9.9706,10.1524,10.6388,10.7982,10.8388,10.7982,10.7881,10.761,10.69,10.7103,10.7539,10.7981,10.9594,11.1039,11.1911,11.3249,11.3974,11.357,11.357,11.3387,11.2983,11.291,11.2689,11.2286,11.2286,11.2781,11.3815,11.419,11.5081,11.648,11.6885,11.71,11.71,11.71,11.7984,11.9715,12.0485,12.11,12.1677,12.2408,12.2985,12.3485,12.4293,12.4811,12.5205,12.6726,12.7685,12.821,12.9284,13.0106,13.0781,13.2109,13.25,13.2617,13.3008,13.25,13.1797,13.1211,13.0508,12.9883,12.9804,13.0781,13.1797,13.1797,13.2812,13.3789,13.3789,13.3789,13.3789,13.3789,13.4101,13.4609,13.539,13.6289,13.7187,13.8007,13.9414,14.0586,14.1406,14.2695,14.3711,14.3984,14.428,14.4294,14.3786,14.278,14.1703,14.0693,13.9485,13.7979,13.6081,13.5186,13.4184,13.3194,13.3018,13.2798,13.2696,13.2473,13.2418,13.2418,13.1791,13.1402,7.5927,7.8777,8.1244,8.5029,8.7125,8.8747,9.0429,9.1117,9.2863,9.7954,9.865,9.9776,10.4371,10.6426,10.7306,10.6697,10.6595,10.6392,10.5614,10.5513,10.6103,10.7546,10.8627,10.9873,11.1673,11.2686,11.3203,11.2983,11.2983,11.2689,11.2102,11.2102,11.1808,11.1221,11.1373,11.2269,11.3911,11.4099,11.4867,11.6176,11.5984,11.5984,11.6176,11.6176,11.6984,11.8484,11.9485,12.0485,12.1293,12.1485,12.21,12.2985,12.3632,12.3783,12.3985,12.6013,12.7206,12.8017,12.8603,12.9589,13.0703,13.1601,13.1992,13.2187,13.2187,13.2187,13.1914,13.0312,12.9687,12.9414,12.8789,12.9883,13.1211,13.1211,13.25,13.3789,13.3789,13.3789,13.3789,13.3789,13.3789,13.4101,13.4883,13.5703,13.6601,13.75,13.9411,14.089,14.1319,14.2999,14.4089,14.3794,14.4209,14.4223,14.338,14.2303,14.1307,14.0297,13.9481,13.8176,13.6411,13.5518,13.4494,13.3413,13.2827,13.2411,13.2411,13.2218,13.2098,13.202,13.1,13.0487,7.2761,7.5744,7.8753,8.0969,8.4508,8.7581,8.8526,8.9801,9.1759,9.5986,9.7242,9.8901,10.296,10.4904,10.5919,10.5885,10.5885,10.5614,10.487,10.4769,10.532,10.6786,10.8347,10.9481,11.0196,11.1592,11.2102,11.1405,11.1295,11.1295,11.1295,11.1295,11.1221,11.1221,11.1983,11.2926,11.3911,11.4794,11.5324,11.5407,11.4484,11.4599,11.5407,11.5407,11.5792,11.6676,11.8407,11.96,12.0408,12.1293,12.21,12.2878,12.3204,12.401,12.5092,12.5485,12.6394,12.7304,12.7382,12.8007,12.8906,12.9804,13.0586,13.1289,13.1289,13.1289,13.1093,13.0195,12.9297,12.8711,12.8593,12.9883,13.1211,13.1211,13.25,13.3789,13.3789,13.3789,13.3789,13.3789,13.3789,13.4101,13.4883,13.5703,13.6601,13.75,13.8085,13.9099,14.0699,14.1011,14.1602,14.2892,14.3422,14.3419,14.31,14.2191,14.123,14.0004,13.9113,13.7705,13.5641,13.4782,13.3897,13.3,13.2203,13.1779,13.1779,13.1691,13.1691,13.1691,13.0871,13.0487,7.1776,7.3549,7.5567,7.9109,8.1616,8.3959,8.6335,8.8232,9.0798,9.5636,9.6762,9.8416,10.3363,10.4701,10.5073,10.5073,10.5073,10.4802,10.4092,10.399,10.4571,10.6147,10.7118,10.8272,11.0044,11.1081,11.1515,11.1221,11.1221,11.1221,11.1221,11.1221,11.1001,11.0414,11.1323,11.2206,11.3076,11.3529,11.3907,11.4484,11.3599,11.3907,11.5291,11.5291,11.5676,11.6599,11.8292,11.9292,11.96,12.0408,12.1403,12.2391,12.3084,12.3488,12.3886,12.509,12.6011,12.6484,12.7109,12.8203,12.9492,12.9804,13.0898,13.1797,13.0703,13.0781,13.0898,12.9492,12.8789,12.8593,12.8593,12.9883,13.1484,13.2617,13.3281,13.3789,13.3789,13.3789,13.3789,13.3789,13.3789,13.4101,13.4883,13.5703,13.6601,13.75,13.8514,13.9515,14.0101,14.0888,14.1601,14.2101,14.2495,14.269,14.2596,14.1588,14.0587,13.9626,13.8691,13.7706,13.6372,13.4988,13.4218,13.3795,13.241,13.1679,13.1679,13.1679,13.1679,13.1679,13.0294,12.9717,7.062,7.1647,7.332,7.72,7.8967,8.0625,8.4177,8.6153,8.896,9.4482,9.6044,9.7912,10.296,10.399,10.399,10.4295,10.4295,10.4092,10.3314,10.3212,10.4008,10.5994,10.6612,10.7772,11.0308,11.0919,11.1221,11.1221,11.1221,11.1221,11.1221,11.0891,11.0686,11.0471,11.1018,11.1765,11.2705,11.1876,11.1906,11.2714,11.1791,11.2291,11.3984,11.4599,11.5291,11.6176,11.76,11.86,11.9215,12.0292,12.13,12.2188,12.2821,12.3006,12.3203,12.4386,12.5215,12.5703,12.6289,12.7617,12.8984,12.8984,13.0195,13.1406,12.9883,13.0117,13.0508,12.8984,12.8593,12.8593,12.8593,12.9883,13.1601,13.3398,13.3789,13.3789,13.3789,13.3789,13.3789,13.3789,13.3789,13.3984,13.4492,13.5502,13.6312,13.6898,13.8083,13.9014,13.9286,14.0101,14.0787,14.1277,14.1709,14.2011,14.2223,14.1213,14.0219,13.9412,13.8488,13.768,13.6796,13.5218,13.4295,13.4295,13.2603,13.1679,13.1679,13.1679,13.1679,13.1679,12.9987,12.8909,0.0,0.0,0.0,7.4992,7.6207,7.7786,8.192,8.3868,8.6421,9.2255,9.457,9.6971,10.1581,10.2502,10.2705,10.3483,10.3585,10.3314,10.2603,10.2502,10.3632,10.6371,10.681,10.7871,11.0917,11.1221,11.1221,11.1221,11.1221,11.1221,11.1221,11.0414,11.0391,11.128,11.1291,11.171,11.2522,11.0021,10.9213,11.0098,10.9213,10.979,11.1598,11.3214,11.4484,11.5407,11.6176,11.7484,11.9222,12.08,12.1686,12.2102,12.2376,12.2687,12.3108,12.3391,12.4101,12.4804,12.4804,12.5898,12.7304,12.7304,12.8398,12.9687,12.8789,12.9218,12.9687,12.8789,12.8593,12.8593,12.8711,13.0,13.1718,13.3398,13.3789,13.3789,13.3788,13.3788,13.3788,13.3788,13.3788,13.3788,13.3788,13.4914,13.5795,13.5795,13.6623,13.7601,13.8415,13.8608,13.9097,14.0388,14.0819,14.1296,14.1774,14.0989,14.0219,13.9296,13.8488,13.768,13.6796,13.518,13.4295,13.4295,13.2603,13.1679,13.1679,13.1679,13.1679,13.1602,12.991,12.8294,6.8298,0.0,0.0,0.0,0.0,0.0,7.8441,8.0547,8.4013,9.0841,9.287,9.5359,10.1346,10.2502,10.2603,10.2806,10.2806,10.2705,10.2502,10.2502,10.3166,10.4959,10.6184,10.7522,10.9415,11.0572,11.1221,11.1221,11.1221,11.1221,11.1221,10.99,10.9501,11.0385,10.8703,10.8208,10.9098,10.7098,10.6597,10.7405,10.7213,10.8598,11.1522,11.2599,11.4214,11.6176,11.71,11.778,11.8487,11.8874,12.0087,12.1508,12.1791,12.2494,12.3391,12.3515,12.4101,12.4804,12.4804,12.5508,12.6406,12.6406,12.75,12.8711,12.7187,12.8203,12.9609,12.8086,12.8086,12.8906,13.0195,13.1289,13.2383,13.3515,13.3789,13.3708,13.3391,13.3414,13.3414,13.3414,13.3414,13.3502,13.3908,13.4281,13.4706,13.5291,13.5977,13.6517,13.6788,13.7612,13.8388,13.8811,13.9377,13.989,13.9989,13.9796,13.9296,13.8488,13.7603,13.6796,13.5911,13.4295,13.341,13.341,13.2295,13.1679,13.1679,13.1102,13.0794,13.0794,12.9102,12.7717,0.0,0.0,6.955,7.1684,0.0,0.0,7.6247,7.7919,8.0959,8.8117,9.015,9.2663,9.8556,10.0202,10.0709,10.1014,10.1589,10.213,10.2502,10.2198,10.2597,10.3951,10.5117,10.6564,10.8385,10.9878,11.0817,11.1221,11.0891,11.0414,10.9716,10.8782,10.8521,10.8991,10.701,10.6106,10.6597,10.4597,10.3982,10.4789,10.5213,10.7098,11.0521,11.2022,11.3907,11.5984,11.6907,11.7403,11.7695,11.781,11.9292,12.1479,12.1604,12.2419,12.3515,12.3515,12.3789,12.4297,12.4297,12.4804,12.5508,12.5508,12.6406,12.7304,12.6289,12.7304,12.8593,12.7617,12.789,12.8906,13.0312,13.1206,13.2011,13.2792,13.3188,13.3284,13.3011,13.2993,13.2993,13.2993,13.2993,13.3093,13.3407,13.3601,13.3988,13.4493,13.4968,13.5333,13.5333,13.6318,13.718,13.7488,13.8296,13.8911,13.9296,13.8719,13.8219,13.8104,13.6603,13.568,13.5488,13.391,13.2987,13.2987,13.2102,13.1487,13.1179,13.1102,13.0602,12.991,12.8525,12.7294,0.0,0.0,0.0,0.0,7.1687,0.0,7.5136,7.5847,7.7796,8.4438,8.6759,8.9186,9.426,9.6349,9.7469,9.8303,9.9673,10.1107,10.2198,10.1792,10.1882,10.324,10.3993,10.5422,10.7556,10.8966,11.0193,11.0891,11.0304,10.9202,10.7771,10.7616,10.7614,10.7509,10.5783,10.4788,10.4713,10.2212,10.152,10.2289,10.3289,10.5482,10.8906,11.1406,11.3599,11.5291,11.6176,11.671,11.7096,11.7284,11.9006,12.1407,12.1497,12.2191,12.3398,12.3398,12.3398,12.3515,12.3515,12.3984,12.4687,12.4687,12.5195,12.5781,12.5781,12.6406,12.7187,12.7187,12.789,12.8789,12.9491,13.0197,13.0878,13.1684,13.2314,13.2618,13.2605,13.2605,13.2578,13.259,13.2617,13.2578,13.259,13.3017,13.3302,13.3302,13.3839,13.4218,13.4218,13.4911,13.5795,13.6603,13.7411,13.8181,13.8796,13.7488,13.6911,13.7603,13.5488,13.4487,13.5218,13.368,13.2872,13.2872,13.2102,13.1295,13.0487,13.1102,13.0602,12.8909,12.8025,12.6794,0.0,0.0,0.0,0.0,0.0,0.0,7.3261,7.4464,7.6834,8.1383,8.2866,8.4911,9.0206,9.1898,9.2851,9.397,9.5212,9.7304,10.1107,10.1487,10.1678,10.2548,10.3712,10.5069,10.6799,10.8164,10.9092,10.9312,10.9092,10.8909,10.8578,10.7983,10.7319,10.6616,10.4285,10.2838,10.202,10.0212,9.9712,10.0596,10.2097,10.4597,10.7982,11.0598,11.2983,11.5291,11.6176,11.6825,11.7309,11.7419,11.8305,11.9701,11.9903,12.1014,12.25,12.25,12.289,12.3515,12.3515,12.3593,12.3789,12.3789,12.4297,12.4883,12.4218,12.5,12.6289,12.6289,12.7383,12.8592,12.8503,12.9587,13.0903,13.1494,13.1694,13.18,13.2202,13.2287,13.2217,13.1923,13.2101,13.2179,13.1923,13.201,13.2108,13.2108,13.2703,13.3295,13.3295,13.4603,13.5603,13.5719,13.6488,13.6796,13.6296,13.5911,13.5488,13.5103,13.391,13.3295,13.3487,13.2487,13.1987,13.1987,13.1795,13.1295,13.0487,12.9987,12.8794,12.7178,12.6294,12.5293,0.0,0.0,0.0,7.1799,0.0,0.0,0.0,7.3375,7.4818,7.8236,7.9074,8.0603,8.4865,8.6536,8.786,8.978,9.1437,9.345,9.6289,9.7521,9.8507,9.959,10.0785,10.2091,10.3187,10.5925,10.7587,10.7587,10.7587,10.711,10.5789,10.4993,10.428,10.3903,10.1788,10.0517,10.0096,9.9211,9.9019,9.9481,10.1981,10.4789,10.779,11.0791,11.3291,11.5413,11.6283,11.6993,11.7403,11.7585,11.8106,11.8805,11.9411,12.0703,12.2109,12.1718,12.2383,12.3398,12.3008,12.3086,12.3515,12.3515,12.3789,12.4101,12.3593,12.4414,12.5508,12.5898,12.6914,12.7888,12.749,12.8597,12.9819,12.99,13.05,13.1096,13.1315,13.1691,13.191,13.1691,13.1771,13.191,13.1691,13.1679,13.1679,13.1679,13.2102,13.241,13.241,13.3487,13.4295,13.4295,13.4988,13.5411,13.4911,13.4487,13.4295,13.4295,13.3103,13.2487,13.2987,13.2179,13.1679,13.1679,13.1679,13.1295,13.0487,12.9602,12.8294,12.6678,12.5794,12.4716,0.0,0.0,0.0,0.0,0.0,7.2153,0.0,0.0,0.0,7.5297,7.5773,7.6627,7.9393,8.0858,8.2447,8.4859,8.6908,8.8648,9.0107,9.1603,9.328,9.5584,9.7044,9.8228,9.9261,10.2812,10.5045,10.5385,10.5192,10.4272,10.2595,10.1817,10.1381,10.1189,9.9689,9.8742,9.8557,9.8557,9.8711,9.9096,10.2212,10.5097,10.779,11.1021,11.3407,11.5105,11.6402,11.7081,11.7386,11.7709,11.7992,11.8398,11.9101,12.0312,12.1601,12.0898,12.1601,12.289,12.2187,12.25,12.3203,12.3203,12.3398,12.3515,12.3515,12.3984,12.4687,12.5312,12.6092,12.6704,12.6507,12.7305,12.8112,12.8308,12.9094,12.991,13.0217,13.091,13.1487,13.1487,13.1602,13.1679,13.1679,13.1679,13.1679,13.1679,13.1679,13.1679,13.1679,13.2487,13.2987,13.2987,13.3795,13.4218,13.4103,13.341,13.318,13.3795,13.2487,13.1987,13.2679,13.2102,13.1679,13.1679,13.1679,13.1179,13.0217,12.941,12.8102,12.6409,12.5601,12.4293,0.0,0.0,0.0,0.0,7.3375,0.0,0.0,0.0,7.3215,7.2833,0.0,7.3865,7.4843,0.0,0.0,7.7914,7.9727,8.187,8.4355,8.4613,8.6358,9.1479,9.3497,9.5129,9.6689,9.8762,10.06,10.1978,10.0757,10.0455,10.1611,10.1508,10.1106,10.042,9.9326,9.8442,9.7673,9.7634,9.8404,9.9981,10.1904,10.4482,10.779,11.0406,11.2599,11.4214,11.5918,11.6895,11.7403,11.7408,11.7781,11.8281,11.8398,11.8984,11.9883,11.9804,12.039,12.1211,12.1093,12.1601,12.2304,12.2304,12.289,12.3515,12.3515,12.3593,12.3711,12.3789,12.4195,12.4712,12.5181,12.5208,12.5598,12.7493,12.7496,12.7486,12.8986,12.9987,13.0602,13.0602,13.1179,13.1679,13.1679,13.1679,13.1679,13.1679,13.1679,13.1679,13.1679,13.2487,13.2987,13.2987,13.3795,13.3987,13.318,13.3103,13.2679,13.1987,13.1795,13.1679,13.1795,13.1795,13.1679,13.1679,13.1679,13.091,12.9294,12.8486,12.7217,12.5486,12.4716,12.3293,0.0,0.0,0.0,0.0,0.0,0.0,0.0,0.0,7.2566,0.0,0.0,0.0,0.0,0.0,0.0,0.0,7.7126,7.8745,8.0561,8.1201,8.3538,8.885,9.0493,9.2587,9.6179,9.769,9.8688,9.937,9.8798,9.8319,9.8007,9.8439,9.8205,9.7365,9.7382,9.7434,9.7519,9.8019,9.9096,10.0789,10.352,10.579,10.779,11.0791,11.2599,11.3296,11.4886,11.6025,11.6707,11.7001,11.7589,11.8281,11.8281,11.8789,11.9492,11.8984,11.9687,12.0781,12.0312,12.0703,12.1406,12.1406,12.1992,12.2695,12.2695,12.2695,12.2811,12.3101,12.3713,12.4307,12.4099,12.4301,12.4904,12.6206,12.6601,12.7178,12.8794,12.9487,12.9987,13.0987,13.1102,13.1179,13.1602,13.1679,13.1679,13.1679,13.1679,13.1679,13.1679,13.1987,13.2179,13.2179,13.2603,13.2603,13.2295,13.2179,13.2102,13.1679,13.1679,13.1679,13.1679,13.1679,13.1679,13.1679,13.1179,13.041,12.9217,12.7909,12.6601,12.5409,12.3985,12.2793,6.995,0.0,0.0,0.0,0.0,0.0,0.0,0.0,0.0,0.0,0.0,0.0,0.0,0.0,7.1713,7.3399,0.0,7.613,7.7253,7.8405,8.0833,8.5621,8.7637,9.0056,9.3748,9.4957,9.5692,9.6142,9.6067,9.5589,9.4887,9.5721,9.5981,9.5291,9.6261,9.6986,9.748,9.8827,10.0212,10.1712,10.4905,10.7021,10.8098,11.1021,11.2522,11.2796,11.4181,11.5194,11.5889,11.6617,11.7302,11.8008,11.8203,11.8711,11.9218,11.8515,11.9101,12.0117,11.9492,11.9804,12.0586,12.0781,12.1289,12.1914,12.2109,12.2106,12.2208,12.2806,12.3293,12.3623,12.3403,12.3473,12.409,12.5081,12.5678,12.6486,12.8102,12.8717,12.9217,13.041,13.0602,13.0679,13.1295,13.1602,13.1679,13.1679,13.1679,13.1679,13.1679,13.1679,13.1679,13.1679,13.1679,13.1679,13.1679,13.1679,13.1679,13.1679,13.1679,13.1679,13.1679,13.1679,13.1679,13.1679,13.091,13.0102,12.9217,12.7486,12.6101,12.4986,12.3601,12.2601,0.0,0.0,0.0,0.0,0.0,0.0,0.0,0.0,7.1863,0.0,0.0,0.0,0.0,0.0,0.0,0.0,0.0,0.0,0.0,7.5196,7.7153,8.117,8.4954,8.7447,8.7946,8.8936,9.0201,9.1694,9.126,9.1609,9.3125,9.4573,9.542,9.5291,9.6793,9.756,9.7519,9.9981,10.1712,10.2597,10.5213,10.729,10.8906,11.0714,11.2022,11.2796,11.3887,11.461,11.5012,11.6194,11.6796,11.7109,11.8008,11.8281,11.8281,11.8281,11.8281,11.8398,11.8398,11.8906,11.9804,12.0586,12.0898,12.1093,12.1914,12.2007,12.1915,12.2812,12.2601,12.23,12.3117,12.2502,12.2301,12.4793,12.4793,12.4716,12.6409,12.7409,12.8025,12.8025,12.941,13.0487,13.0487,13.1179,13.1679,13.1679,13.1679,13.1679,13.1679,13.1679,13.1679,13.1679,13.1679,13.1679,13.1679,13.1679,13.1679,13.1679,13.1679,13.1679,13.1679,13.1679,13.1679,13.1679,13.091,13.0102,12.9217,12.7486,12.5794,12.4101,12.3293,12.2908,0.0,0.0,6.7334,6.9414,0.0,0.0,0.0,0.0,0.0,0.0,0.0,0.0,0.0,0.0,0.0,0.0,0.0,7.1725,0.0,7.4093,7.6118,7.8938,8.2974,8.5448,8.5144,8.6628,8.7545,8.7538,8.8488,8.9535,9.0592,9.3088,9.4782,9.5272,9.7341,9.8631,9.9211,10.0596,10.1712,10.2597,10.5213,10.6713,10.729,10.9021,10.9906,11.0294,11.1622,11.2604,11.3281,11.4578,11.5581,11.6211,11.7109,11.7383,11.75,11.8086,11.8281,11.8281,11.8281,11.8906,11.9609,11.9297,11.9609,12.0116,12.0205,12.0512,12.0888,12.1402,12.1798,12.2116,12.2191,12.1937,12.1985,12.3408,12.3485,12.3909,12.6178,12.6486,12.6717,12.8409,12.8794,12.9102,13.0294,13.0718,13.1102,13.1602,13.1679,13.1679,13.1679,13.1679,13.1679,13.1679,13.1679,13.1679,13.1679,13.1679,13.1679,13.1679,13.1679,13.1679,13.1679,13.1679,13.1679,13.1679,13.091,13.041,13.0102,12.7794,12.6678,12.6601,12.4101,12.2601,6.4851,6.4805,0.0,6.7484,6.6944,0.0,0.0,0.0,0.0,0.0,0.0,0.0,0.0,0.0,0.0,0.0,0.0,0.0,0.0,7.4023,7.6084,7.7998,8.1308,8.3328,8.298,8.4372,8.5183,8.4695,8.6338,8.7837,8.8904,9.2294,9.4481,9.5272,9.7914,9.9667,10.0481,10.1712,10.2712,10.3482,10.552,10.6597,10.6905,10.7982,10.8721,10.9108,11.0498,11.1394,11.2087,11.3806,11.4804,11.539,11.6484,11.6992,11.7109,11.8008,11.8281,11.8281,11.8281,11.8711,11.8984,11.8515,11.8711,11.91,11.9185,11.9498,12.0097,12.1689,12.1809,12.1694,12.2694,12.2293,12.1793,12.2716,12.2908,12.3408,12.5409,12.5293,12.5486,12.7486,12.7602,12.7909,12.9294,13.0102,13.0794,13.1602,13.1679,13.1679,13.1679,13.1679,13.1679,13.1679,13.1679,13.1679,13.1679,13.1679,13.1679,13.1679,13.1679,13.1679,13.1679,13.1679,13.2295,13.3487,13.1218,13.0794,13.2295,12.8486,12.6986,12.7409,12.4601,12.2908]}]]